ECMWFNIL_sfc_temp_000.txt.gz
Temp
44 44 43 42 42 42 41 39 39 39 38 38 37 37 36 36 35 34 33 33 32 31 30 30 30 29 30 29 29 29 28 28 27 27 27 27 26 26 26 24 24 25
44 44 43 43 42 42 41 41 40 40 39 38 38 37 37 35 35 34 33 32 32 31 30 30 30 30 29 29 28 28 28 27 27 28 27 26 25 25 25 25 24 24
43 43 42 42 42 41 41 40 40 40 39 38 38 37 36 35 34 33 33 32 31 30 30 30 29 29 29 28 28 28 27 27 26 26 27 25 25 25 25 24 24 24
43 43 42 42 42 41 41 39 39 39 38 37 37 36 36 35 34 33 32 32 31 30 30 29 29 29 29 28 28 27 27 27 26 26 26 25 25 25 24 24 25 24
42 42 42 41 41 40 39 38 38 38 37 37 36 35 34 33 32 32 31 31 31 30 29 29 29 28 28 28 27 27 26 26 25 26 25 24 24 25 24 24 23 23
41 41 41 40 40 39 38 38 38 37 36 35 36 34 34 33 32 32 31 31 30 30 29 29 28 28 28 27 27 27 26 25 25 25 25 24 23 24 25 24 23 23
41 41 40 40 39 38 38 38 37 37 36 36 33 33 33 32 32 32 31 31 30 29 29 28 28 27 27 27 27 26 25 25 24 24 24 23 23 23 23 23 23 22
41 40 39 38 38 37 37 37 36 36 35 33 34 33 33 33 32 32 31 31 30 29 29 28 28 27 27 27 26 25 24 25 24 23 23 22 22 21 21 22 22 20
41 39 38 37 37 37 37 37 36 35 34 34 33 33 33 33 32 32 31 30 29 29 28 28 28 27 27 27 26 25 24 23 23 23 22 21 20 20 20 20 20 20
39 39 37 37 37 37 37 36 36 35 33 34 34 33 32 32 32 31 31 30 29 28 28 27 27 26 26 26 25 25 24 23 22 22 21 21 21 20 20 20 19 19
38 37 37 36 36 37 36 36 35 34 33 34 33 32 32 31 31 30 30 29 29 28 27 27 26 26 25 24 24 24 23 23 22 22 21 21 21 20 21 19 19 18
38 37 37 37 37 37 36 36 35 34 33 33 33 32 31 31 30 29 29 29 29 28 27 26 26 25 24 24 23 23 22 22 22 21 21 20 20 21 21 21 20 20
37 37 38 37 37 37 37 35 34 33 33 32 32 32 30 29 29 29 29 29 28 27 26 25 25 24 24 23 22 22 22 22 22 22 22 21 21 21 21 21 20 19
38 38 38 38 37 37 35 34 33 32 32 32 31 31 30 29 29 28 28 28 27 26 25 25 24 23 22 22 22 23 23 22 22 21 20 19 19 19 19 19 18 19
39 38 37 36 35 34 33 32 32 32 31 31 30 30 30 29 29 28 26 25 25 24 24 23 23 23 23 23 22 22 22 21 20 20 19 19 19 19 19 19 20 20
38 36 35 34 33 32 32 32 31 30 30 29 28 29 28 28 27 26 26 25 23 23 23 23 24 24 25 27 26 22 20 20 19 19 19 19 18 18 19 20 20 21
35 34 33 32 32 32 31 30 30 29 28 27 27 26 26 25 25 24 24 24 23 22 22 23 23 23 28 29 29 28 22 20 18 18 18 19 19 19 18 20 20 21
34 32 31 31 30 29 29 28 28 27 26 26 25 24 24 24 24 23 23 23 23 22 22 22 22 26 30 30 30 29 25 20 19 18 18 19 20 20 20 20 20 21
32 30 30 29 28 28 27 26 26 26 25 24 23 24 23 22 23 23 22 23 22 22 22 22 21 28 31 31 30 29 27 22 19 19 19 19 20 20 20 21 21 21
31 30 29 28 27 27 26 25 24 25 25 25 24 23 23 23 22 22 22 22 22 22 22 21 20 27 31 32 31 30 28 23 18 19 19 19 20 21 21 22 22 21
30 29 28 27 26 26 25 25 24 25 24 24 24 23 23 23 22 21 21 21 21 21 20 20 20 28 31 32 32 31 29 24 19 20 20 20 22 23 23 23 23 22
29 28 27 26 26 25 24 24 24 24 24 23 23 23 23 23 22 22 21 20 20 19 19 18 19 28 31 32 32 32 31 23 21 21 21 21 22 23 23 23 22 21
29 28 27 25 25 24 23 23 23 23 23 23 22 22 22 21 20 20 20 19 18 18 17 17 18 27 31 32 32 33 31 23 22 21 21 21 21 21 22 22 22 21
28 27 26 25 24 23 23 24 24 24 23 22 22 21 20 20 19 18 18 18 17 17 17 16 17 26 31 32 32 32 28 22 21 20 19 20 20 21 22 22 22 24
26 26 25 24 23 23 23 22 22 22 22 21 21 21 20 19 18 17 15 16 16 16 21 17 17 24 31 31 32 32 27 22 21 20 19 19 19 20 21 21 21 23
25 25 24 23 22 22 22 22 21 19 18 19 19 19 17 16 16 16 14 14 15 15 18 16 16 20 26 31 31 31 28 22 21 19 18 18 19 19 18 19 21 22

ECMWFNIL_sfc_temp_003.txt.gz
Temp
44 44 43 42 42 42 41 40 40 40 39 39 38 37 37 36 35 34 34 33 33 32 31 31 30 30 30 30 30 30 29 29 29 27 27 27 27 26 27 25 26 26
44 43 43 42 42 41 41 41 40 40 39 39 39 38 37 36 35 35 34 33 32 32 31 30 30 30 30 30 29 29 29 28 28 28 27 27 26 26 26 26 26 25
43 42 42 42 42 41 41 40 40 40 40 39 38 37 36 36 34 34 34 33 32 31 31 30 30 30 30 30 29 30 29 28 28 27 27 27 26 26 26 25 25 25
43 43 42 42 43 42 41 39 39 39 38 36 37 37 36 35 35 33 33 33 32 31 30 30 30 30 30 29 29 29 29 28 28 27 27 26 26 26 25 25 25 25
42 42 42 42 42 41 40 39 38 38 38 38 36 35 35 34 34 33 33 32 32 31 30 30 30 29 29 29 29 29 28 27 27 27 26 25 25 25 25 25 24 24
41 42 42 42 41 39 39 39 39 38 37 36 36 35 35 34 34 33 33 32 32 31 30 30 29 29 29 29 28 29 27 27 26 26 26 25 24 25 26 25 24 24
41 41 41 41 39 39 39 39 39 38 37 37 35 35 35 34 33 33 33 32 31 31 30 30 29 29 29 29 28 28 27 26 25 25 25 24 24 24 25 24 24 23
41 41 41 40 39 39 38 38 38 38 37 35 35 35 35 34 34 33 33 32 31 31 31 30 30 29 29 29 28 27 26 26 25 25 24 23 23 23 23 24 23 22
41 41 40 39 39 39 38 39 38 37 36 36 35 34 34 34 34 33 32 32 31 31 30 30 30 29 29 28 28 27 26 25 25 25 24 23 23 23 22 22 22 21
40 40 38 38 38 39 38 39 39 37 36 36 36 35 34 34 34 33 32 32 31 31 30 30 29 29 28 28 28 28 27 26 25 25 25 24 23 23 22 21 21 21
39 39 38 38 38 39 39 39 38 37 35 36 35 34 34 33 33 33 32 32 31 30 30 30 29 29 28 27 28 28 27 26 25 25 24 24 23 22 23 22 21 21
40 39 39 39 39 40 40 40 39 37 35 36 36 34 33 33 33 32 32 32 32 31 31 30 29 29 28 28 27 27 26 26 25 25 24 23 22 22 22 21 21 20
40 39 40 40 40 40 41 40 39 38 36 35 35 34 33 32 32 32 32 32 32 31 31 30 29 29 28 27 27 26 26 25 24 24 23 22 22 21 21 21 21 20
41 41 41 41 41 40 39 39 38 37 36 35 34 33 33 33 32 32 32 32 32 31 31 30 29 28 28 27 26 26 25 24 24 23 22 21 21 21 20 20 20 19
42 41 41 40 38 38 37 37 36 36 34 33 33 33 33 32 32 32 30 30 30 30 29 29 29 28 28 27 26 25 24 24 23 22 22 21 20 19 19 19 20 20
41 40 39 38 37 36 36 36 35 34 33 32 32 32 32 31 31 31 30 30 29 29 29 29 28 28 29 30 29 26 25 24 23 22 21 21 20 19 19 20 20 20
39 38 38 37 37 36 34 33 33 32 31 30 30 30 30 31 31 30 30 30 29 29 28 28 28 28 31 32 32 31 26 24 22 21 21 20 20 19 18 19 19 19
37 36 35 35 34 33 33 32 31 30 29 29 29 29 30 30 30 30 30 30 30 29 28 27 27 30 32 32 32 32 29 23 22 20 20 20 20 19 19 19 19 19
35 34 34 33 32 32 31 30 30 29 29 28 28 30 29 28 30 30 29 29 29 28 27 27 27 31 32 33 33 33 31 26 21 21 20 20 20 20 19 19 19 20
32 32 33 32 31 30 30 30 29 29 29 29 29 28 28 28 28 28 28 28 28 27 27 27 27 30 33 34 33 33 31 27 21 21 20 20 20 20 20 20 20 19
31 31 31 30 29 29 29 29 28 28 28 28 28 28 27 27 27 27 27 26 26 27 26 26 26 31 33 34 34 34 32 27 20 20 19 19 20 21 21 21 21 21
27 28 27 26 27 27 27 28 28 28 27 27 27 27 27 28 27 27 26 25 26 25 25 24 25 32 33 34 34 34 33 23 20 19 19 19 19 20 21 21 21 21
27 26 26 26 26 26 27 27 28 27 28 27 26 27 26 26 26 26 26 25 25 24 24 23 23 30 34 34 35 35 30 19 19 19 18 18 19 20 21 21 21 21
28 27 28 27 27 26 27 28 28 28 27 27 26 25 25 25 25 25 25 25 24 23 24 22 22 29 34 34 35 35 27 19 19 19 18 19 19 20 21 21 22 25
27 28 29 27 27 27 26 26 26 26 26 25 26 26 25 25 24 24 23 23 23 23 26 23 22 27 33 34 34 34 26 21 20 19 18 19 19 19 20 20 21 24
25 27 28 27 27 26 25 26 25 24 23 24 24 24 24 23 22 22 21 21 21 21 22 22 21 24 30 35 34 34 28 22 21 20 19 19 20 19 18 19 21 22

ECMWFNIL_sfc_temp_006.txt.gz
Temp
44 44 44 43 43 42 41 40 40 39 39 39 38 38 37 37 37 35 35 35 35 34 34 33 33 32 32 31 30 30 30 30 29 28 29 29 28 28 28 27 27 27
44 43 43 42 41 41 41 41 41 41 39 39 39 39 38 37 36 35 35 35 34 34 33 33 32 32 31 31 30 30 29 29 29 29 28 28 28 27 27 27 27 26
43 42 42 41 42 41 40 40 40 40 40 39 38 37 36 36 35 35 35 34 34 33 33 32 32 32 31 31 30 30 30 29 28 28 28 28 27 27 27 26 26 26
42 42 42 41 42 41 40 39 39 39 38 37 37 36 36 36 35 34 34 34 33 33 32 32 32 31 31 30 30 30 30 29 29 28 28 27 27 27 26 26 26 26
41 41 41 41 40 40 39 38 38 38 38 38 37 36 35 35 34 34 34 34 33 33 32 31 31 31 30 30 30 30 29 29 28 27 27 27 26 27 26 26 26 25
40 41 41 40 40 39 39 39 39 38 38 36 37 36 36 35 35 34 34 33 33 33 32 31 31 31 30 30 30 30 29 28 27 27 27 26 26 26 27 26 26 25
40 40 40 40 39 39 39 39 38 38 38 38 35 35 35 35 34 34 34 34 33 33 32 31 31 30 30 30 30 29 28 28 26 27 27 26 25 25 26 26 25 25
39 39 39 39 39 39 39 39 39 39 38 36 36 36 35 35 34 34 34 34 33 32 32 31 31 31 30 30 30 29 28 28 27 26 26 25 25 24 24 25 25 24
38 38 38 38 39 39 39 40 40 39 38 37 37 35 35 35 35 34 34 33 33 33 32 32 31 31 31 30 30 30 29 28 27 27 27 26 25 25 24 24 24 24
38 38 37 38 38 40 40 40 40 40 38 38 37 36 35 35 35 35 34 33 33 33 33 33 32 31 30 30 31 30 30 28 27 27 27 27 26 26 25 24 24 24
38 38 38 38 38 39 39 40 40 40 39 38 37 36 35 35 35 35 34 33 33 33 33 33 32 32 31 30 31 31 30 29 28 27 27 27 27 26 27 25 25 24
38 38 38 39 39 39 39 40 39 39 38 37 37 37 36 36 35 35 35 34 34 34 34 34 33 33 32 31 31 30 30 29 28 28 28 27 27 26 26 25 25 25
39 39 40 40 40 40 40 39 38 38 37 37 37 37 36 36 36 35 35 35 34 34 34 34 34 33 33 32 31 30 30 29 28 27 27 27 27 26 25 25 25 25
39 40 40 41 41 41 39 39 39 38 38 38 37 37 36 36 35 35 35 35 35 35 35 34 34 33 32 32 31 30 30 29 28 28 27 27 26 25 25 24 24 24
40 40 40 40 39 39 38 38 38 38 37 37 36 36 36 36 35 35 34 34 35 35 35 34 33 32 32 31 31 30 30 29 28 28 27 26 25 24 24 24 23 23
39 39 39 39 38 38 38 38 37 37 36 35 35 35 35 35 34 34 35 34 34 34 34 33 33 33 33 34 33 31 29 29 27 26 27 26 25 23 23 23 22 22
38 38 38 37 38 37 36 36 36 35 34 34 33 33 33 33 33 33 34 34 33 33 32 33 33 33 34 35 35 35 31 28 27 26 26 26 25 23 22 22 22 22
36 36 36 36 36 35 35 34 34 33 33 32 32 31 31 31 32 33 33 33 33 33 32 32 32 33 35 36 36 36 33 29 28 27 26 26 25 24 23 22 22 20
34 33 33 34 34 34 33 32 31 32 31 30 30 31 31 30 32 31 32 33 33 32 32 32 31 34 35 36 36 36 35 32 28 27 26 25 25 25 24 22 21 20
32 32 32 33 33 32 31 31 30 31 32 31 31 30 30 30 30 30 31 31 32 32 32 32 31 34 36 36 36 36 36 33 27 26 26 25 25 23 23 22 21 20
31 31 30 31 31 30 29 29 30 30 30 30 30 30 30 30 30 30 30 30 31 31 31 31 31 34 35 36 36 36 36 33 27 26 26 25 24 23 23 22 22 22
30 29 29 29 29 28 27 29 29 29 30 30 30 30 30 31 30 30 30 30 30 30 30 29 30 34 35 36 36 36 36 30 26 25 24 24 23 23 23 23 23 22
30 29 28 28 27 26 27 27 28 28 29 29 28 29 29 29 29 29 30 30 29 29 29 29 28 32 35 35 36 37 35 27 25 24 23 23 22 23 23 23 23 23
28 27 27 28 26 25 25 27 26 27 27 27 27 27 27 28 28 28 29 29 29 28 29 28 27 30 34 35 36 36 33 25 24 23 22 21 20 21 22 23 23 25
27 26 26 26 25 26 24 24 24 25 25 24 25 26 27 27 27 27 26 27 27 27 29 28 26 29 34 35 36 37 32 24 24 23 21 20 20 20 22 22 23 24
28 26 25 25 25 25 24 23 23 21 21 23 23 24 24 24 25 25 25 25 26 26 26 28 26 27 31 35 36 37 33 24 24 23 20 20 20 19 19 20 22 23

ECMWFNIL_sfc_temp_009.txt.gz
Temp
46 47 47 46 46 46 45 44 44 44 43 43 42 41 41 41 42 40 40 41 41 40 40 40 40 39 38 38 38 38 38 38 38 39 38 38 39 37 37 37 38 39
45 45 46 45 45 44 44 44 44 44 43 43 43 43 43 42 41 40 40 40 40 40 40 40 39 39 38 37 37 37 38 38 37 37 37 36 38 37 37 37 37 37
43 44 44 43 44 43 42 43 44 44 44 44 43 43 42 41 40 40 40 40 39 39 39 39 38 38 38 38 37 37 37 36 37 36 37 36 37 37 38 36 37 35
42 42 42 42 43 42 42 41 42 43 43 42 42 42 41 40 40 39 39 38 39 39 39 39 38 38 38 38 37 37 38 37 38 36 36 37 36 37 36 36 35 35
41 41 41 41 41 41 41 40 40 41 41 41 41 41 41 40 39 39 39 39 39 39 39 38 38 38 38 37 37 37 37 37 37 35 36 35 35 35 35 35 34 34
40 40 41 41 41 41 41 41 41 41 41 41 41 41 40 40 40 39 39 38 39 39 38 38 37 38 37 37 36 37 37 36 35 35 35 35 34 35 34 34 34 33
40 40 40 41 40 40 40 41 41 41 41 42 41 40 40 39 39 39 39 39 38 38 38 37 37 37 37 37 36 37 37 36 35 34 34 35 34 33 33 33 33 33
39 40 40 40 40 40 40 41 41 41 41 41 40 41 40 39 39 39 39 38 38 38 38 38 37 37 36 36 36 36 36 36 34 33 34 34 33 31 32 32 33 33
38 39 39 39 39 40 40 41 41 42 41 41 41 41 40 40 39 39 38 38 38 38 38 37 37 37 37 36 36 36 36 35 34 33 34 33 31 32 31 32 32 32
40 39 38 38 39 40 40 41 41 42 41 41 41 41 40 40 40 39 39 38 37 38 38 37 37 37 36 36 36 36 36 35 34 33 34 34 32 32 31 31 31 31
41 41 40 39 39 40 40 41 41 41 41 41 41 40 40 39 38 39 38 38 37 37 37 37 37 37 37 36 36 37 37 36 35 34 34 34 34 33 31 31 31 31
40 41 41 40 40 40 40 40 41 41 41 41 40 40 40 39 39 38 38 37 38 38 38 38 38 37 37 37 36 37 37 37 36 35 34 35 34 34 32 32 32 32
39 39 40 40 40 41 41 41 40 40 40 40 40 39 40 39 39 38 38 38 38 38 38 38 38 37 37 37 37 37 37 36 36 35 35 35 35 35 34 33 33 33
38 38 39 39 39 40 40 40 40 40 40 40 39 39 39 39 39 38 38 38 38 38 38 38 38 37 37 37 37 37 36 36 36 35 35 35 35 35 34 33 33 33
38 38 38 38 38 38 38 39 39 39 39 39 39 39 39 39 39 39 38 38 38 38 37 37 37 37 37 37 36 36 36 36 36 35 35 34 34 33 33 33 33 33
37 37 36 36 36 36 37 37 38 38 38 38 38 38 38 38 38 38 38 38 37 37 37 37 37 37 37 37 37 36 36 35 34 34 34 35 34 33 32 32 32 32
36 35 35 35 35 36 35 35 36 36 36 36 36 36 36 37 37 36 37 37 37 37 36 36 37 37 37 38 38 38 36 35 33 33 33 34 34 33 31 31 31 32
34 34 33 33 33 33 33 33 34 34 34 34 34 35 35 35 35 36 36 36 37 37 36 37 37 37 38 38 38 38 37 34 33 33 32 33 34 33 33 31 30 30
33 32 31 31 32 32 32 32 32 32 33 33 33 34 34 34 35 35 35 36 36 36 36 36 36 38 38 38 38 38 38 36 33 32 32 31 33 33 32 31 30 29
33 31 31 31 31 31 31 31 31 31 32 32 33 33 33 33 33 34 35 35 36 36 36 36 36 37 38 38 38 38 38 37 33 32 31 31 32 32 32 31 29 28
31 30 30 30 30 30 30 30 30 30 31 31 32 33 32 32 33 33 33 33 34 34 34 35 36 37 38 38 38 38 38 37 33 32 32 31 32 32 32 31 29 28
29 28 28 29 29 29 29 29 30 30 30 31 31 31 31 32 32 32 32 32 33 33 33 33 35 37 37 37 38 38 39 36 34 32 31 30 30 32 32 31 29 28
27 27 27 28 29 29 28 29 29 30 30 30 29 30 30 30 30 31 32 32 32 32 31 32 33 35 37 37 38 38 37 35 34 32 30 29 29 30 29 29 28 27
25 25 26 28 28 28 27 28 29 29 29 29 28 28 29 29 30 30 30 31 31 31 31 31 32 34 36 37 37 38 37 34 33 31 29 28 28 28 28 28 27 28
23 24 26 27 27 27 27 27 27 28 29 28 27 27 27 29 29 29 29 30 30 30 32 31 31 32 35 36 37 37 37 34 33 31 28 27 27 24 25 25 26 27
22 22 24 26 26 26 26 26 27 27 27 28 28 28 27 27 27 27 27 29 30 29 29 30 30 30 32 35 36 37 37 35 33 30 27 26 25 23 22 23 24 25

ECMWFNIL_sfc_temp_012.txt.gz
Temp
52 53 53 53 54 54 54 54 54 53 54 54 53 53 52 52 51 50 49 49 49 49 49 49 49 49 48 49 49 50 50 49 49 50 49 49 50 49 49 49 51 53
51 52 52 52 52 53 54 54 53 53 53 53 53 53 53 52 50 49 48 48 48 48 48 48 49 48 48 49 48 48 49 49 47 48 48 47 49 49 49 48 49 51
50 50 50 50 50 51 52 52 52 52 52 53 53 53 51 51 49 49 48 47 47 47 47 48 48 48 48 48 47 47 47 47 47 48 48 47 48 49 49 49 49 49
49 49 48 49 49 50 51 51 51 51 51 49 50 50 50 48 49 48 48 45 47 47 48 47 47 48 47 47 46 47 47 47 48 48 47 48 48 49 49 49 49 48
48 48 48 48 48 49 49 48 49 50 50 50 50 50 49 49 48 49 48 47 47 47 48 47 47 47 47 47 46 46 46 47 47 47 47 47 48 48 48 48 48 47
48 48 48 48 48 47 47 48 49 49 49 49 49 50 49 49 49 48 48 47 47 47 47 47 47 47 47 46 46 46 46 46 47 47 46 46 47 47 47 47 47 47
47 47 47 47 47 48 48 48 48 49 49 49 50 49 49 48 48 47 47 47 47 47 46 47 46 46 46 46 46 45 46 46 46 46 45 46 47 46 47 47 47 47
46 47 47 47 47 47 47 48 48 49 49 49 48 49 49 48 48 48 47 47 46 46 46 46 47 46 46 46 45 45 45 44 44 44 44 44 45 45 45 45 45 45
46 46 45 45 45 46 46 47 48 48 49 48 48 48 49 48 48 48 47 46 45 45 45 45 46 46 46 45 44 44 44 43 43 44 43 42 42 43 43 42 41 42
44 44 44 43 42 43 43 45 46 47 48 47 47 47 47 48 47 47 47 46 45 44 45 45 44 44 45 44 43 44 43 43 43 43 42 42 42 42 42 41 41 41
42 42 42 42 42 42 41 42 43 45 46 46 47 46 46 46 46 46 46 45 43 43 43 43 44 44 44 43 43 43 43 43 43 42 41 41 41 42 40 40 40 40
42 41 40 41 41 41 41 42 42 42 43 45 46 46 46 46 46 46 44 44 44 43 43 42 42 42 42 42 42 42 42 42 43 43 42 41 41 41 41 40 40 40
42 41 41 40 40 41 41 41 41 41 42 42 44 44 44 45 46 45 44 43 43 44 44 43 42 42 41 40 40 41 40 40 41 41 41 40 40 40 40 40 39 39
43 43 42 42 41 41 41 40 39 40 40 41 41 42 42 43 44 44 45 44 42 42 43 44 43 43 43 42 41 41 40 39 39 39 40 40 39 40 40 41 40 39
42 42 42 42 40 40 39 39 39 39 38 39 39 40 41 42 42 42 42 42 42 42 41 41 41 41 42 42 41 40 40 39 39 39 39 39 39 40 40 40 39 39
42 42 41 40 39 38 38 38 38 38 38 38 38 39 40 40 41 41 41 41 41 41 41 40 40 41 40 39 40 39 39 38 38 37 38 39 39 39 39 40 40 40
40 40 39 38 38 37 35 36 36 35 35 36 36 37 38 39 39 39 40 40 39 40 40 40 40 41 39 40 40 40 40 39 37 37 37 38 38 38 38 39 40 40
38 38 36 35 35 33 33 34 34 34 34 34 35 35 36 36 37 38 39 39 40 40 40 40 40 40 40 40 40 40 39 39 37 36 36 38 38 38 39 39 39 39
37 34 33 31 31 31 31 32 33 33 33 33 33 35 35 35 36 37 37 38 39 39 39 40 40 40 40 40 40 40 40 39 37 36 36 37 38 38 38 39 39 37
35 32 31 30 30 29 30 30 32 32 33 34 34 34 34 34 34 35 36 37 38 38 38 39 40 39 40 40 40 39 40 39 37 36 36 36 37 38 38 39 39 37
31 30 29 29 28 27 27 28 31 32 32 32 33 33 33 33 34 34 34 34 35 36 36 37 39 39 40 39 40 40 40 40 37 37 36 36 37 38 38 39 39 39
30 28 27 26 26 26 25 26 29 30 30 32 32 33 33 34 34 34 33 33 34 34 35 35 38 38 39 39 39 40 40 38 37 36 36 36 36 38 38 38 39 39
30 28 26 24 24 23 23 24 26 28 29 31 29 30 30 31 31 32 33 33 33 33 33 34 35 37 38 38 38 39 39 38 37 37 36 35 35 37 37 37 37 38
28 25 24 23 22 21 21 23 24 26 27 28 28 28 28 29 30 31 32 33 32 32 33 33 33 35 36 37 37 38 38 37 37 37 36 36 35 37 37 36 36 34
26 24 23 21 20 20 20 20 21 23 26 27 27 27 27 29 30 30 30 31 32 32 32 32 32 33 35 36 36 37 37 36 37 36 35 35 35 35 35 35 35 34
24 22 21 20 19 19 19 20 21 23 23 24 24 25 25 27 28 29 28 29 30 31 31 32 32 32 34 35 36 36 37 36 36 35 34 34 34 34 33 33 34 33

ECMWFNIL_sfc_temp_015.txt.gz
Temp
51 51 51 51 52 52 52 52 53 53 53 54 54 55 55 56 56 54 53 52 52 51 51 51 52 51 51 52 51 52 51 51 51 51 51 51 51 51 50 51 52 53
50 50 50 50 50 51 51 52 52 52 52 53 53 54 55 55 55 54 51 50 50 49 50 50 50 50 49 50 49 49 50 50 49 50 50 49 50 50 50 50 51 52
49 49 49 48 48 49 50 50 51 51 51 52 52 53 52 53 52 51 50 49 48 49 48 49 48 49 48 48 49 49 49 49 49 50 49 49 49 50 50 50 51 50
49 49 48 48 49 49 50 49 49 50 50 49 49 50 51 50 50 49 49 47 48 48 48 48 48 48 48 47 47 48 48 48 49 49 48 48 48 49 49 50 50 50
47 47 48 48 48 49 49 48 47 48 47 48 48 49 49 49 48 48 48 48 47 47 48 47 47 47 47 47 47 47 47 47 48 48 48 47 48 48 48 48 48 48
47 47 47 47 47 47 47 47 48 48 48 47 47 48 48 48 48 48 48 48 48 48 47 47 47 47 47 46 46 46 46 46 47 46 46 46 47 48 47 47 47 47
45 45 45 46 46 46 46 46 46 47 47 47 48 47 48 48 48 48 48 48 47 47 47 47 46 47 47 46 46 45 46 46 46 46 45 46 46 46 47 46 47 47
44 44 44 44 44 44 44 44 45 45 45 46 46 47 47 47 47 47 47 47 47 47 47 46 46 46 46 46 45 45 45 44 44 45 45 44 45 45 46 46 46 46
42 42 42 42 42 42 43 43 44 44 45 44 44 45 46 46 46 46 46 46 46 47 47 46 46 46 46 46 45 45 44 44 44 44 44 44 44 45 45 46 45 45
42 41 42 41 41 41 42 43 43 43 43 42 43 43 43 44 44 44 44 45 44 45 45 45 45 45 46 46 45 45 44 44 44 44 44 44 44 44 45 45 45 44
44 44 43 42 41 41 40 41 41 42 42 41 41 41 41 41 41 42 42 43 42 43 44 44 44 45 44 45 45 45 44 44 44 44 44 44 44 44 43 45 45 44
43 43 43 42 42 42 42 41 40 40 40 41 41 40 41 41 40 41 40 41 41 41 42 43 44 44 44 44 44 44 44 44 44 43 44 44 44 44 44 44 44 44
43 43 43 42 42 41 41 41 41 41 40 39 39 39 39 40 41 41 41 40 40 40 41 41 42 43 43 43 43 43 43 43 42 43 43 43 43 44 44 44 44 44
42 42 42 42 42 41 40 40 40 39 39 40 40 39 39 39 39 39 40 41 41 40 41 41 41 41 42 42 42 42 42 41 41 41 41 41 42 43 43 43 43 43
41 42 42 42 41 39 39 38 38 38 38 38 39 39 39 40 40 39 39 40 41 41 41 41 40 40 40 41 41 41 41 40 40 39 40 40 40 41 41 42 42 43
39 40 40 40 38 37 37 36 36 35 36 36 36 38 38 39 39 39 39 39 39 40 41 40 40 40 39 39 40 39 39 39 39 39 38 39 39 39 40 40 41 42
38 38 38 37 37 36 33 32 33 32 32 33 35 35 36 37 38 38 38 39 39 39 39 39 40 40 39 41 41 41 40 39 37 37 37 38 38 38 38 39 40 40
37 36 35 35 35 32 31 30 30 30 30 31 33 34 35 35 36 36 37 38 38 39 39 39 40 40 41 41 41 41 40 38 37 36 36 38 38 38 38 39 39 40
36 34 33 32 32 32 30 29 28 28 28 29 30 33 34 33 34 35 36 37 37 37 38 39 39 40 41 41 41 41 41 40 38 37 36 36 37 38 38 39 39 39
35 32 31 31 31 30 29 28 27 26 27 28 29 30 31 32 33 33 34 35 36 36 36 37 38 39 40 40 40 40 40 40 37 37 36 36 37 37 38 38 38 39
32 31 31 31 30 29 28 27 26 26 25 26 27 28 29 30 31 31 31 32 32 33 34 35 36 38 39 39 39 40 40 40 37 37 37 37 37 38 38 38 38 38
31 30 29 29 29 28 26 25 25 24 23 25 25 26 27 29 29 30 29 30 31 31 31 32 35 37 38 38 39 39 40 37 36 36 35 36 36 38 38 38 38 38
31 30 28 27 27 26 24 24 23 23 23 24 23 23 23 25 26 27 28 29 28 29 30 31 32 35 37 37 38 38 38 36 35 35 35 35 35 37 38 38 39 39
29 27 26 25 24 23 22 22 22 22 22 23 21 21 21 23 25 26 26 27 27 28 29 29 29 32 35 36 37 37 37 34 35 35 34 35 35 37 37 38 38 36
26 25 24 23 22 21 21 20 20 20 21 21 21 21 21 22 24 24 24 25 25 25 28 27 27 30 33 35 35 36 36 34 34 34 33 34 35 35 37 37 38 37
23 21 21 20 19 19 19 19 19 19 19 19 19 20 19 20 21 21 21 21 23 23 23 24 24 26 29 33 34 35 36 34 34 33 32 32 34 34 35 36 37 37

ECMWFNIL_sfc_temp_021.txt.gz
Temp
39 39 38 39 38 38 38 38 38 38 38 37 37 37 38 38 39 39 38 38 38 37 38 38 38 38 39 38 37 37 37 37 37 37 36 36 36 36 39 39 38 38
37 37 37 37 37 37 37 37 37 37 37 37 37 37 38 38 38 37 36 36 36 37 37 37 37 36 36 36 36 36 36 37 37 38 37 36 36 36 36 37 38 39
35 35 35 35 35 35 35 36 35 36 35 36 36 36 36 37 36 36 36 35 35 35 35 35 35 35 35 35 34 35 36 36 36 37 36 36 36 36 36 36 37 37
33 32 32 32 33 33 33 34 34 34 33 34 34 34 34 35 34 34 34 35 35 35 35 34 34 34 34 35 34 35 35 35 35 35 35 35 35 36 35 36 36 36
32 31 30 30 30 30 30 31 31 32 32 32 33 33 34 34 34 34 34 34 34 34 35 34 34 34 34 34 33 34 35 35 35 34 34 35 36 36 36 36 35 36
30 31 31 31 30 30 30 29 29 29 30 30 32 33 32 33 33 35 36 36 36 35 36 35 35 36 35 34 34 34 34 34 34 33 34 34 35 36 36 36 35 35
31 30 29 29 30 29 29 29 29 30 29 29 30 31 31 31 32 33 34 35 36 36 36 36 36 37 37 36 35 34 34 33 34 34 33 34 34 34 35 34 34 35
28 29 29 31 30 29 28 29 28 29 28 28 29 30 29 31 31 31 32 33 34 35 36 36 37 37 37 37 36 36 35 36 35 34 34 34 34 34 35 36 35 35
28 29 29 29 30 31 28 28 28 28 28 28 29 29 29 30 30 30 31 31 31 32 34 35 36 36 36 36 36 36 35 36 36 35 34 34 35 35 36 36 35 35
28 28 29 28 29 30 29 28 28 29 28 28 28 28 29 30 29 30 30 30 30 31 31 32 34 34 35 36 36 36 36 36 36 36 36 35 35 35 36 36 36 36
27 27 28 28 28 28 28 28 28 28 28 27 27 28 29 29 29 29 29 29 30 30 31 32 32 32 32 33 35 36 36 36 36 36 36 36 36 36 37 36 36 36
28 28 29 29 29 28 28 28 28 27 27 27 26 27 27 28 28 29 29 29 30 30 31 31 31 31 31 32 33 34 35 36 36 35 35 36 36 36 36 36 36 36
29 29 29 29 29 29 29 29 29 28 27 28 27 26 26 27 27 27 28 29 29 30 31 31 31 31 31 32 32 32 33 34 35 35 35 35 35 35 35 36 36 36
28 27 28 28 28 28 28 28 29 29 29 28 27 27 27 26 27 27 27 28 28 29 30 30 31 31 32 32 32 32 32 33 34 34 35 35 35 35 35 35 36 36
27 27 27 27 27 27 28 28 28 28 28 28 28 27 28 27 26 27 26 27 27 28 28 29 29 30 31 32 32 32 32 32 32 33 34 34 35 35 35 35 35 35
28 28 28 28 28 28 28 28 28 28 28 27 27 27 26 26 26 26 26 26 26 26 27 27 28 30 32 34 35 34 33 33 33 33 33 33 33 34 34 35 35 35
28 29 29 28 28 28 27 27 27 27 27 26 26 26 26 26 26 25 26 26 25 25 25 26 27 28 32 33 35 36 34 33 32 32 32 33 33 33 33 34 35 35
27 27 27 27 27 26 25 25 25 25 25 25 25 24 25 25 24 25 25 25 25 25 24 25 25 29 31 32 33 34 34 32 32 32 32 33 33 33 33 33 34 35
26 25 25 25 24 24 23 23 23 23 23 23 22 22 23 22 24 24 23 24 24 23 23 24 24 28 30 31 31 32 33 32 30 30 31 31 32 32 32 33 33 33
24 22 22 22 21 21 21 21 21 20 20 20 21 21 21 21 21 21 22 22 22 22 22 23 23 26 29 30 30 31 32 32 28 28 29 30 31 31 32 32 32 32
21 20 19 19 19 19 19 18 18 19 19 19 19 19 19 19 19 19 19 20 20 20 20 20 22 26 28 28 29 30 31 30 27 27 27 28 29 30 31 31 32 33
18 17 17 17 18 17 16 16 17 16 16 17 17 17 17 17 17 18 17 17 18 18 17 17 19 25 26 27 27 28 29 25 24 24 24 25 26 27 28 30 31 32
17 16 15 15 15 14 13 13 14 13 13 14 13 13 13 13 13 14 15 15 14 15 14 15 16 20 24 25 25 26 25 21 21 21 22 22 23 25 26 28 29 30
14 13 12 12 11 10 10 11 11 11 10 11 10 10 10 11 11 11 12 12 12 12 13 12 13 17 21 22 22 23 22 19 19 19 19 20 21 23 24 25 26 29
11 10 10 9 8 8 8 8 8 8 9 9 9 9 8 9 9 9 9 9 10 10 14 13 10 13 18 19 20 21 19 17 17 17 17 18 19 20 22 22 23 25
8 8 7 7 6 7 6 6 7 7 7 7 7 7 7 7 7 7 6 7 8 8 8 9 9 9 12 18 19 20 21 17 17 16 15 16 17 17 18 20 21 22

ECMWFNIL_sfc_temp_024.txt.gz
Temp
35 35 35 35 34 34 34 34 34 34 34 33 33 33 33 34 34 34 34 34 34 34 34 34 34 35 35 35 34 34 34 34 34 35 34 33 33 32 34 34 34 34
34 34 35 34 34 34 33 32 32 32 32 32 32 32 33 33 33 33 33 33 33 33 33 33 33 33 33 33 33 33 33 34 34 36 34 34 34 33 33 33 33 34
32 33 32 32 32 32 31 31 31 30 31 31 31 31 32 31 32 31 31 32 32 32 33 33 33 33 33 32 32 32 32 33 33 34 33 33 33 33 33 33 33 33
31 30 30 30 30 31 30 32 32 32 31 31 31 31 31 32 31 31 31 31 30 31 31 32 32 33 33 33 32 33 32 32 32 32 32 33 33 33 33 33 33 33
28 29 28 28 28 27 28 28 28 28 28 28 30 31 31 31 30 31 31 31 31 30 31 30 30 31 31 32 32 32 33 33 32 31 31 32 33 33 34 33 33 33
27 27 28 27 27 27 28 27 27 27 28 28 28 29 27 28 28 28 29 29 30 30 31 31 31 31 31 31 31 31 31 32 33 34 34 34 33 33 33 33 32 32
27 27 28 27 28 27 26 27 26 27 27 27 26 28 27 29 28 28 28 28 28 29 29 29 30 31 31 31 31 31 31 31 31 31 32 33 34 35 35 33 32 32
26 27 27 26 28 27 28 28 26 26 26 26 27 27 26 27 27 27 27 27 28 28 28 28 29 29 30 30 30 30 31 32 32 31 31 31 32 33 34 36 36 33
25 26 26 26 26 27 26 28 27 27 27 27 28 27 26 26 26 26 26 26 26 27 27 28 28 28 29 29 29 29 30 31 31 31 31 31 31 32 32 33 34 34
27 26 27 26 26 26 25 25 26 26 27 27 27 26 27 27 25 26 26 25 26 26 26 27 27 28 28 28 28 29 29 30 30 31 31 31 31 32 32 32 32 33
27 26 26 26 26 26 26 25 25 25 25 25 26 26 26 26 27 25 26 26 26 26 26 27 27 27 27 28 28 28 29 29 30 30 31 31 31 32 33 32 32 32
27 27 27 26 26 26 26 26 26 25 25 25 24 25 25 25 25 26 25 25 26 25 26 26 27 27 27 27 28 28 28 29 29 29 30 30 31 32 32 32 32 33
26 26 26 26 26 26 26 26 26 26 25 26 25 25 25 26 26 26 26 25 26 26 26 26 26 27 27 27 27 27 27 28 28 29 29 30 31 31 32 32 32 33
26 26 26 26 26 26 26 26 26 26 26 26 25 26 26 26 27 26 27 26 26 26 26 26 26 26 26 26 26 27 27 27 28 28 28 29 30 30 31 31 32 32
25 26 26 25 25 25 26 26 26 26 26 25 25 26 27 26 26 26 26 26 26 26 26 27 26 26 27 26 26 27 27 27 27 27 28 28 28 29 30 31 31 32
25 25 25 25 24 25 25 24 24 24 24 24 25 25 25 25 25 25 25 24 24 25 25 26 26 27 28 30 31 28 27 27 27 27 27 27 27 27 28 29 30 31
24 25 24 24 24 24 22 22 22 22 21 22 22 23 22 23 23 23 23 23 23 23 23 24 25 26 29 30 31 31 29 26 26 25 26 26 26 26 26 27 28 29
24 24 23 22 21 21 20 19 19 19 19 19 20 20 20 21 20 21 22 22 22 22 21 22 23 26 28 28 29 30 30 27 26 25 24 25 25 25 25 26 26 27
22 20 19 19 18 17 17 17 17 17 17 17 17 18 18 18 19 19 18 19 19 19 19 20 20 24 26 27 27 28 28 27 24 24 23 23 24 24 24 24 25 25
18 16 16 15 15 15 16 15 15 15 15 15 16 16 15 15 15 15 16 16 16 16 16 17 18 21 24 25 25 26 26 26 22 22 22 23 23 23 23 23 23 24
16 14 13 14 13 13 13 13 13 13 13 13 13 13 13 12 12 12 12 13 13 13 14 14 15 20 22 23 23 24 24 24 20 20 19 19 20 21 21 21 22 22
13 12 12 12 12 11 10 11 11 10 10 11 11 11 11 11 11 11 10 10 11 11 11 10 12 18 20 20 21 22 23 19 17 16 16 16 16 17 18 19 20 21
13 11 10 10 10 9 8 8 9 8 8 9 8 8 8 8 8 8 9 9 9 9 9 9 9 14 18 19 20 21 19 15 15 14 14 14 15 16 17 18 19 19
10 7 8 7 6 5 6 7 7 7 6 7 6 6 6 6 7 7 7 8 7 7 7 7 8 12 17 18 19 19 18 15 14 13 13 13 14 16 17 18 19 21
7 6 6 5 4 5 5 4 4 5 6 6 5 5 5 6 6 5 5 6 6 6 10 9 7 9 15 16 17 18 16 14 14 13 12 13 13 14 15 16 18 19
5 4 4 4 4 4 3 4 4 4 4 4 4 4 4 4 4 4 3 4 5 5 5 6 6 6 9 16 17 18 19 15 14 12 11 12 12 13 13 14 15 16

ECMWFNIL_sfc_temp_027.txt.gz
Temp
32 32 31 31 31 32 31 31 30 31 30 29 30 30 30 30 30 30 30 30 31 31 31 31 32 32 33 32 31 32 32 31 32 33 31 31 31 30 33 31 31 31
30 30 31 30 31 31 30 29 29 30 29 29 29 28 30 30 30 29 29 29 30 30 30 30 30 31 31 31 31 31 32 31 31 32 31 31 30 30 30 30 29 30
28 29 29 28 29 28 28 29 29 28 28 28 28 27 29 28 28 28 28 29 28 29 29 29 29 29 30 30 30 30 31 31 31 31 30 30 30 30 31 30 29 29
31 29 29 28 27 28 28 29 29 29 27 29 28 27 27 29 27 27 26 27 26 27 27 28 28 28 28 29 29 29 29 30 30 30 30 31 31 30 30 29 30 30
28 29 29 28 28 28 28 28 27 28 27 27 28 28 28 28 27 27 27 27 26 26 26 26 25 26 26 28 27 28 29 29 29 29 29 30 31 31 31 31 30 29
28 27 26 27 26 27 27 26 26 26 26 27 27 27 26 26 26 26 27 27 27 27 27 27 27 26 26 26 26 26 27 27 28 28 28 28 29 30 31 31 30 30
27 27 26 27 26 26 26 26 26 26 25 25 25 26 25 26 25 26 26 26 26 26 26 26 27 27 28 27 27 27 27 26 26 26 26 27 28 29 30 29 29 29
26 26 26 25 26 25 26 25 25 26 25 25 25 25 24 25 24 24 24 24 24 25 25 25 25 26 26 26 26 27 27 28 27 27 26 26 27 27 28 29 29 29
25 25 25 24 26 25 26 25 25 25 25 25 26 25 24 24 25 25 25 24 24 25 24 25 25 25 25 25 25 25 25 26 27 26 26 26 26 27 27 28 28 28
27 25 26 25 25 25 24 24 24 25 24 25 25 24 25 25 24 24 24 24 24 24 24 24 25 25 24 24 24 25 25 25 26 26 26 26 26 26 27 27 27 27
27 25 25 25 25 25 25 24 24 24 24 23 24 24 24 24 24 23 23 23 25 24 24 24 24 24 24 24 25 24 25 25 25 25 26 26 26 27 28 27 27 27
26 26 26 25 25 24 24 24 24 24 23 24 23 24 24 24 24 25 25 24 24 24 24 24 24 24 24 24 24 24 24 25 25 25 26 26 26 27 27 27 27 27
25 26 26 25 25 24 24 24 23 23 23 24 24 23 23 24 24 24 24 24 24 24 24 24 24 24 24 24 24 24 24 24 25 25 25 26 26 27 27 27 27 27
25 25 25 25 24 23 23 23 23 23 23 23 22 23 23 23 23 23 23 23 23 23 24 24 23 23 23 24 24 24 24 24 25 24 25 25 25 26 26 26 27 27
24 25 25 24 23 23 22 22 22 21 21 21 21 21 22 22 22 22 21 21 22 22 22 23 23 23 24 24 24 24 25 24 24 24 24 23 23 24 25 25 26 26
24 23 23 23 22 21 21 20 20 19 19 19 19 19 19 19 19 19 19 19 19 20 20 21 21 22 23 26 27 25 24 24 23 23 22 22 22 22 23 23 24 25
22 23 21 20 20 20 16 16 18 17 16 16 16 16 16 17 17 17 17 18 17 17 17 18 19 20 23 25 26 27 24 23 22 21 22 22 21 21 20 21 22 23
20 19 18 17 16 14 14 12 13 13 13 13 13 14 14 14 14 15 15 16 16 15 15 15 16 19 22 23 24 25 25 23 21 20 20 20 20 20 20 21 21 22
17 15 14 13 13 12 11 11 11 12 11 11 11 12 12 12 13 13 12 13 13 13 12 13 14 18 20 22 23 24 24 23 20 20 19 19 19 20 19 19 20 19
15 12 12 11 11 11 11 11 10 10 10 10 10 11 10 10 10 10 10 10 11 11 11 11 12 15 19 21 22 22 23 22 19 19 18 18 18 18 18 17 17 17
13 11 11 11 9 9 9 9 9 8 9 9 9 9 8 8 8 7 8 8 8 9 9 9 10 16 19 20 21 21 22 22 18 17 17 16 16 16 16 16 16 17
11 9 8 8 9 8 7 8 7 7 7 7 7 7 7 7 7 7 6 6 7 7 7 7 9 15 17 19 20 20 22 17 16 15 14 14 14 15 16 16 17 17
11 9 7 7 6 6 5 5 6 6 5 5 4 5 5 5 5 5 5 5 5 5 5 6 6 11 16 18 19 20 18 14 14 14 13 13 13 14 15 16 17 17
9 6 6 5 3 3 4 6 4 4 3 3 3 3 3 3 4 4 4 4 4 4 5 4 5 10 16 17 18 19 18 14 14 13 12 12 13 15 15 16 17 19
6 5 4 3 2 3 2 2 2 2 3 2 2 2 2 3 3 3 3 3 3 4 8 8 5 8 13 15 17 18 16 14 14 13 12 12 12 13 14 15 15 17
4 3 2 1 2 2 1 1 2 1 1 2 2 1 1 2 2 2 1 2 3 3 3 4 4 4 7 15 16 17 19 16 15 13 11 11 12 12 12 13 14 15

ECMWFNIL_sfc_temp_030.txt.gz
Temp
31 31 30 30 30 30 29 30 30 29 28 27 27 28 27 28 28 28 28 28 28 28 28 28 28 28 29 28 28 28 29 28 29 29 29 29 29 28 30 29 29 29
29 30 31 30 29 30 29 28 28 29 28 27 27 26 28 27 27 27 27 27 27 27 27 27 28 28 28 28 27 27 27 27 27 29 27 27 28 27 28 28 28 28
28 28 28 28 28 27 28 28 28 27 27 27 26 27 28 27 26 25 26 26 26 26 27 27 27 27 27 27 26 26 26 27 27 27 27 26 27 27 27 27 28 28
28 28 28 27 27 27 27 27 26 26 26 27 25 26 27 28 26 25 25 26 25 25 25 25 26 26 25 26 25 26 25 25 26 25 26 26 27 27 27 27 27 27
28 28 28 28 27 26 26 27 25 25 25 26 26 25 25 25 25 26 26 25 25 24 25 24 24 24 24 24 24 24 25 25 25 25 25 25 26 26 27 27 26 26
30 29 28 28 27 27 28 27 26 26 25 26 26 26 25 25 25 25 25 24 25 24 24 24 24 24 24 24 24 24 24 24 25 24 24 24 25 25 27 26 25 26
27 26 26 24 25 25 25 25 25 25 24 24 24 24 23 24 24 24 24 24 24 24 24 24 24 24 24 23 23 24 24 24 24 24 24 24 24 24 25 25 25 25
26 25 24 24 24 24 24 25 24 24 25 24 24 24 24 23 23 23 23 22 23 23 23 23 23 23 23 23 23 24 24 25 25 24 23 23 24 24 24 26 25 25
24 25 24 24 25 24 24 24 24 24 24 24 24 24 24 24 23 22 23 22 22 23 22 22 23 22 23 23 23 22 23 23 24 23 23 23 23 23 24 25 25 24
25 25 24 24 24 24 24 24 24 24 24 23 23 23 23 23 22 22 22 22 22 21 21 21 22 22 22 22 22 22 22 23 23 23 23 23 23 23 24 24 24 24
25 24 24 24 24 24 24 24 24 23 23 23 23 23 23 22 22 22 22 21 23 21 21 21 21 21 22 22 22 22 22 22 23 23 23 23 23 24 25 24 24 24
25 23 24 24 24 23 24 24 23 23 22 23 22 21 22 22 21 21 21 20 20 20 20 21 21 21 21 21 21 22 22 22 23 23 23 23 23 24 24 24 24 24
25 24 24 23 23 23 23 23 22 21 21 21 21 20 20 20 20 20 20 20 20 20 20 21 21 21 21 21 21 21 22 22 22 22 22 23 23 23 23 23 24 24
24 24 23 23 23 22 22 21 21 20 20 20 19 20 20 20 19 19 19 19 20 19 20 20 20 20 20 20 21 21 21 21 21 21 21 21 22 22 22 22 23 23
24 23 23 22 22 21 20 20 20 19 18 18 17 17 19 18 18 18 17 17 18 18 18 19 18 19 20 20 20 21 21 21 21 20 20 20 20 20 21 21 21 22
23 22 22 21 20 19 18 17 16 16 16 15 16 15 15 15 15 15 15 15 15 15 15 16 16 17 19 23 24 22 21 21 21 20 20 20 19 19 19 20 21 21
21 20 18 18 18 16 13 14 16 13 12 13 12 12 12 13 13 14 13 13 13 13 13 14 15 16 20 22 24 25 23 21 21 20 20 20 19 18 18 19 20 21
19 18 15 15 14 13 12 11 11 10 10 10 9 10 10 10 11 12 11 12 12 12 11 12 12 16 19 21 23 24 24 22 21 20 19 19 19 19 19 19 19 19
16 13 12 11 11 10 10 9 8 9 7 7 7 7 8 9 11 9 10 10 10 9 9 10 10 15 18 21 22 23 23 23 20 20 18 18 18 18 18 17 17 16
13 10 11 10 10 8 9 7 7 6 6 6 6 8 8 7 6 7 8 8 8 8 8 9 9 13 18 20 21 22 23 23 20 19 18 17 17 17 16 16 16 15
13 10 9 9 8 7 6 6 5 5 7 6 5 7 6 5 5 5 5 5 5 6 6 6 8 14 18 19 20 21 22 22 18 17 16 15 16 16 16 16 16 15
9 7 7 7 8 6 5 6 6 4 3 4 3 4 3 3 4 2 4 3 4 4 4 4 7 14 16 18 20 21 22 18 16 14 14 14 14 16 16 16 16 16
11 7 6 6 5 5 3 4 5 3 3 2 1 3 4 2 2 2 2 3 3 3 3 4 4 9 15 18 19 20 19 15 15 14 14 13 14 15 16 16 16 16
9 5 5 3 2 2 2 5 3 2 1 1 2 2 2 1 1 1 1 1 2 1 2 3 4 9 15 16 18 18 18 15 14 13 12 13 13 15 16 16 17 18
4 4 4 2 1 2 0 1 1 -0 0 -0 -1 -2 0 0 1 0 0 -0 -0 2 6 6 4 6 12 14 16 18 17 15 15 13 12 13 13 14 15 15 16 17
3 2 2 -0 2 -0 -0 -0 -1 -2 -2 -1 -2 -2 -1 -1 -1 -1 -1 -1 0 1 1 2 2 3 6 14 16 18 19 16 15 13 12 12 13 13 13 14 15 15

ECMWFNIL_sfc_temp_033.txt.gz
Temp
35 35 34 34 34 34 35 34 34 33 33 33 32 32 32 32 32 32 32 32 32 32 32 32 32 32 32 32 32 32 33 32 33 33 32 33 33 32 32 33 33 34
34 34 34 34 34 34 34 34 33 33 31 31 32 32 32 32 31 31 31 31 32 31 31 32 32 32 31 32 31 32 32 32 31 32 31 31 32 32 32 32 32 33
34 34 34 34 33 32 32 32 32 32 32 32 32 32 32 32 31 31 31 31 31 31 31 31 31 31 31 30 31 31 31 30 31 31 31 31 31 31 32 32 32 32
34 34 34 33 33 32 32 32 32 32 32 32 31 31 31 31 31 30 30 30 30 30 30 30 30 30 30 30 30 30 30 30 30 30 30 30 30 31 31 32 31 31
32 32 32 32 32 32 32 31 31 31 31 30 30 30 30 30 30 30 30 29 29 29 30 30 30 30 29 30 30 30 30 30 30 30 29 29 30 30 30 31 30 30
32 32 32 32 32 31 31 30 30 30 30 30 30 30 30 30 30 29 29 29 29 29 29 29 29 29 29 29 29 29 29 29 30 29 28 29 29 30 29 30 29 29
31 31 31 30 30 31 31 31 30 30 30 30 30 30 30 30 29 29 29 29 29 29 29 28 28 28 29 29 29 28 29 29 29 28 27 28 29 28 29 29 29 29
31 31 31 31 31 30 30 30 30 30 30 30 30 29 29 29 29 29 29 29 28 28 28 28 28 28 28 28 27 27 27 28 27 27 27 27 28 27 28 29 29 28
31 31 30 30 30 31 30 30 30 29 30 30 30 29 29 29 29 28 28 28 28 28 28 27 27 27 28 27 27 27 26 27 27 27 26 26 26 27 27 28 27 28
31 30 30 30 31 30 30 29 29 29 28 29 29 29 28 29 28 28 28 27 27 27 27 26 26 26 26 27 26 26 26 26 26 26 26 26 26 26 27 27 27 26
30 30 30 30 30 29 29 28 28 29 28 28 28 28 28 27 27 27 26 26 25 25 25 25 25 25 25 25 26 26 26 25 25 26 26 26 26 26 26 26 26 26
30 30 30 29 29 28 28 28 28 28 27 27 27 26 26 26 25 25 25 24 24 24 24 24 24 24 24 24 24 25 25 25 25 25 25 25 26 26 26 26 25 25
30 30 29 29 28 28 28 27 27 26 25 25 25 24 24 24 24 23 24 23 23 23 23 23 22 23 23 23 23 23 24 24 24 24 24 25 25 25 25 25 25 24
30 29 29 28 28 27 26 26 25 24 24 24 23 23 22 22 21 21 22 22 22 21 22 21 21 21 22 22 22 23 23 24 24 23 23 24 24 24 24 24 24 24
29 28 28 27 26 25 24 24 23 23 22 21 21 21 21 21 20 20 19 19 19 19 19 20 19 20 20 21 22 24 24 24 23 23 23 22 23 23 23 23 23 24
28 27 26 25 24 23 22 22 21 20 20 19 19 19 19 19 18 18 18 17 17 17 17 17 18 18 19 21 24 24 24 23 23 22 22 22 21 21 22 22 22 23
26 26 24 23 22 21 18 18 19 17 16 16 16 16 16 16 16 16 16 16 15 15 15 16 16 16 19 22 23 24 24 23 22 22 22 21 21 20 20 21 21 22
26 24 22 21 18 17 16 15 14 13 13 14 13 13 14 14 14 14 14 15 14 14 14 14 14 16 19 21 23 24 24 23 22 21 21 21 21 20 20 20 20 20
24 21 19 17 16 15 14 12 12 12 11 11 10 12 12 12 14 12 12 13 12 12 12 13 13 15 18 20 22 23 23 23 22 21 20 20 20 19 19 19 18 18
21 19 17 15 14 13 12 12 10 10 11 11 10 11 11 10 10 10 11 10 10 10 10 11 11 13 17 20 21 22 22 23 21 20 20 19 18 18 17 17 18 17
19 17 16 13 11 11 10 10 10 9 10 10 9 10 9 9 8 7 8 8 8 8 8 8 9 14 17 19 20 21 22 22 20 19 17 17 17 18 17 17 18 18
17 15 13 11 11 9 8 11 9 8 8 9 7 8 8 8 8 7 6 6 6 6 6 6 8 13 16 18 19 20 22 19 18 17 16 16 16 17 17 18 18 18
17 15 12 10 9 8 7 7 9 7 7 7 5 7 7 6 5 5 5 5 4 4 4 5 6 9 14 17 18 20 19 16 16 16 16 15 16 17 17 18 18 18
15 12 11 9 7 6 6 9 7 7 5 5 5 5 5 4 4 3 4 4 4 3 4 3 5 9 14 16 17 18 18 16 16 15 14 15 15 17 18 18 18 19
10 10 9 7 6 7 4 5 5 3 4 3 3 3 2 3 2 2 2 2 2 2 6 6 5 6 11 14 16 18 18 16 16 15 14 14 15 15 17 17 18 19
8 7 6 5 5 3 2 3 3 1 2 3 2 2 1 1 1 1 -0 1 2 2 1 3 3 3 6 13 15 17 19 17 16 15 13 14 15 15 14 16 18 18

ECMWFNIL_sfc_temp_036.txt.gz
Temp
45 45 44 44 44 43 43 42 42 41 41 42 41 41 41 40 40 40 40 40 40 40 39 39 40 40 40 40 40 41 41 39 39 39 38 39 39 37 37 37 38 39
43 43 43 43 42 41 41 41 41 41 40 41 41 41 40 40 39 40 39 39 39 39 39 39 39 38 38 39 39 40 40 39 37 37 37 37 38 38 38 37 38 38
43 43 43 42 41 40 40 41 41 41 41 40 40 41 39 39 38 39 39 39 39 38 38 38 38 37 37 37 38 39 38 37 37 37 37 37 37 36 37 37 37 36
43 43 42 42 41 41 42 41 41 41 41 40 40 39 38 37 38 38 37 37 38 38 38 37 37 38 37 37 37 39 38 38 37 37 37 38 37 37 37 37 36 36
42 42 42 42 42 42 42 41 41 41 40 39 38 39 39 38 38 39 39 39 39 39 39 38 38 37 37 38 38 39 39 39 38 37 37 37 38 36 36 37 36 36
42 42 42 41 41 41 42 41 40 40 39 38 38 39 39 39 39 39 39 39 39 39 39 39 38 38 38 37 39 39 38 38 37 36 36 36 37 37 35 35 35 35
41 41 41 41 41 41 41 39 39 39 40 40 40 39 40 40 39 39 39 39 39 38 38 38 37 37 37 37 38 37 37 36 35 35 34 35 36 35 36 36 35 35
42 42 41 41 40 40 39 38 38 39 39 40 40 39 40 39 39 38 38 38 38 37 37 37 36 36 36 36 36 36 36 35 34 34 34 34 34 34 35 35 35 34
41 40 39 38 39 40 40 40 40 40 40 40 40 39 39 39 38 38 37 37 37 36 36 36 35 35 36 35 35 34 34 35 34 34 33 33 33 33 34 34 34 34
38 38 38 39 40 41 40 40 40 39 40 39 39 39 38 37 37 36 36 36 35 35 35 35 34 34 34 34 33 33 33 33 33 33 33 32 32 32 33 33 32 32
39 40 40 41 41 41 40 39 39 39 39 38 38 37 37 37 36 35 35 35 34 34 33 33 33 33 32 32 33 33 32 32 32 32 32 32 32 32 31 31 31 31
40 41 41 41 41 40 39 39 38 38 37 37 36 35 35 35 34 34 33 33 33 32 32 32 32 32 31 31 31 32 31 31 31 31 31 31 31 31 31 31 31 30
41 41 41 41 41 40 39 38 37 36 36 35 34 33 33 33 33 32 32 32 31 31 31 31 30 30 31 31 31 30 30 30 30 30 30 31 31 31 31 31 30 30
41 41 41 41 40 39 38 37 36 35 34 33 32 32 31 31 31 30 31 31 30 30 30 30 29 30 30 30 30 30 30 29 30 29 29 30 30 30 30 30 30 30
40 39 39 39 38 37 35 35 34 33 32 31 31 31 30 30 29 29 28 29 29 28 28 28 28 28 29 29 28 29 29 29 29 28 28 27 28 29 29 29 29 30
39 37 37 37 36 35 34 33 32 31 30 29 28 29 28 28 27 27 27 27 27 27 26 26 26 27 25 23 24 26 27 27 27 27 26 26 26 26 27 28 28 29
38 36 37 36 36 34 31 30 30 28 27 27 26 26 25 25 24 25 26 26 25 25 25 25 25 25 22 23 24 25 26 26 25 24 25 25 25 25 25 27 28 28
37 36 35 35 33 30 28 27 26 24 24 24 23 23 23 23 23 24 24 25 24 24 23 23 24 23 22 22 23 24 25 25 24 23 23 25 25 25 25 26 26 26
37 35 33 31 30 29 26 24 22 22 22 21 21 22 21 21 22 23 22 23 22 22 21 22 22 21 21 21 22 23 24 24 24 23 23 23 24 24 25 25 25 24
36 33 32 30 28 26 25 23 21 21 22 22 21 20 19 20 20 19 19 20 20 20 20 20 21 20 20 21 22 23 23 24 23 23 22 23 23 24 24 24 24 23
34 32 31 29 26 24 23 22 21 21 19 20 19 19 19 18 18 17 17 16 16 16 17 17 18 18 19 20 21 22 23 23 22 22 21 21 22 22 22 22 23 23
32 30 29 27 24 22 21 21 20 19 18 19 18 19 18 18 17 16 15 13 14 13 14 15 18 18 18 19 20 21 22 21 21 20 19 19 20 21 21 22 22 22
32 30 28 25 23 21 19 20 19 18 18 18 16 17 17 16 15 14 14 13 12 11 11 13 14 16 16 18 19 20 20 19 18 18 18 18 19 20 21 21 22 22
31 28 25 23 21 20 19 20 20 19 17 16 16 15 16 15 14 13 12 12 10 10 11 10 11 13 16 17 18 19 19 18 18 17 17 17 17 20 21 21 21 21
29 27 25 22 20 20 18 18 17 16 16 14 14 14 13 13 12 12 11 11 10 9 10 10 11 12 14 15 17 18 19 18 18 17 16 16 17 18 20 20 21 21
25 23 22 20 19 18 17 17 17 14 12 13 12 13 13 13 11 11 8 9 9 8 7 9 9 9 10 14 16 18 19 19 18 16 16 16 17 17 17 18 20 21

ECMWFNIL_sfc_temp_042.txt.gz
Temp
43 43 43 42 41 41 41 40 39 39 38 37 36 35 34 35 35 34 34 34 33 33 33 32 32 31 34 31 31 32 31 29 29 29 28 29 28 29 30 29 28 28
42 42 41 40 39 40 39 39 39 38 38 36 35 35 35 34 34 34 33 32 32 32 31 31 30 29 29 29 30 30 29 28 30 33 30 30 30 28 30 30 29 30
41 41 40 40 39 39 39 38 38 37 37 36 35 35 34 33 33 32 32 31 31 31 30 31 30 31 31 31 31 29 29 28 28 28 29 29 30 29 28 28 28 29
40 40 39 38 39 38 38 38 36 36 35 34 34 34 34 34 32 31 31 31 30 30 30 29 29 29 30 31 31 29 29 28 29 28 27 28 30 28 29 28 28 27
37 38 37 37 36 37 36 35 35 34 33 33 33 32 33 32 31 30 30 30 29 29 29 29 29 30 30 31 29 29 29 29 28 28 27 27 28 29 30 29 27 27
35 35 35 35 35 35 35 34 33 33 32 32 32 32 31 30 30 29 29 29 29 29 28 28 28 29 30 30 28 28 28 29 28 27 27 27 27 27 30 29 27 26
35 35 34 34 34 34 34 33 33 33 32 32 32 31 30 30 29 29 29 29 28 29 28 28 28 28 29 27 27 27 27 27 28 27 27 26 26 26 26 27 27 26
34 34 34 34 34 33 33 33 32 33 32 32 31 31 30 30 30 29 29 29 28 28 28 27 27 28 28 27 27 27 27 29 29 27 26 26 26 26 25 27 26 25
34 34 34 33 33 33 32 32 32 31 32 32 31 31 30 31 30 30 29 29 28 28 28 27 27 27 27 27 27 27 27 27 28 27 26 26 25 25 25 25 25 24
34 33 33 33 33 32 33 32 32 32 32 31 31 30 31 30 29 29 29 29 29 28 27 26 27 27 27 27 28 28 27 27 27 26 26 26 26 25 25 25 24 24
33 34 33 33 32 32 32 32 32 33 32 32 32 31 30 30 29 28 28 28 29 28 27 27 27 27 27 27 28 28 28 27 26 26 26 25 25 25 28 25 24 24
33 33 33 33 33 33 33 34 35 34 33 33 33 32 30 29 29 28 29 28 27 27 27 26 26 26 27 27 27 27 27 26 26 25 25 25 24 25 24 24 24 23
33 34 34 33 33 34 35 35 35 34 34 33 32 31 30 29 28 28 27 27 27 27 27 27 27 27 26 26 27 26 25 25 25 24 25 24 25 24 24 24 24 24
33 34 34 34 34 35 36 36 35 34 34 33 31 30 29 30 30 28 27 26 27 26 26 25 25 26 26 25 25 25 25 24 24 23 23 23 24 23 24 23 23 24
34 33 34 35 35 35 35 35 34 34 33 33 32 31 31 31 31 29 27 26 26 26 25 26 26 26 26 25 24 24 24 24 23 23 23 22 22 22 22 23 23 23
34 35 36 36 35 35 35 34 33 32 31 30 31 31 31 30 30 28 26 26 25 25 24 26 26 26 28 31 29 23 21 22 22 21 21 21 21 21 21 22 23 23
34 34 35 35 35 35 33 32 31 30 29 29 29 29 29 28 28 27 25 25 25 25 24 25 26 26 31 31 30 30 24 21 20 19 21 20 19 20 20 21 22 23
35 35 35 35 34 32 31 30 30 28 28 28 27 27 26 25 24 23 24 24 24 24 23 23 24 29 31 31 30 30 29 23 19 19 19 20 20 20 20 20 21 22
34 34 34 33 32 32 30 29 28 28 27 26 26 25 23 22 23 22 22 22 22 22 21 22 21 29 31 31 30 30 29 27 20 23 22 21 20 19 19 20 20 20
34 32 33 32 32 31 30 28 27 26 25 24 23 21 21 20 18 20 21 21 21 21 20 20 20 27 30 30 30 29 28 27 21 23 22 22 21 21 21 20 20 20
33 32 31 31 30 29 27 26 25 24 22 21 21 21 20 20 20 19 19 18 18 18 19 19 20 27 29 29 29 29 28 27 23 23 22 22 22 22 22 21 20 20
32 31 30 29 28 27 26 25 24 23 22 21 20 19 16 16 15 16 17 17 17 15 16 16 17 27 27 28 28 28 28 23 22 21 20 21 21 22 22 20 18 18
32 31 30 29 28 26 25 25 24 22 21 20 19 20 19 18 17 17 16 16 15 14 14 14 12 21 26 27 27 28 25 19 20 19 19 18 18 17 18 18 18 18
32 31 30 29 28 27 26 26 25 23 22 20 21 19 19 18 16 14 14 14 14 13 13 12 11 18 24 25 26 27 24 19 18 16 16 16 17 19 18 17 18 22
31 31 30 29 28 28 27 25 24 23 22 20 19 19 18 16 15 14 12 11 11 12 17 14 10 15 22 24 25 25 24 20 18 16 15 15 15 15 17 18 19 21
31 31 30 29 29 28 26 26 24 21 20 20 18 18 16 14 13 13 12 11 10 10 11 11 10 8 13 21 23 24 25 19 16 15 14 15 16 16 16 17 18 16

ECMWFNIL_sfc_temp_045.txt.gz
Temp
41 40 40 39 39 38 38 38 37 37 35 35 35 34 34 33 32 33 32 32 32 32 31 31 31 32 32 30 30 30 30 29 29 29 28 28 28 27 30 27 26 27
40 40 39 38 37 37 37 38 37 36 35 34 34 33 33 32 32 32 31 31 31 30 30 31 31 31 31 31 30 31 30 30 29 30 29 28 27 26 27 27 28 26
39 38 38 38 39 37 37 36 36 35 34 33 33 33 32 32 31 30 31 31 31 30 30 30 31 30 31 30 30 30 29 28 28 26 26 27 26 27 26 25 25 27
39 39 38 38 38 37 36 36 34 33 33 32 32 32 33 32 31 30 30 31 31 30 30 30 31 30 29 28 29 29 28 28 26 26 27 26 26 26 27 25 26 25
37 36 36 36 36 36 36 35 33 33 32 32 31 31 31 31 30 30 30 30 30 30 30 30 28 28 27 28 28 28 27 28 26 26 27 26 26 27 28 26 26 26
34 35 35 35 35 35 35 34 33 32 31 31 31 31 30 31 31 30 30 30 30 30 29 27 28 27 28 28 29 28 28 28 26 25 25 26 27 25 28 26 24 26
34 34 34 34 33 34 34 32 32 32 32 31 30 30 30 30 31 31 30 30 29 29 28 28 28 28 28 28 28 27 27 26 25 25 25 24 24 25 24 24 23 25
33 33 33 33 33 32 32 32 31 31 31 30 31 31 31 31 31 30 29 29 29 28 28 28 27 28 27 28 28 27 26 28 27 25 24 24 23 25 24 25 24 24
33 33 33 33 33 32 32 31 31 31 31 31 31 30 30 31 30 30 29 30 30 29 28 28 27 27 27 27 27 27 26 25 26 24 24 23 24 24 24 23 23 24
33 33 33 33 32 32 31 31 31 31 31 31 31 30 30 29 30 31 31 31 30 28 28 28 27 27 27 27 27 26 26 26 24 23 23 24 24 23 23 24 24 23
32 32 33 32 32 32 31 31 31 31 30 31 30 30 30 31 31 31 31 31 30 28 28 27 27 27 27 26 26 26 25 25 24 23 23 23 24 23 26 23 23 23
32 32 33 32 32 32 32 31 31 31 31 30 31 31 32 33 32 31 31 31 30 28 28 27 26 27 27 26 26 25 25 24 23 23 23 23 23 23 23 23 23 22
33 33 33 32 32 32 32 31 31 31 31 32 32 32 33 32 32 32 31 31 30 29 28 27 27 27 26 26 25 25 25 24 23 22 23 23 23 23 23 23 23 23
33 33 33 33 32 32 31 31 31 31 31 32 32 33 32 32 32 31 30 30 29 29 29 28 27 26 25 25 25 24 23 23 23 22 22 22 23 22 22 22 22 22
33 32 32 31 31 31 31 31 31 31 32 33 33 33 32 32 32 31 30 30 29 29 29 29 28 27 27 26 24 24 24 24 22 21 20 20 21 21 21 21 21 21
32 32 32 31 31 31 31 31 31 32 32 32 32 32 32 31 30 30 30 30 29 29 28 27 26 26 28 32 29 24 23 22 21 19 19 19 19 19 19 20 20 20
32 32 31 31 31 31 29 30 31 31 31 30 30 30 30 29 30 29 29 29 29 28 26 25 25 25 31 33 33 32 24 20 19 18 18 18 18 18 17 18 18 19
32 31 31 31 30 29 29 29 30 30 30 29 28 28 29 28 28 28 29 28 27 26 24 23 23 28 33 34 34 33 29 21 18 17 16 19 18 18 18 18 18 18
31 31 30 29 29 29 29 29 29 29 28 27 27 28 27 26 28 27 27 25 24 22 21 21 21 30 33 34 33 33 32 25 18 19 18 17 18 18 17 18 17 18
31 30 29 29 29 29 28 28 27 28 29 28 27 26 26 26 26 25 24 22 21 21 21 21 20 28 33 33 33 33 32 29 18 19 18 19 20 19 19 18 18 17
30 30 29 29 28 28 27 27 27 27 27 27 27 26 25 25 24 22 20 19 18 18 19 19 20 29 33 33 33 33 32 30 18 20 20 21 21 21 20 19 18 18
30 29 29 29 28 27 26 27 26 26 26 26 25 25 23 21 17 16 18 18 18 16 16 17 18 29 31 32 32 32 32 22 19 19 19 20 19 19 19 19 18 17
31 30 29 28 27 26 26 26 26 25 26 24 23 23 21 19 19 18 18 18 16 15 16 17 15 25 31 31 32 32 29 18 18 18 18 18 17 17 17 17 17 16
31 30 29 27 26 26 26 27 26 26 24 21 22 20 20 19 18 17 16 16 16 15 16 16 14 21 30 30 31 31 27 17 18 18 17 16 15 16 16 16 17 21
30 29 29 28 27 27 27 26 25 24 23 20 22 21 21 19 16 17 14 13 14 15 19 17 13 18 27 29 30 30 27 17 17 15 15 14 13 13 15 15 15 18
29 29 29 28 28 27 26 26 25 22 21 21 20 20 19 16 16 16 15 14 12 12 14 16 13 11 18 28 29 29 30 19 16 15 14 14 13 13 11 12 14 14

ECMWFNIL_sfc_temp_048.txt.gz
Temp
40 39 39 38 38 38 38 37 36 36 35 34 35 33 33 32 31 31 31 31 31 31 31 31 31 31 31 30 30 30 30 29 28 28 28 28 27 27 28 26 25 26
39 38 38 37 36 36 35 37 36 36 34 33 33 32 31 31 30 31 31 31 31 31 30 31 31 30 30 30 30 30 30 30 29 30 29 28 27 26 26 25 25 24
38 37 37 37 37 36 35 34 34 34 34 32 32 32 31 31 31 30 30 31 31 30 30 30 30 29 30 29 30 30 30 30 30 28 29 28 26 28 25 25 25 25
37 38 38 37 37 36 35 34 33 32 32 32 32 32 32 31 31 30 30 30 30 30 29 29 29 29 29 29 29 29 28 29 28 28 28 27 27 26 25 25 25 24
37 37 36 36 35 35 34 34 33 32 32 32 31 31 31 30 30 29 29 29 30 29 29 29 29 29 29 28 28 28 28 27 26 28 28 27 25 26 26 26 24 24
36 36 35 35 34 34 34 33 33 32 32 31 31 31 30 30 30 30 30 30 30 30 30 29 30 29 28 27 27 28 28 28 27 27 27 27 25 25 27 25 24 23
35 35 34 34 33 33 34 33 32 32 32 32 30 30 30 30 30 30 30 30 30 30 30 30 29 28 28 28 27 26 26 27 26 27 27 26 25 24 24 24 24 23
34 34 34 33 33 33 33 32 31 31 31 30 31 30 30 30 30 30 30 30 30 30 30 29 29 30 29 29 28 27 26 28 27 26 25 25 25 24 23 26 23 22
34 34 33 33 33 32 32 31 31 30 30 31 31 30 29 30 31 30 30 30 30 29 30 30 31 31 30 29 28 28 27 27 26 25 25 25 25 24 23 22 22 22
34 33 33 33 33 32 32 31 31 31 30 31 31 30 30 30 30 30 30 30 30 30 31 31 31 30 29 29 28 27 27 26 25 25 25 24 25 24 23 22 22 21
33 33 33 33 33 32 32 31 31 31 30 31 30 30 30 30 29 29 30 30 31 31 31 31 31 31 31 30 29 27 26 26 25 25 24 24 24 23 25 22 21 21
33 33 33 33 33 32 32 31 31 31 31 31 31 31 30 30 30 30 31 32 32 32 31 31 30 31 31 30 29 26 25 26 26 25 24 23 23 23 23 22 22 21
33 34 34 34 33 33 32 32 31 31 31 31 31 31 31 30 30 31 32 33 33 32 32 31 31 30 30 28 27 25 26 26 25 23 22 22 21 22 22 22 21 21
34 34 34 34 34 33 32 32 31 31 31 31 30 31 31 31 31 32 32 32 32 31 32 31 30 30 29 28 27 27 27 26 24 23 22 21 21 20 21 20 21 21
35 34 34 33 32 32 31 31 31 31 30 30 30 31 32 32 33 33 32 31 31 31 30 30 30 30 29 28 27 28 27 26 24 22 22 21 20 19 19 19 19 19
34 34 33 32 31 31 32 31 31 30 30 29 29 30 31 32 32 32 32 31 30 30 30 30 30 30 30 32 31 28 26 24 22 21 21 21 21 20 19 18 18 18
34 34 33 32 32 31 30 30 30 29 28 28 29 29 30 30 31 31 30 31 30 30 29 29 29 29 32 34 34 33 26 22 21 21 20 20 20 19 19 19 18 18
34 33 32 31 30 30 29 29 28 27 27 27 28 28 29 29 29 30 30 30 30 29 29 29 29 31 33 35 35 34 29 23 20 20 19 20 19 19 19 18 18 18
34 33 32 30 30 29 28 27 26 26 26 27 27 29 28 27 29 29 29 29 29 28 28 28 28 31 34 35 36 35 33 26 19 19 19 18 19 19 18 18 17 18
33 31 30 30 29 28 27 26 26 26 27 27 27 27 28 28 28 28 28 28 28 28 27 27 26 29 34 35 36 36 35 29 18 19 18 18 19 18 18 18 18 17
32 31 30 29 27 26 26 26 26 27 26 26 27 28 28 27 28 27 26 26 25 26 25 25 24 29 33 35 36 36 35 31 19 19 18 18 19 19 19 18 18 18
31 30 29 28 26 26 26 27 27 27 27 27 26 27 27 27 26 25 25 25 25 23 23 22 22 29 32 35 35 36 36 27 19 19 18 18 18 19 19 19 18 18
31 30 29 27 26 26 26 27 27 26 26 25 24 25 25 24 24 24 24 24 22 20 19 21 19 26 32 34 35 36 34 22 19 18 18 17 18 18 18 18 18 18
31 29 28 27 26 26 27 27 27 26 26 25 25 24 24 23 23 22 21 21 20 19 19 19 19 23 30 33 35 35 32 22 19 18 17 17 16 17 17 17 18 21
30 29 28 27 27 27 28 27 27 26 26 24 24 24 24 22 20 20 18 16 16 17 20 20 18 21 28 32 34 34 32 21 19 17 17 16 16 15 15 15 16 19
29 29 29 28 28 28 27 27 27 24 24 23 22 23 22 20 18 18 18 17 15 14 15 18 18 16 20 31 33 34 34 23 18 17 17 17 16 15 12 13 15 14

ECMWFNIL_sfc_temp_051.txt.gz
Temp
39 39 39 39 38 38 37 36 36 36 37 36 36 35 35 33 32 32 32 32 32 31 31 31 31 31 31 31 31 31 30 29 28 28 28 28 27 27 28 26 26 26
38 39 38 38 37 37 37 37 37 37 36 35 35 34 33 32 31 32 32 31 31 31 30 30 30 31 30 30 30 30 29 29 28 29 28 28 27 27 27 26 26 25
38 37 37 37 37 37 36 36 36 36 35 34 33 33 32 32 31 31 31 32 31 30 30 30 30 30 29 29 30 30 30 29 28 27 28 27 27 28 26 26 26 26
37 38 37 37 37 37 36 36 34 34 33 32 33 32 32 32 31 31 31 31 31 30 30 29 29 29 29 29 29 30 29 29 28 27 28 27 26 27 26 26 26 26
37 36 36 36 36 36 36 35 34 33 33 33 31 31 31 31 31 31 31 31 31 30 29 29 28 29 29 29 29 29 29 28 27 27 28 27 25 26 26 27 26 25
36 36 36 35 35 35 35 35 34 34 33 32 32 31 32 32 32 31 30 30 30 30 29 29 29 28 29 29 29 29 28 28 27 27 27 27 25 26 27 26 25 25
35 35 34 34 34 34 35 34 34 33 33 33 32 31 31 31 31 30 30 30 30 30 30 29 29 28 28 29 29 29 29 28 26 26 27 25 25 25 25 24 25 24
36 35 34 34 34 34 34 33 33 33 32 31 31 30 30 30 30 30 30 30 30 30 30 30 29 29 28 29 30 30 29 28 27 26 26 25 24 24 23 25 24 24
35 34 34 33 34 34 34 33 32 31 31 31 31 30 30 30 30 30 30 30 31 30 30 29 29 29 29 30 31 30 29 28 27 27 26 25 24 24 24 23 23 23
35 34 34 34 34 34 33 32 32 31 31 32 32 30 30 30 30 31 31 31 31 29 29 30 30 31 31 31 31 30 30 29 27 28 27 25 25 24 23 23 23 22
34 34 34 34 34 34 33 32 32 32 32 32 31 30 30 30 30 31 31 31 31 30 31 31 32 32 31 31 31 31 30 29 28 27 26 25 24 24 25 23 22 23
34 34 34 34 35 34 33 32 32 32 32 32 31 31 30 30 31 31 32 31 32 32 33 33 32 32 31 31 31 30 30 30 28 27 26 24 23 23 23 23 23 22
35 34 35 35 35 36 34 32 31 31 31 31 31 32 31 31 31 32 32 32 32 33 33 33 32 32 31 31 31 30 29 28 28 27 27 25 24 23 23 23 22 22
35 35 34 35 35 35 34 32 31 31 31 32 32 32 32 32 32 32 32 32 33 33 33 33 32 32 32 31 31 30 29 28 28 27 26 26 25 24 23 22 22 22
35 34 34 34 34 34 34 33 32 32 32 32 31 32 33 33 33 33 32 32 32 32 32 32 32 32 32 31 30 29 29 29 28 27 27 26 25 25 23 21 20 21
35 35 35 35 34 34 34 33 32 31 31 31 32 33 33 32 32 33 33 32 32 31 32 32 31 32 32 33 33 30 29 29 28 27 27 26 24 23 21 20 21 20
35 35 35 34 34 33 32 32 32 32 31 31 31 32 31 31 32 32 32 32 32 31 31 31 31 31 33 35 35 34 31 29 27 25 24 25 24 22 21 21 20 20
35 35 34 33 32 31 31 31 31 30 29 29 29 30 30 31 31 32 32 32 32 31 31 31 31 32 35 35 36 36 33 28 27 25 23 24 22 21 21 20 20 20
34 34 33 31 32 32 31 31 30 30 29 28 29 30 30 30 31 31 31 31 31 30 30 30 30 33 35 36 36 36 36 31 24 24 23 22 22 21 20 20 19 19
33 32 31 31 32 31 31 30 29 29 30 30 29 29 29 30 30 30 30 30 30 30 30 30 30 33 35 36 36 36 37 33 24 23 21 21 21 21 21 20 19 19
32 32 32 32 31 30 29 29 29 29 29 29 29 30 29 29 29 28 28 28 28 29 29 29 29 33 35 36 36 37 37 35 23 21 19 19 20 20 20 20 19 20
32 31 31 31 30 29 29 29 28 28 28 29 29 29 29 29 29 28 28 28 28 27 27 27 28 33 34 35 36 37 38 32 22 20 19 19 19 20 20 19 19 19
33 32 31 30 29 28 28 28 28 28 29 29 28 29 29 28 28 28 28 27 26 25 25 27 26 30 34 34 35 37 36 28 21 20 19 18 19 19 19 19 19 19
33 31 30 29 29 28 28 29 29 29 29 28 28 28 27 27 28 27 26 26 25 24 24 24 24 27 33 34 35 36 35 27 23 21 20 19 19 19 19 19 19 22
32 31 31 29 29 29 29 29 29 29 29 27 27 27 27 26 25 25 23 22 23 24 25 24 23 25 31 33 34 35 35 28 23 21 21 20 19 19 19 18 18 20
31 30 30 29 29 29 28 29 29 27 27 26 26 26 26 25 23 23 23 22 21 20 20 22 22 21 23 31 33 34 36 30 22 21 21 21 20 19 18 16 16 16

ECMWFNIL_sfc_temp_054.txt.gz
Temp
42 43 43 43 42 41 40 38 37 36 36 35 35 35 35 35 33 33 33 33 33 33 33 33 33 33 33 33 33 33 32 31 29 29 29 29 28 29 29 28 28 29
42 42 42 41 40 39 39 38 37 37 36 35 35 35 34 33 32 32 32 32 32 32 32 32 33 33 33 32 32 32 30 30 29 29 30 29 28 29 28 27 27 27
42 41 40 40 39 37 37 36 36 37 36 35 34 34 32 32 32 31 32 32 32 32 32 32 32 32 32 32 32 32 31 29 29 28 30 29 28 28 26 26 26 26
41 41 40 40 40 38 37 36 35 34 34 33 33 33 33 33 32 31 31 32 32 31 31 31 31 31 31 30 31 30 30 29 29 29 28 27 28 28 27 27 26 26
40 40 40 40 39 38 36 35 35 33 33 34 32 32 32 31 31 31 31 31 31 31 31 31 30 30 30 30 31 30 29 28 28 29 29 28 27 28 27 27 26 26
38 38 38 39 38 36 35 35 35 34 33 32 33 32 32 31 31 31 31 31 31 31 31 30 30 29 30 30 30 30 29 28 28 29 29 28 26 27 28 28 27 27
36 36 37 37 35 35 35 35 34 34 33 33 32 31 31 32 32 32 31 31 31 30 30 30 30 29 30 30 30 29 28 28 28 29 29 27 27 27 27 27 27 26
36 36 36 34 34 34 34 34 34 33 33 32 32 32 32 32 32 31 31 30 31 31 31 31 31 30 29 30 30 29 28 29 29 29 29 28 28 28 26 26 26 25
36 35 35 33 33 33 34 34 33 32 31 32 32 31 31 32 31 31 30 31 31 31 31 30 30 29 29 30 30 30 29 29 30 30 29 28 28 27 26 25 24 24
36 36 34 33 33 34 34 33 32 32 31 32 31 30 31 30 30 31 31 32 32 31 30 29 29 29 29 31 32 32 32 31 30 30 29 30 30 28 26 26 25 23
36 35 35 33 33 33 33 32 31 31 31 32 31 29 29 29 29 31 32 32 32 31 30 30 30 31 31 32 33 33 33 32 31 30 30 29 29 28 28 27 25 25
36 35 35 34 33 33 33 33 32 31 30 30 31 30 30 29 30 31 32 33 33 32 32 32 32 32 32 32 32 32 32 31 31 30 30 29 28 28 28 27 26 24
37 36 36 34 34 34 34 33 32 31 30 30 31 31 31 30 31 31 32 33 33 33 33 33 33 33 33 32 32 32 32 31 30 30 29 28 28 28 27 26 25 24
38 37 36 35 35 35 35 34 33 32 32 32 31 31 32 32 32 32 32 33 33 33 33 33 33 33 32 32 32 31 31 30 30 29 29 28 27 27 27 26 26 25
38 37 37 35 35 35 34 33 33 33 32 31 31 32 33 33 33 33 32 32 33 33 33 33 33 33 33 32 31 31 31 30 30 29 29 28 28 27 26 26 25 24
37 37 36 35 34 33 33 33 32 32 32 32 32 33 33 33 33 33 33 33 32 32 32 32 33 33 33 35 34 31 31 30 29 28 29 29 28 27 26 25 25 24
37 36 36 34 34 34 32 32 32 32 32 31 32 32 31 31 32 32 32 32 32 32 32 32 33 33 34 36 36 35 31 30 29 28 28 28 28 27 26 25 24 24
36 36 35 34 34 32 31 31 31 31 30 30 30 30 31 31 31 32 32 32 32 32 32 32 32 34 36 37 37 37 34 30 29 27 27 28 28 27 27 26 25 24
35 35 34 33 33 33 31 30 30 30 30 29 29 30 30 29 31 31 31 31 31 31 31 31 31 35 36 37 37 37 37 33 28 28 27 26 27 26 26 25 24 24
34 34 33 33 33 32 31 30 29 29 30 30 30 29 29 30 30 30 30 30 31 31 30 31 31 34 36 37 37 37 37 35 28 27 26 27 27 26 26 25 24 24
33 34 33 32 31 31 30 29 29 29 29 29 29 30 29 29 30 29 29 29 29 29 30 30 30 34 36 37 37 37 38 37 29 27 26 26 26 26 26 26 25 24
33 32 32 31 31 30 29 29 29 29 29 29 29 29 29 29 29 29 29 28 29 28 28 29 30 35 35 36 37 37 38 35 29 26 25 24 24 26 26 25 24 23
33 32 31 31 30 29 29 29 29 29 29 29 28 29 29 29 28 29 29 28 28 28 28 29 29 32 35 36 37 37 36 33 29 26 25 23 24 25 26 24 22 22
33 32 31 30 29 29 29 29 28 28 27 27 28 28 28 28 28 28 28 28 28 27 28 28 28 30 35 36 36 37 36 32 29 26 25 24 24 25 24 22 22 24
30 31 30 29 29 28 28 28 27 27 28 28 29 29 28 28 27 27 27 27 27 27 29 28 27 28 33 35 36 36 35 32 29 26 25 25 24 24 23 22 22 23
31 30 30 30 29 28 28 29 29 28 28 28 27 28 28 27 27 27 26 26 25 25 25 26 26 24 26 33 35 35 36 33 29 26 26 26 26 25 24 22 21 19

ECMWFNIL_sfc_temp_060.txt.gz
Temp
57 57 55 54 55 54 50 50 51 51 51 52 51 51 49 51 48 44 42 43 44 46 46 48 51 52 52 53 53 55 54 53 53 53 52 53 52 50 49 49 51 53
56 54 54 54 54 53 53 53 52 53 53 51 51 51 51 49 46 44 42 42 43 45 46 48 50 51 50 51 51 52 52 52 50 49 50 50 50 49 48 48 49 50
55 53 52 52 51 51 53 54 54 53 52 51 51 49 49 48 45 45 44 42 43 44 44 47 48 49 49 50 50 51 51 50 48 48 49 49 49 49 48 48 49 49
54 52 53 52 53 52 52 52 50 50 49 48 49 50 49 46 45 44 43 42 43 42 44 46 47 48 48 48 49 51 49 49 49 48 48 49 49 48 47 48 48 48
53 52 51 52 53 53 51 48 47 48 47 48 49 48 47 45 44 44 43 42 43 43 44 45 47 47 47 48 49 49 48 48 47 48 49 48 48 48 47 48 48 47
53 53 50 49 50 50 47 45 45 45 46 46 47 46 44 43 44 44 44 43 43 43 44 45 46 47 47 47 48 49 49 48 47 48 48 47 46 47 45 47 47 46
52 50 49 50 49 48 45 45 44 44 45 47 46 43 42 41 43 44 45 44 43 43 44 45 46 46 47 48 49 48 48 47 46 48 47 47 46 44 45 46 46 44
50 49 48 48 47 46 45 44 44 44 45 46 44 42 41 42 44 45 45 45 44 43 45 46 46 46 47 48 48 47 46 44 45 47 47 45 44 43 43 44 45 44
48 47 47 47 46 46 45 45 44 45 45 45 44 42 42 42 43 43 44 44 43 43 45 46 46 46 47 47 47 47 45 44 45 46 45 44 43 43 43 44 43 42
48 47 47 46 45 46 45 46 45 46 45 44 42 39 39 41 42 43 43 42 42 43 45 46 45 45 46 47 47 47 46 45 46 46 45 44 43 42 42 43 42 39
47 46 46 45 45 46 46 47 46 45 43 41 39 39 39 40 42 42 41 42 42 44 44 44 44 45 45 46 46 47 47 46 45 44 43 43 43 43 40 41 40 39
47 46 45 45 46 46 46 46 45 44 42 40 40 38 39 40 42 41 41 41 44 45 45 44 44 45 45 45 45 46 45 43 42 42 44 45 44 42 40 39 38 39
48 46 45 45 45 46 46 45 44 43 42 41 41 40 40 40 41 41 41 42 43 44 44 44 43 43 43 44 44 43 42 42 43 44 43 42 41 40 38 38 39 38
48 48 46 45 45 45 45 45 44 42 40 41 40 40 40 40 40 40 41 42 43 44 44 44 43 44 44 43 42 42 42 42 42 42 41 39 39 38 39 39 38 37
48 48 47 46 45 44 43 43 43 42 40 39 39 39 39 40 40 39 39 40 42 42 42 42 42 41 41 41 41 41 42 41 41 41 40 40 39 37 36 35 34 34
47 46 46 45 44 43 42 43 42 41 40 39 39 39 39 39 39 39 39 40 40 41 40 38 39 39 38 39 40 41 41 40 40 40 41 40 37 34 33 33 33 33
47 46 45 44 43 42 41 40 40 38 39 37 38 38 37 37 38 38 39 40 39 38 38 38 39 39 37 39 39 39 39 40 39 38 37 36 35 34 32 31 32 33
46 45 44 43 42 41 39 37 36 36 36 35 36 36 36 37 37 38 39 39 38 38 39 40 40 38 38 39 39 39 39 40 39 35 35 37 36 36 34 32 31 31
45 44 43 42 39 39 37 36 35 35 34 34 34 35 35 35 36 37 38 39 39 38 39 39 39 37 38 38 39 39 38 38 37 38 36 35 36 34 33 33 32 31
44 41 40 41 40 38 37 35 35 34 34 35 35 34 34 34 35 35 36 38 39 38 38 38 38 37 38 38 38 38 38 39 38 36 35 35 35 34 33 33 32 32
42 41 40 39 38 37 35 34 34 34 34 34 34 34 33 33 34 34 35 35 36 36 37 35 36 37 38 38 38 38 38 38 36 35 34 34 34 33 33 33 32 32
40 38 38 38 37 36 35 34 34 34 33 34 34 34 34 34 35 35 34 34 35 34 34 34 36 37 38 38 38 39 38 36 35 33 32 31 31 33 33 32 32 32
41 39 38 36 36 35 34 34 33 33 34 34 33 33 33 33 33 33 34 34 33 34 33 34 33 36 38 38 38 39 37 35 33 33 32 31 31 32 32 32 32 31
40 38 35 35 35 34 34 34 35 34 33 34 33 32 32 32 32 33 33 33 33 33 33 31 31 34 37 38 38 38 36 34 34 33 32 31 31 32 32 32 31 31
38 37 36 35 34 34 34 34 34 33 33 33 33 32 31 32 32 31 31 32 32 32 32 31 31 33 37 37 38 38 36 34 34 34 33 33 32 32 32 32 33 32
37 35 35 34 34 34 34 34 34 33 32 32 32 33 31 31 32 31 29 30 30 30 31 30 30 32 35 37 37 37 36 34 34 33 32 32 32 33 33 33 33 33

ECMWFNIL_sfc_temp_063.txt.gz
Temp
59 59 58 57 56 56 56 56 56 55 54 54 53 54 53 53 51 49 50 49 49 49 49 50 49 50 50 49 49 48 47 49 51 52 53 53 53 52 52 50 50 52
59 58 57 57 56 56 56 55 55 55 55 55 55 55 54 53 52 50 48 47 48 48 49 49 47 48 49 48 48 46 44 44 45 49 50 51 51 50 50 49 49 50
59 58 57 55 55 56 56 55 55 55 54 55 56 55 53 51 49 47 47 48 48 47 47 47 46 46 46 46 47 47 48 48 48 48 50 50 50 50 49 49 48 48
58 58 58 56 57 56 57 55 55 54 54 54 53 52 50 48 48 46 46 45 46 45 44 44 45 44 43 43 42 43 48 48 49 49 49 49 49 49 48 48 48 47
58 57 57 57 56 57 56 55 54 54 54 53 52 50 47 44 44 44 45 43 44 44 42 41 40 43 44 44 43 43 45 47 47 48 49 48 48 48 48 47 46 45
58 59 58 56 56 55 54 53 53 53 52 51 51 49 47 45 44 43 43 43 43 43 43 41 40 39 41 44 45 47 47 48 47 47 47 46 46 47 46 46 46 45
56 56 54 54 54 54 53 52 52 51 50 49 48 47 47 45 43 43 42 42 43 43 43 42 42 41 43 44 43 45 48 48 46 47 47 47 46 45 46 46 46 44
55 55 54 52 52 51 51 51 51 50 48 47 46 46 45 44 44 44 44 44 44 43 43 43 42 42 43 45 45 45 47 46 46 47 47 46 45 45 46 45 45 43
55 53 51 51 50 51 50 50 49 48 47 46 45 44 44 44 44 44 44 44 44 43 43 43 43 42 43 42 45 46 46 45 46 47 46 45 44 45 45 45 44 42
53 53 51 50 50 51 51 50 49 46 45 45 44 42 41 43 44 44 43 43 42 43 43 43 43 43 43 44 44 45 46 45 46 47 46 46 45 44 44 44 43 41
52 51 50 49 49 49 49 49 48 46 45 44 44 42 42 42 42 43 42 42 41 42 43 43 44 44 44 45 45 46 46 46 46 47 46 46 45 44 42 43 42 40
51 51 49 48 48 48 47 48 48 47 45 44 44 42 43 42 41 42 42 41 41 42 43 44 44 44 44 45 45 45 46 46 47 46 46 45 44 44 43 43 42 40
50 50 49 49 48 47 47 47 47 47 46 44 43 42 42 42 41 41 41 41 41 42 43 43 43 44 45 45 45 45 45 46 45 45 45 44 43 43 42 42 42 40
50 50 49 49 48 48 47 47 46 45 44 44 43 42 42 42 41 41 41 41 41 42 43 43 43 44 45 44 44 45 45 45 44 43 42 41 41 41 41 42 41 40
50 50 50 48 47 47 47 47 45 44 43 42 42 42 41 41 40 40 40 40 40 40 42 42 42 43 43 44 43 44 44 44 43 42 41 40 39 39 40 40 39 38
50 49 48 47 46 46 46 47 46 44 43 41 41 41 41 41 41 40 40 40 39 41 42 41 41 41 40 41 42 43 43 42 42 41 40 39 38 37 37 37 37 36
50 48 47 46 46 46 46 45 43 42 41 40 40 39 39 39 38 38 39 39 39 40 40 39 39 40 40 42 43 43 43 42 40 40 40 40 38 37 35 35 35 35
48 47 46 45 45 44 44 41 41 39 38 37 37 38 38 39 37 37 36 37 38 39 39 39 39 39 40 41 42 42 41 41 41 38 38 40 39 37 36 35 34 33
48 46 45 45 44 42 41 39 38 37 37 36 36 37 37 36 38 37 37 38 38 38 38 38 38 40 39 40 41 41 41 41 39 40 38 39 39 38 36 35 34 32
47 42 42 43 42 40 40 38 37 36 37 37 36 36 35 35 37 37 37 37 37 38 38 37 38 38 39 39 39 40 41 41 40 38 38 39 39 38 36 34 33 32
44 43 42 42 41 39 37 37 37 36 36 35 36 35 35 34 35 35 35 35 35 35 35 35 37 38 38 39 39 40 40 41 37 37 37 38 38 38 36 35 34 33
43 41 40 41 39 38 37 36 36 35 34 35 35 36 35 35 35 35 34 34 35 34 35 35 36 38 38 38 39 40 40 37 36 36 35 34 34 34 34 34 34 33
43 41 39 38 38 36 35 35 35 35 35 35 34 34 34 34 33 34 34 34 34 34 34 34 34 36 37 38 39 39 38 35 34 34 33 32 32 32 33 32 32 32
42 40 37 36 36 35 35 35 36 35 34 35 34 33 33 33 33 33 34 34 33 34 34 34 34 35 37 38 38 39 36 34 34 33 32 32 31 31 32 31 32 31
41 39 37 36 35 35 35 34 34 34 35 35 34 34 33 33 33 33 33 33 33 34 34 34 33 34 37 38 38 38 36 34 34 33 31 30 30 30 31 31 31 31
38 36 36 35 34 34 35 35 35 34 34 34 33 34 33 33 33 32 31 32 32 32 32 33 32 34 35 38 38 37 37 35 35 33 32 31 31 31 30 31 30 30

ECMWFNIL_sfc_temp_066.txt.gz
Temp
52 52 52 51 51 52 52 51 51 52 52 52 52 52 51 50 49 49 48 48 48 49 49 50 49 50 50 49 49 51 51 51 52 52 52 51 49 47 48 47 47 47
52 52 51 51 51 51 51 51 51 52 52 53 52 51 51 50 49 48 47 47 47 48 49 49 48 49 49 48 47 46 45 44 46 47 45 44 42 43 45 44 45 43
51 51 51 50 50 50 51 51 52 53 53 53 52 51 51 49 47 46 47 46 47 47 46 47 46 47 46 46 45 42 43 43 43 41 43 42 40 42 41 40 42 43
51 51 51 51 51 51 51 52 52 52 52 51 52 51 51 49 48 46 45 44 42 42 43 44 44 43 43 43 43 41 41 42 42 41 41 40 40 40 39 38 39 41
51 50 50 50 50 50 51 52 52 52 51 51 50 49 48 46 45 43 42 42 41 40 41 40 40 41 41 40 41 41 40 41 40 40 40 40 39 40 38 37 37 39
50 51 50 49 49 49 50 51 51 51 51 49 49 47 46 44 44 43 42 41 40 41 41 40 39 39 39 39 39 40 39 39 40 41 40 40 38 38 38 37 37 37
48 48 48 48 47 48 47 48 49 48 47 47 46 45 44 43 42 42 41 40 40 41 40 40 40 40 39 39 39 39 39 39 40 41 40 38 38 38 38 37 36 37
46 46 47 46 45 45 44 45 45 45 45 44 44 43 43 43 42 41 40 39 40 40 40 40 40 40 39 39 39 39 40 41 40 40 40 38 37 38 39 40 39 38
45 45 44 42 43 43 43 43 43 44 43 44 42 39 40 41 41 39 39 41 40 40 40 40 40 40 40 39 39 40 40 40 41 41 40 38 38 39 38 38 38 39
44 43 43 42 42 42 42 41 41 41 41 42 40 38 39 38 38 40 40 40 40 39 39 39 39 39 39 39 40 40 40 39 39 39 39 40 40 40 40 40 39 38
43 42 42 42 42 41 41 40 39 40 39 40 39 38 38 39 39 40 40 40 40 40 40 40 40 40 39 40 40 41 40 39 39 39 38 38 38 38 38 38 36 37
43 42 42 42 41 41 40 40 40 39 38 38 39 38 39 40 40 39 40 40 40 40 40 40 40 39 39 40 41 41 40 39 38 37 37 38 40 40 40 40 39 38
43 43 42 41 40 41 41 40 39 38 38 38 37 38 39 39 39 39 39 40 40 40 39 39 40 39 39 39 39 39 40 40 39 39 39 40 40 40 41 40 38 37
42 41 41 41 40 40 40 39 39 38 38 37 37 38 39 39 39 39 38 39 39 39 39 39 39 39 40 40 40 40 40 40 40 40 40 39 40 40 40 39 37 37
41 41 41 40 40 40 39 39 39 38 37 37 38 39 39 39 39 39 38 37 37 37 38 38 38 38 39 40 40 40 40 40 40 40 39 39 38 38 38 37 36 36
40 40 41 39 39 39 39 38 38 37 37 37 37 38 38 38 38 38 38 37 37 37 37 37 37 38 37 39 40 39 39 39 39 39 39 39 38 36 36 36 35 35
40 40 39 39 39 38 38 38 37 37 36 36 37 38 37 37 38 37 37 37 37 37 36 36 36 37 38 41 42 42 40 39 39 38 38 38 37 35 34 34 34 34
40 39 39 38 38 38 37 37 37 36 35 35 36 36 36 37 37 37 37 37 37 37 37 37 37 37 40 41 41 42 41 39 38 36 36 37 36 35 35 34 33 32
39 39 38 37 37 37 36 36 36 35 34 34 35 36 36 35 36 36 36 36 36 35 36 37 37 39 40 40 41 42 41 39 37 36 35 34 35 35 34 33 32 31
39 38 37 37 36 36 36 36 35 34 34 34 34 34 35 35 35 35 35 35 35 35 35 35 35 37 40 40 40 41 42 39 35 35 35 34 34 35 35 33 32 30
38 38 37 36 35 35 35 35 34 33 32 32 33 33 34 34 34 34 34 34 34 34 34 34 35 37 38 39 40 40 41 38 35 35 35 33 35 35 35 34 32 31
37 36 36 35 34 34 34 34 33 32 32 31 32 32 34 35 34 34 33 33 33 33 33 33 34 38 38 39 39 40 41 35 34 34 33 33 33 34 34 34 33 32
36 36 34 34 34 33 33 32 31 31 30 31 31 32 33 34 33 33 34 33 33 33 33 33 33 37 38 38 39 40 38 34 34 34 33 32 32 33 33 33 33 32
35 35 34 33 33 33 32 31 31 30 30 31 31 31 32 33 33 33 33 33 32 32 33 32 32 35 38 38 39 40 36 34 34 33 31 30 30 31 31 31 32 32
34 34 33 33 32 32 32 30 30 30 29 30 31 32 32 32 33 32 32 32 32 32 33 32 32 34 37 38 39 39 36 34 34 32 30 29 29 29 29 29 30 31
33 33 32 32 31 30 30 29 29 29 29 30 32 33 32 32 32 32 31 31 31 31 32 32 32 33 35 38 38 39 38 34 33 31 29 28 29 29 28 28 28 29

ECMWFNIL_sfc_temp_069.txt.gz
Temp
51 51 51 50 51 51 51 50 50 50 51 50 50 51 51 51 51 51 51 50 50 50 51 52 52 53 52 52 51 50 49 49 51 51 50 50 49 49 48 48 47 47
51 50 49 49 49 49 50 50 50 50 50 50 50 49 49 49 50 50 50 50 49 49 49 50 51 52 52 51 50 49 48 47 48 48 48 46 47 47 48 47 48 48
50 49 49 49 50 49 49 49 49 49 50 50 49 49 49 49 49 49 50 50 49 48 48 48 49 50 50 50 49 48 47 46 47 45 45 46 46 45 45 45 45 46
50 50 50 50 49 49 48 48 47 47 48 48 48 48 49 48 49 47 47 46 47 45 45 45 46 46 48 48 48 46 46 46 46 45 44 43 42 43 43 42 42 41
49 49 49 49 49 48 48 48 48 47 47 48 47 47 47 46 45 43 43 43 43 43 42 42 43 43 43 44 45 45 42 42 42 42 41 41 40 41 41 40 40 40
48 49 49 48 48 47 47 47 48 47 47 44 47 46 45 45 44 43 43 42 41 41 41 41 41 41 41 41 41 42 41 41 41 42 41 41 40 39 39 39 39 39
46 46 45 46 45 45 46 46 46 45 45 45 41 42 41 44 44 44 44 43 42 41 41 41 40 40 40 40 40 40 40 41 40 41 41 40 39 38 37 38 38 38
44 43 45 43 43 43 43 43 42 42 42 39 41 41 42 44 44 44 43 43 43 42 41 41 40 41 39 39 40 40 40 41 40 40 40 39 38 38 37 37 37 37
43 42 43 42 41 41 41 41 40 39 38 41 40 40 40 43 43 43 43 42 42 42 41 40 40 39 38 39 39 40 40 40 41 40 40 39 38 38 37 37 36 36
41 42 40 41 41 41 40 39 39 38 37 40 40 40 40 40 42 42 41 41 41 40 40 40 40 39 38 38 39 40 40 40 39 39 40 40 40 39 38 37 36 35
40 39 40 40 41 40 40 38 38 38 37 39 38 38 39 40 40 41 40 40 40 40 39 39 39 39 39 39 39 39 40 40 39 39 39 39 40 39 38 37 37 36
40 39 40 41 40 39 38 38 37 38 38 37 38 39 37 38 40 39 40 40 40 40 40 40 40 39 39 39 39 39 39 38 38 38 38 38 38 38 37 37 36 35
40 40 40 40 39 39 37 37 38 37 38 38 37 38 38 37 37 39 39 40 40 40 40 40 39 39 39 39 39 39 39 38 38 38 37 37 37 37 37 36 36 35
41 39 39 39 38 38 38 38 38 37 38 37 36 37 37 37 37 38 39 39 39 39 39 39 39 39 39 39 39 39 38 37 37 36 36 37 37 37 36 36 36 35
41 39 38 38 38 38 38 38 38 38 37 37 36 36 37 36 36 37 37 37 38 38 38 38 38 38 39 39 38 38 38 38 37 37 37 36 36 36 36 37 36 36
40 39 39 38 38 38 38 38 37 37 37 36 36 36 36 35 35 35 36 36 36 37 38 37 37 38 37 39 39 38 38 38 37 37 37 37 36 35 36 36 37 36
39 39 38 38 39 38 37 37 37 36 36 35 35 35 35 34 35 35 35 36 37 37 37 37 37 37 38 40 40 40 38 37 37 37 37 36 36 36 35 36 36 36
39 39 38 39 38 38 37 36 36 36 36 35 34 34 34 34 34 35 36 37 37 37 37 37 37 37 39 40 40 40 38 37 37 36 36 37 36 36 36 36 35 34
38 38 38 38 38 37 36 35 35 36 35 34 34 34 33 33 34 35 36 36 36 36 36 36 36 38 39 39 40 40 40 38 36 36 36 36 36 36 35 35 34 33
37 37 37 37 36 35 35 35 35 35 35 34 34 32 33 33 34 35 36 36 36 36 36 36 36 37 39 40 40 40 40 39 36 36 36 36 36 36 35 35 34 33
37 37 37 36 35 35 35 35 35 34 33 33 33 33 33 33 34 35 35 35 35 35 35 35 35 38 40 40 40 41 41 39 35 35 35 35 36 36 35 35 35 35
36 36 36 35 34 34 34 34 34 34 33 31 31 30 31 33 34 35 34 34 34 34 34 33 34 38 39 39 39 40 41 36 35 34 34 34 34 35 35 35 35 35
36 36 35 34 34 34 34 34 33 31 31 30 31 30 31 32 33 34 34 34 33 33 33 33 33 36 38 38 39 40 38 34 34 34 33 32 32 34 34 34 35 35
35 35 35 34 33 33 33 33 32 31 31 30 31 29 30 31 32 33 33 33 33 33 33 32 32 34 37 38 38 40 37 34 34 33 32 32 31 33 33 33 34 33
34 34 34 33 33 33 33 32 31 30 29 29 29 30 29 30 32 32 32 32 32 33 33 32 32 33 37 37 38 39 37 34 34 33 31 30 30 30 31 31 32 33
33 33 33 33 33 31 31 31 29 27 27 28 27 29 29 30 32 32 31 31 32 32 32 32 32 33 35 38 38 38 37 34 33 32 30 29 30 29 29 29 30 31

ECMWFNIL_sfc_temp_072.txt.gz
Temp
52 51 51 50 51 51 50 49 48 49 49 49 49 50 50 50 50 50 51 52 52 53 54 54 54 54 54 55 55 54 52 52 50 50 49 50 49 48 48 47 47 46
51 50 49 49 49 48 49 49 49 49 49 49 49 49 48 48 48 50 50 51 50 51 52 53 53 53 53 53 52 52 51 50 51 51 50 48 48 48 48 48 47 47
49 49 49 49 50 49 48 48 48 49 49 49 48 48 48 47 48 48 49 50 50 49 50 50 51 52 52 52 52 51 50 49 48 48 47 47 48 47 47 47 46 46
49 50 50 50 49 49 48 47 47 47 47 47 47 47 47 47 47 46 47 46 48 48 48 48 49 49 50 51 50 49 50 50 50 49 48 47 46 47 46 45 45 44
48 49 49 49 48 47 46 47 47 47 47 47 46 45 45 45 45 43 43 43 45 46 45 46 46 47 47 48 49 49 48 47 47 47 46 46 45 44 45 43 43 43
46 48 48 48 47 46 46 46 47 47 47 44 46 44 45 44 44 42 42 42 42 43 44 43 43 43 44 44 44 46 46 45 45 45 44 44 43 41 43 42 42 42
46 45 45 45 44 45 45 46 46 45 46 45 41 43 42 42 41 41 42 41 42 42 43 43 42 42 42 41 41 42 42 43 43 43 43 43 42 41 40 40 41 42
45 43 44 42 43 44 43 44 44 44 43 39 41 41 40 41 41 41 40 41 41 42 42 42 42 43 42 41 42 41 42 42 42 41 42 42 40 41 39 40 40 41
43 43 42 41 42 42 42 42 41 39 38 40 41 39 38 40 40 40 40 40 41 41 42 42 42 42 41 41 41 42 42 41 42 41 41 41 40 41 40 39 39 39
42 41 39 40 41 42 42 41 39 39 38 39 40 38 39 38 39 40 40 40 40 40 41 42 41 40 40 40 41 42 42 42 41 40 41 41 41 41 40 39 39 38
41 39 40 40 41 41 40 40 39 38 38 39 39 39 39 38 37 37 39 39 41 41 41 41 41 41 40 40 40 40 41 42 41 41 40 41 41 41 39 39 39 39
41 40 40 41 41 40 40 39 38 38 38 38 38 40 39 38 39 38 39 39 40 40 41 41 41 41 40 41 40 40 40 40 40 40 40 40 40 40 40 39 39 39
41 41 41 41 41 41 39 38 38 38 38 39 37 39 39 38 37 38 37 39 39 39 40 40 40 40 40 40 40 39 39 39 39 39 39 39 39 39 39 38 38 38
42 42 41 41 41 40 39 39 38 38 38 38 37 37 38 38 38 38 38 37 38 39 39 39 40 40 40 40 40 39 39 38 38 38 38 38 38 38 37 37 38 37
43 42 40 40 39 39 39 39 38 38 37 37 37 37 38 37 37 38 37 36 36 37 37 38 40 40 40 39 39 39 39 39 38 38 38 37 37 36 36 37 36 36
42 41 40 39 38 39 39 38 37 36 36 36 37 36 36 36 36 36 37 37 36 36 36 37 38 40 38 39 40 39 38 39 38 38 38 37 37 36 35 36 36 36
40 40 40 39 39 38 38 37 37 36 36 36 36 36 36 35 35 35 35 35 36 36 36 37 38 38 38 40 40 40 38 37 37 36 37 37 37 36 35 35 35 35
39 39 38 39 38 38 37 36 35 35 35 36 36 35 35 33 34 35 35 35 35 35 36 37 38 38 39 40 40 41 39 37 37 36 36 36 36 36 36 35 34 34
38 38 38 38 38 37 36 35 35 35 35 35 35 35 33 34 35 34 34 34 34 34 35 37 37 39 39 39 40 40 40 38 36 36 36 36 36 36 36 35 34 33
37 37 37 38 37 36 35 35 35 36 36 36 35 34 34 34 34 34 34 34 34 34 35 36 36 38 39 39 40 40 40 39 35 36 36 36 36 36 36 35 34 33
37 37 37 37 36 35 35 35 35 35 35 35 34 34 34 34 34 33 33 33 33 34 35 36 37 38 39 39 39 40 40 39 35 35 35 35 36 36 36 35 34 34
36 36 36 35 35 34 35 35 35 35 35 33 32 32 33 32 32 33 33 33 33 33 34 35 36 38 38 38 39 40 40 37 35 34 35 35 35 36 36 35 35 34
35 35 35 35 34 34 34 35 35 34 33 32 32 32 31 31 32 32 33 33 33 34 34 35 35 36 38 38 39 39 39 36 35 34 34 34 34 34 35 35 35 35
34 34 35 35 34 34 35 34 33 31 32 31 32 31 30 31 31 30 30 31 33 33 34 34 34 34 37 38 39 39 38 35 34 34 33 33 32 33 33 33 34 34
33 33 34 34 34 34 34 33 32 32 29 28 29 29 29 27 29 29 28 29 31 33 34 34 33 33 36 38 38 39 37 34 34 34 32 31 30 30 31 32 32 33
32 32 32 33 33 32 31 31 28 26 26 28 25 27 27 27 28 29 29 29 31 32 33 33 32 32 34 37 38 38 38 34 34 33 32 30 30 29 29 30 31 32

ECMWFNIL_sfc_temp_078.txt.gz
Temp
48 48 49 49 50 50 50 49 48 49 49 48 49 49 49 49 46 48 50 52 54 55 56 56 56 57 56 56 56 55 55 55 54 54 53 53 52 52 51 51 51 52
47 47 46 47 47 47 48 48 49 48 49 48 48 48 46 45 46 47 48 49 50 52 54 54 54 55 55 55 55 55 55 54 54 53 52 51 51 51 51 51 50 51
45 45 46 46 48 47 47 46 47 47 47 47 46 45 46 45 46 45 46 47 48 49 50 52 53 53 53 54 54 53 53 53 53 53 52 52 52 51 52 52 52 51
44 45 46 46 46 46 45 45 46 45 44 45 46 46 45 45 45 45 45 44 46 46 47 48 50 51 51 52 51 51 51 51 52 51 50 50 50 50 50 50 49 49
43 44 44 45 45 44 43 45 46 45 45 46 43 42 43 43 42 43 42 42 43 44 44 45 46 47 48 49 50 50 50 50 50 50 50 50 50 49 49 49 49 48
41 42 43 43 43 43 44 44 45 45 45 43 44 42 43 42 42 42 42 41 41 42 43 43 43 43 44 46 47 48 48 48 49 49 49 49 49 49 49 48 48 47
40 39 40 41 40 41 42 43 44 43 43 43 39 42 40 41 41 42 42 42 42 42 43 43 44 44 44 45 46 46 47 47 47 47 47 47 47 45 45 46 45 46
38 37 38 38 39 39 40 41 42 41 41 37 40 42 39 42 42 42 41 41 41 42 42 43 44 45 45 45 45 45 46 46 46 45 45 45 44 44 44 44 43 43
36 36 36 35 36 38 38 39 40 37 36 39 40 40 37 39 41 40 40 40 40 41 42 42 43 43 44 44 45 45 45 45 45 44 44 43 43 43 43 42 41 41
36 36 34 35 35 37 37 38 38 37 36 37 38 38 38 38 38 40 39 39 39 40 41 41 42 42 42 42 44 44 44 45 44 43 44 43 43 44 43 42 41 41
37 36 35 36 36 36 36 37 36 36 35 37 37 37 38 37 37 37 38 38 40 40 41 41 41 42 42 42 42 43 43 43 43 43 43 43 43 43 41 42 42 41
38 38 38 38 37 37 37 36 36 36 36 36 36 38 38 37 38 38 37 38 39 39 40 41 41 41 41 41 42 42 41 42 42 42 42 42 42 42 42 41 41 42
39 38 39 38 37 37 37 37 37 36 36 37 36 36 37 37 37 38 37 37 39 38 39 40 40 40 40 40 41 41 41 41 40 41 41 41 41 41 41 41 41 41
38 37 38 38 38 37 38 37 37 37 36 36 35 36 36 37 37 37 37 36 38 38 39 38 38 39 40 40 40 40 40 40 40 39 40 40 40 40 40 40 41 41
37 37 37 37 37 37 37 38 38 37 37 36 35 35 36 36 36 36 37 37 37 37 37 38 38 39 40 39 39 40 39 39 39 39 39 39 39 39 39 39 39 39
35 35 36 35 36 37 37 37 36 36 36 36 36 36 36 35 35 35 36 36 37 37 37 38 38 40 39 40 40 39 39 39 39 39 39 39 38 38 38 38 38 38
34 34 34 34 35 34 35 36 36 36 35 35 35 36 36 35 34 35 35 35 36 36 37 37 38 39 39 41 42 42 40 39 38 38 38 38 38 38 38 38 38 38
34 34 34 34 34 34 34 35 34 34 34 35 35 35 35 34 34 35 35 35 35 35 36 37 38 39 40 41 41 42 41 39 38 38 38 38 38 37 38 37 37 37
36 35 35 35 35 35 34 34 33 34 34 34 35 34 33 34 35 34 34 34 34 35 36 37 37 39 40 41 41 41 42 40 39 38 38 38 38 37 37 36 36 36
35 35 35 35 35 35 35 35 35 35 34 34 34 34 33 34 34 34 34 34 34 35 35 36 36 38 40 40 40 41 41 41 39 38 38 38 38 37 37 36 36 35
34 34 34 34 34 34 34 34 35 35 36 36 35 35 34 35 35 34 35 35 34 34 34 35 36 38 39 40 40 41 41 41 39 38 37 37 37 37 37 36 36 36
33 33 33 33 33 33 33 34 34 34 34 35 35 35 35 34 34 33 34 34 34 34 34 35 35 38 39 39 40 40 41 38 37 37 36 36 36 36 36 36 36 35
32 32 32 32 32 32 32 33 33 34 34 34 33 34 34 34 34 35 34 34 34 34 33 34 35 36 38 38 39 40 39 37 36 36 35 35 35 35 35 35 35 34
32 31 31 31 31 31 31 32 33 33 33 33 32 32 33 34 34 34 33 32 32 33 33 33 34 35 37 38 39 39 38 36 36 35 35 35 34 34 34 34 34 33
31 31 30 30 30 30 31 31 31 32 32 31 31 31 31 32 31 31 32 32 31 31 31 32 32 33 36 37 38 39 38 35 35 35 34 34 34 33 33 33 32 33
30 30 29 29 29 29 29 30 30 29 30 30 30 30 29 30 29 29 29 30 30 29 29 29 30 31 32 37 38 38 39 36 34 34 34 34 33 33 32 31 31 31

ECMWFNIL_sfc_temp_081.txt.gz
Temp
49 50 51 52 52 53 53 53 53 53 53 53 53 54 53 54 53 53 54 55 56 57 57 58 58 58 58 58 58 57 56 56 57 56 55 54 53 53 53 53 52 53
48 48 48 49 50 50 50 51 52 52 52 52 52 52 52 51 51 51 52 52 53 54 56 56 57 57 57 57 57 57 57 56 55 55 54 53 53 53 53 53 52 53
46 46 47 47 49 49 49 50 49 50 50 51 51 50 51 50 50 50 50 51 51 52 53 54 55 55 56 56 56 56 55 55 55 56 54 53 53 52 53 52 52 52
45 45 46 47 47 47 48 48 48 48 48 48 49 50 49 49 49 49 49 48 49 50 51 51 52 54 54 54 54 53 54 54 54 55 54 54 54 54 54 54 53 52
44 44 45 45 46 46 46 46 47 47 47 48 48 48 47 47 47 47 47 47 47 48 49 49 50 51 51 51 52 52 52 52 53 53 52 52 53 53 53 53 52 51
42 42 43 43 44 44 45 45 46 46 47 46 47 47 47 46 46 46 46 46 46 46 47 47 48 48 48 49 49 50 51 50 51 51 50 50 51 51 51 50 50 50
41 41 42 42 42 42 43 44 44 44 45 45 43 44 45 44 44 45 46 46 46 45 46 46 47 47 47 47 47 47 48 49 49 49 49 49 49 49 49 50 49 49
40 40 40 39 39 40 40 41 42 42 43 41 42 44 43 44 44 45 45 45 45 45 45 45 46 47 47 46 45 46 47 48 48 47 47 48 48 47 48 48 48 47
39 39 39 38 38 40 40 40 41 40 40 40 41 42 41 42 43 43 43 43 43 44 44 44 45 45 46 46 46 46 46 46 47 46 46 46 46 46 46 45 44 44
39 39 38 39 39 40 39 40 39 39 38 38 39 39 39 40 40 41 41 41 41 41 42 42 42 43 43 44 45 45 45 46 46 46 46 46 46 45 45 44 44 44
40 39 39 39 39 39 39 39 38 38 38 39 39 39 39 39 39 39 39 39 40 41 42 41 42 42 43 43 43 44 44 45 45 45 45 45 45 45 43 44 43 43
39 40 39 39 39 39 39 38 39 39 39 38 38 39 39 38 39 39 39 40 40 41 41 41 42 42 41 42 42 43 43 43 43 43 43 44 44 44 44 44 43 43
39 39 38 39 38 38 38 39 39 38 39 39 38 38 38 38 38 39 39 39 39 39 40 40 40 41 42 42 42 43 43 42 42 42 42 42 43 43 43 43 43 43
38 38 38 38 38 38 38 38 39 39 39 39 38 38 38 38 38 38 39 38 39 39 39 39 39 40 40 41 41 42 41 41 41 41 41 41 42 42 42 42 42 42
37 38 38 38 37 38 38 38 38 38 38 38 38 39 38 38 38 38 38 38 38 38 38 39 39 39 40 40 40 41 41 40 40 40 40 40 40 41 41 41 41 41
36 36 37 36 37 37 37 37 37 37 37 37 37 37 38 38 38 38 38 37 38 38 38 38 39 40 38 39 39 40 40 40 40 40 40 40 39 40 40 40 41 41
35 36 35 36 36 35 36 36 36 36 36 35 36 36 37 37 37 37 38 38 38 38 38 38 39 39 38 40 41 41 41 40 39 39 39 39 39 39 39 40 40 40
35 35 35 35 35 35 35 35 35 34 34 35 35 35 36 36 35 36 36 37 37 37 37 37 38 38 39 40 41 41 41 40 39 39 39 39 39 39 39 39 39 39
35 35 35 35 35 34 34 34 33 34 34 34 34 35 35 34 36 35 36 36 36 36 36 37 37 38 39 40 40 41 41 40 40 39 39 38 39 39 39 39 39 38
34 34 34 35 34 34 34 34 34 34 34 35 34 34 34 34 34 34 35 35 36 36 36 36 37 37 39 40 40 40 40 40 40 39 39 39 39 39 39 38 38 38
34 34 33 34 34 33 33 34 34 34 34 35 35 34 34 34 34 34 35 34 35 35 35 36 36 37 39 39 40 40 41 40 40 39 39 39 39 39 38 38 38 38
33 32 32 33 33 32 32 33 33 33 33 34 34 34 34 34 35 34 34 34 34 34 34 35 36 38 38 39 39 40 40 38 38 38 38 38 38 38 38 38 38 37
32 31 31 31 31 31 31 31 31 32 32 33 32 33 33 33 33 33 34 33 33 33 33 33 34 36 37 38 39 39 39 37 36 36 36 36 37 38 38 37 37 37
31 31 30 30 30 30 30 30 31 31 31 31 30 30 31 32 32 32 33 33 32 32 32 32 33 34 35 37 38 38 37 36 36 36 35 36 36 37 37 37 37 35
30 30 29 29 29 29 29 29 29 29 30 30 30 30 30 31 31 31 31 31 31 31 31 31 31 32 34 35 36 37 37 35 36 35 35 35 35 36 37 36 36 34
29 28 28 28 28 28 29 29 29 28 29 29 29 29 29 30 30 29 29 30 31 30 30 30 30 30 32 34 35 36 37 36 36 35 34 34 35 35 36 35 35 34

ECMWFNIL_sfc_temp_084.txt.gz
Temp
58 59 58 59 59 59 58 58 59 59 59 60 60 62 62 64 64 63 63 63 63 62 62 62 62 62 61 62 62 61 62 62 63 63 61 60 58 57 57 58 58 59
58 57 58 59 59 60 60 59 59 59 59 60 61 61 62 61 61 61 61 60 61 61 62 61 62 62 61 61 61 60 60 61 61 62 60 60 59 59 58 58 59 59
56 56 56 56 58 57 57 58 58 59 59 59 59 59 59 59 59 59 59 59 59 60 61 61 61 60 60 60 60 59 59 59 58 60 59 58 57 57 57 58 58 58
56 55 56 56 56 56 57 56 57 58 58 58 58 58 58 57 57 57 57 56 57 58 59 59 59 60 60 59 59 58 58 58 58 58 57 57 57 56 56 56 55 55
54 55 55 55 55 55 56 55 56 56 56 56 57 57 57 57 56 56 56 56 56 56 57 57 58 58 59 58 58 56 56 56 57 56 54 54 55 55 56 55 54 54
55 55 55 54 54 54 55 55 55 55 55 55 55 55 55 55 55 55 55 54 55 55 55 56 56 57 57 56 55 54 54 53 55 54 53 52 53 54 53 53 53 53
53 53 52 53 53 53 53 53 53 53 53 53 53 53 54 53 53 54 54 54 54 54 54 54 54 54 55 54 53 53 53 52 52 52 51 51 52 52 53 52 52 52
52 52 51 52 52 52 52 52 52 52 51 51 51 53 52 52 52 52 53 53 53 53 53 53 53 54 54 53 51 50 50 50 50 49 49 49 50 49 50 51 51 50
51 50 50 50 50 51 50 50 50 50 50 49 51 51 51 51 51 51 51 51 51 52 52 52 52 52 52 51 49 48 48 48 49 49 48 48 48 48 48 49 48 48
50 50 49 50 50 50 49 49 49 49 48 49 50 50 50 50 50 50 49 49 49 50 51 50 50 49 49 49 49 48 48 47 48 48 48 48 47 47 48 48 47 46
50 50 49 49 49 50 49 49 49 49 49 48 48 49 49 49 49 49 48 48 48 49 50 50 50 50 50 50 50 49 48 47 47 47 47 47 47 47 44 46 45 45
49 49 49 49 48 49 48 48 49 49 48 49 48 48 48 48 48 48 48 48 48 48 48 48 49 49 49 49 49 49 48 48 47 46 46 46 46 45 45 45 45 45
48 48 47 48 48 47 48 48 47 47 47 47 48 47 48 48 48 47 48 47 47 47 47 47 47 47 48 49 49 49 49 48 46 45 45 44 44 44 44 44 44 44
47 47 47 46 46 47 47 47 47 47 47 47 47 47 47 47 47 47 48 48 48 47 47 48 47 47 47 48 48 48 47 45 44 43 43 42 42 43 43 43 43 43
46 46 46 46 46 46 46 46 46 46 46 46 46 46 46 47 46 46 46 47 48 48 48 47 46 46 47 47 46 46 47 46 45 44 43 42 42 42 42 43 43 43
45 45 45 45 45 45 45 45 45 45 45 44 44 45 45 45 45 45 45 45 45 46 46 46 46 47 42 39 40 43 44 44 44 44 43 42 41 41 41 42 42 42
44 44 44 43 44 43 43 42 42 43 43 42 43 43 43 44 44 44 45 45 45 44 44 44 45 44 40 41 41 41 42 44 43 43 43 42 41 40 40 41 42 42
43 43 42 42 42 42 41 41 41 40 41 42 41 40 42 43 42 43 43 44 43 44 44 44 44 40 41 40 40 40 40 42 43 43 42 41 41 40 40 41 41 41
42 41 41 42 41 40 40 38 38 38 38 38 38 40 41 41 42 42 42 43 43 43 43 43 44 41 40 40 40 40 40 40 43 43 42 41 41 41 40 40 40 40
41 39 39 40 39 39 39 37 38 38 38 38 39 38 39 38 39 40 41 41 42 41 41 42 42 40 39 39 39 39 40 40 42 41 41 41 40 41 40 40 40 40
39 38 38 38 38 37 36 36 37 37 36 37 38 38 37 37 38 38 38 37 39 38 39 39 41 39 39 39 39 39 39 39 41 41 41 40 41 41 40 40 40 40
38 37 37 37 37 35 35 35 35 35 35 37 36 38 37 38 38 37 36 36 37 36 38 38 40 39 38 38 38 38 38 39 40 41 40 40 40 40 40 41 41 40
37 36 34 34 34 33 33 33 34 34 35 36 34 35 35 36 35 36 36 36 35 35 35 36 37 38 37 37 37 37 38 37 37 37 38 39 39 40 40 41 41 41
36 34 32 32 32 32 32 33 34 34 34 35 33 33 33 34 35 35 36 36 35 34 35 34 35 36 36 36 36 37 36 36 37 37 36 37 37 39 40 40 41 36
35 33 32 31 30 31 31 31 31 32 33 34 34 33 33 35 35 35 35 35 35 35 34 34 34 34 35 36 36 36 37 35 36 37 36 36 37 38 40 40 40 38
32 31 30 30 29 30 30 31 32 32 32 32 32 33 34 34 34 34 32 33 34 34 34 35 34 34 35 35 36 36 36 35 36 36 35 35 36 37 37 37 39 39

ECMWFNIL_sfc_temp_087.txt.gz
Temp
62 63 62 62 62 62 62 61 62 62 62 63 62 63 63 64 64 63 63 63 63 63 63 63 63 62 62 62 62 62 62 62 62 63 63 61 59 58 57 58 58 58
61 61 61 62 63 63 62 62 61 61 61 62 62 62 63 62 62 61 60 60 61 61 62 62 63 62 62 61 61 61 61 61 61 62 62 61 61 60 58 58 57 57
60 60 59 59 60 59 60 60 60 61 61 61 61 61 61 60 59 60 59 59 59 59 59 60 60 61 61 61 60 60 59 59 59 60 60 60 60 59 59 59 58 57
59 59 59 59 59 58 59 59 60 61 60 60 60 59 59 59 59 58 58 57 58 58 58 59 59 59 59 59 59 59 59 58 58 58 58 58 58 58 58 58 57 57
57 58 58 58 58 58 59 58 57 57 57 57 58 58 58 57 57 57 57 57 57 57 57 57 57 57 57 57 58 57 57 56 57 57 56 55 56 56 56 56 55 54
57 57 57 57 57 57 57 56 56 56 56 56 55 56 56 56 55 55 56 55 56 55 55 56 56 56 56 56 56 56 55 54 55 54 53 53 53 54 54 53 53 52
55 55 55 56 56 55 55 55 55 55 54 54 54 55 54 54 54 54 54 54 54 54 54 54 54 54 55 55 54 54 54 54 53 52 51 51 51 51 52 52 51 51
54 54 54 55 55 54 53 53 53 53 52 53 53 54 54 53 53 53 53 53 53 53 53 54 54 54 54 54 53 52 52 51 50 50 50 50 50 49 50 50 50 49
54 53 54 54 54 53 52 52 52 52 52 51 52 52 53 53 52 52 52 52 52 52 52 52 53 52 52 52 51 50 50 50 50 49 48 48 48 48 49 49 48 48
53 53 53 53 53 53 51 52 52 52 52 51 52 52 52 52 52 52 51 51 51 51 52 52 52 52 52 51 51 50 50 49 50 49 49 48 48 48 49 48 48 47
52 53 52 51 51 51 50 51 51 51 51 51 51 51 51 51 51 51 50 50 50 50 50 50 50 50 50 50 50 50 50 50 49 49 49 49 48 48 45 47 47 46
51 51 50 50 50 50 50 50 50 50 49 50 50 49 50 50 50 50 50 49 49 50 50 49 50 49 49 49 49 50 50 49 49 49 49 48 48 47 47 46 46 45
50 49 49 49 49 49 49 49 49 48 48 48 48 48 48 48 48 48 48 49 49 49 49 49 49 49 49 49 49 49 48 48 48 47 47 47 46 45 45 45 45 44
48 48 48 48 48 48 48 48 48 47 47 47 46 46 46 46 46 46 47 47 48 48 49 49 48 48 48 49 48 47 46 46 46 46 45 45 45 45 45 44 44 43
48 47 48 48 47 47 46 46 46 45 45 45 45 45 46 46 46 46 45 45 46 46 46 47 47 47 48 47 45 44 44 44 44 44 44 43 44 44 44 44 44 44
47 46 46 46 46 45 45 44 44 44 44 44 44 44 45 45 45 45 45 45 45 45 45 46 46 47 44 41 40 42 42 42 42 42 43 43 42 42 42 42 42 43
45 45 45 44 45 44 43 42 42 43 43 43 43 43 43 43 43 43 44 44 44 44 44 44 45 45 41 42 42 41 41 41 40 41 41 42 42 42 41 42 42 43
44 44 43 43 43 42 42 42 41 41 41 42 41 41 42 43 42 42 43 43 44 44 43 44 44 41 42 42 41 41 40 40 40 40 41 41 42 42 42 42 42 42
43 42 42 42 42 40 41 40 37 38 38 38 38 41 41 40 41 41 41 42 43 42 42 42 43 42 42 42 41 41 40 40 40 40 40 40 41 41 41 41 41 40
42 41 40 41 40 39 39 39 37 38 38 39 38 39 39 39 39 39 40 41 41 40 40 41 41 41 41 41 40 40 40 40 39 39 39 40 40 41 41 41 41 40
40 39 39 38 39 38 36 36 37 36 36 36 37 38 37 37 38 37 38 37 39 38 39 39 40 40 40 40 40 40 40 39 39 39 39 39 40 41 41 41 41 41
39 39 38 38 37 36 35 35 35 35 35 36 37 37 37 37 37 37 36 36 37 37 37 38 39 40 40 40 40 40 40 38 37 38 38 38 39 40 40 41 41 41
38 37 35 34 34 34 33 33 33 33 34 36 35 35 35 36 35 36 36 36 36 36 36 37 37 39 39 39 39 39 38 36 36 35 36 37 37 39 40 41 41 41
37 35 33 32 32 31 31 31 32 33 34 35 34 33 33 34 35 36 36 36 35 35 35 35 35 36 38 38 39 39 37 35 35 35 35 35 36 38 39 40 40 37
35 32 31 30 29 29 30 29 30 31 33 33 33 33 33 35 35 35 35 35 35 34 34 34 35 36 38 38 39 39 38 35 35 34 34 35 36 36 38 39 39 38
31 30 29 28 27 28 28 29 31 32 32 31 31 32 33 34 34 33 32 33 34 35 35 35 35 35 36 38 38 39 39 37 35 34 33 33 34 35 35 36 37 38

ECMWFNIL_sfc_temp_090.txt.gz
Temp
55 55 54 54 51 52 51 51 51 51 51 51 51 52 52 52 52 52 51 52 52 52 53 53 53 54 55 55 55 57 56 56 56 56 55 54 53 54 55 54 54 54
51 51 50 51 52 52 52 51 51 50 50 50 52 50 52 51 51 50 50 50 50 50 51 51 51 52 52 52 52 53 53 55 55 56 55 54 53 53 54 54 53 53
50 50 50 50 50 49 50 50 50 50 50 50 50 50 51 49 49 48 49 48 48 48 49 49 49 50 50 50 50 50 50 50 51 52 52 52 52 53 54 54 53 52
49 49 49 49 49 49 49 49 49 49 48 49 48 48 49 49 47 47 47 46 47 47 47 47 47 47 47 47 48 47 48 47 47 48 48 49 50 51 51 51 51 51
47 48 48 48 48 48 48 47 46 47 46 46 46 46 47 46 45 45 45 45 44 43 44 44 44 44 45 45 44 46 45 44 45 45 44 44 46 47 49 49 49 48
47 47 47 47 46 46 47 46 45 45 44 44 45 45 45 44 43 42 42 42 42 43 43 43 43 44 44 43 44 44 44 45 44 42 42 43 44 45 48 47 47 46
45 45 46 46 46 45 45 44 44 44 43 43 41 42 41 41 40 40 40 40 41 42 41 42 42 43 42 41 41 41 42 41 41 41 40 42 42 43 42 43 44 44
45 44 45 44 44 43 43 42 41 41 40 39 39 40 40 40 40 40 40 41 40 40 40 40 39 42 40 40 41 40 40 43 43 40 39 40 39 41 41 42 42 42
43 43 42 41 41 41 40 39 39 39 39 39 40 40 40 40 40 40 40 39 38 39 39 39 40 39 40 39 40 39 39 40 40 38 39 39 39 40 40 40 40 40
42 41 41 40 40 38 38 38 38 39 39 40 40 39 41 40 38 39 37 38 38 38 38 38 38 39 39 38 39 38 39 40 40 39 39 39 39 40 40 39 39 39
40 39 39 39 40 39 39 39 39 39 39 38 38 38 37 37 38 36 37 37 40 38 39 38 38 38 39 39 39 37 37 39 39 39 39 39 39 39 39 39 39 38
39 39 39 39 39 38 38 38 38 36 35 36 36 37 35 35 35 36 36 36 35 37 36 37 37 37 37 38 38 38 37 37 38 38 38 39 39 39 39 39 39 39
38 39 39 37 37 37 37 36 36 35 35 36 35 35 35 34 34 34 34 35 36 35 37 37 38 38 38 38 38 37 35 36 37 37 37 38 38 38 38 38 38 38
37 37 36 37 36 36 36 36 35 34 34 33 33 33 34 34 34 35 35 34 36 36 38 38 37 37 37 37 37 36 36 35 35 35 36 36 36 37 37 38 38 38
36 37 37 37 36 35 35 35 34 33 33 33 33 33 36 34 34 35 35 35 35 35 35 36 38 38 39 38 38 37 35 35 35 35 35 35 35 35 36 36 37 37
36 36 36 36 35 35 34 34 33 33 33 33 34 34 33 33 33 33 33 33 34 34 34 36 38 39 39 40 41 38 36 36 35 34 34 34 34 34 35 36 36 37
34 35 34 34 34 33 32 32 33 33 32 32 32 32 32 32 33 32 31 32 33 33 33 35 36 38 39 42 42 43 39 35 34 34 34 33 33 33 34 35 36 36
34 33 33 33 32 32 31 31 30 30 30 30 31 30 31 30 30 30 31 31 33 31 31 34 34 38 41 41 42 42 41 37 35 34 34 34 33 34 34 35 35 36
33 33 33 32 32 31 31 30 28 29 28 29 30 30 29 29 30 30 30 31 31 31 31 32 32 37 40 41 41 41 41 39 35 34 34 33 33 33 33 34 35 35
33 33 32 32 31 30 30 28 28 28 28 28 28 28 28 29 28 29 30 30 31 31 31 31 31 36 39 40 40 41 41 40 35 34 34 33 33 33 34 34 34 34
32 32 31 30 29 28 27 27 27 27 27 28 28 28 28 29 30 30 31 30 30 30 31 31 33 38 40 40 40 40 41 40 35 34 33 33 33 33 34 34 34 35
31 30 29 28 28 27 26 26 26 26 27 27 27 27 27 27 28 26 29 30 30 30 30 31 32 37 38 39 39 40 40 36 33 32 32 33 33 33 33 34 34 34
29 28 27 26 26 25 24 25 25 26 26 27 26 27 27 27 28 28 29 29 30 30 29 30 31 34 37 38 39 40 38 33 33 32 32 32 33 33 34 33 34 34
28 26 24 23 23 22 23 23 24 24 24 27 25 26 26 26 27 28 29 27 29 29 29 29 31 33 36 38 39 39 38 34 32 32 32 32 32 33 34 33 34 34
26 24 22 22 21 21 22 21 22 23 24 24 24 23 25 26 28 27 28 28 26 28 30 30 30 32 35 37 38 39 37 33 32 31 31 32 32 32 34 34 33 34
23 22 21 21 19 19 20 21 22 22 23 23 23 24 25 25 25 26 26 27 28 27 29 30 29 31 33 36 38 39 39 36 33 32 31 31 32 32 32 32 33 33

ECMWFNIL_sfc_temp_093.txt.gz
Temp
55 55 53 50 47 49 48 48 47 48 48 48 47 46 46 46 47 47 46 47 47 47 47 48 47 48 48 48 49 50 50 50 51 51 51 50 49 49 51 51 51 51
48 48 47 48 48 48 47 47 47 47 46 46 46 45 46 45 44 44 45 45 45 45 46 46 46 46 46 46 45 46 45 46 46 48 47 46 46 47 47 48 48 48
47 47 47 47 47 46 46 46 45 45 45 44 44 45 44 43 43 42 43 43 44 43 44 44 45 44 44 44 44 44 44 43 44 43 42 42 43 45 43 44 45 46
46 46 46 45 45 44 44 44 43 44 43 43 42 43 43 43 42 41 41 41 41 41 41 42 42 42 42 42 42 41 41 40 40 39 41 41 40 40 42 42 43 44
44 44 44 44 43 43 43 43 42 42 42 41 42 41 41 41 40 39 38 38 38 38 39 39 39 39 39 40 38 39 38 37 37 38 37 37 39 38 41 41 40 40
43 43 43 43 42 43 42 42 41 41 41 41 40 40 39 37 36 36 36 37 37 38 37 37 37 37 36 36 36 36 36 36 37 36 38 37 38 37 38 38 37 38
42 42 42 42 41 41 42 41 40 40 39 37 36 37 34 36 35 35 34 34 34 35 34 35 35 37 37 37 36 36 36 35 36 36 36 36 33 36 36 35 35 37
41 40 40 40 40 40 39 38 37 37 34 35 36 34 34 34 34 34 34 34 34 34 35 34 35 37 35 36 36 36 36 38 34 35 35 35 34 36 36 36 35 36
39 38 38 38 38 37 37 37 36 35 33 35 34 34 33 34 34 35 34 34 34 35 35 35 35 34 34 34 36 34 34 35 33 33 34 34 35 36 36 35 35 35
38 37 37 37 37 36 36 34 34 33 34 34 33 34 36 35 34 34 35 35 35 35 35 34 35 34 34 33 33 33 34 35 34 32 33 34 34 35 35 34 35 34
36 36 36 36 36 35 34 34 33 33 33 34 34 35 33 34 35 34 34 34 35 34 34 33 33 32 34 34 34 32 32 33 32 33 32 34 34 34 35 34 34 34
35 36 35 35 34 34 33 33 34 34 33 33 33 34 33 33 32 33 31 32 32 32 31 32 32 32 32 33 33 33 32 32 31 32 32 32 33 34 34 34 34 35
35 35 34 34 34 33 33 33 33 33 33 33 31 31 31 31 31 30 31 31 32 31 33 33 33 33 32 32 32 32 32 32 33 33 33 33 33 34 34 34 34 34
34 33 33 33 33 33 33 33 33 33 32 30 30 31 31 31 31 32 31 30 31 31 32 31 31 31 31 31 31 32 32 32 32 33 33 33 33 33 33 33 34 34
34 33 33 33 33 33 33 33 32 30 30 29 29 30 31 30 30 31 30 31 30 31 31 32 33 34 34 33 34 34 32 33 33 33 33 32 32 32 32 32 32 32
33 33 33 33 33 32 31 30 29 29 29 29 30 29 29 29 29 29 29 29 31 31 31 32 33 34 35 38 39 36 34 34 33 32 32 31 31 31 32 32 32 32
33 33 32 32 30 29 28 29 29 28 28 29 29 28 28 28 29 28 29 29 29 29 31 32 33 34 37 39 40 41 37 33 32 32 31 31 31 31 31 32 33 32
32 32 31 30 29 29 28 28 27 27 27 27 27 27 28 27 28 28 28 28 29 29 29 31 31 35 38 39 39 40 40 36 33 32 32 31 31 31 31 32 32 32
31 31 30 30 28 28 27 27 25 25 24 25 26 28 27 27 28 28 28 28 27 28 29 30 29 34 37 38 39 40 40 38 33 32 31 31 31 31 31 31 31 32
30 30 29 28 27 27 27 26 24 26 25 25 25 26 26 27 26 27 27 27 27 28 28 29 29 33 37 38 39 39 39 39 33 32 31 31 31 31 31 31 31 31
29 29 28 27 27 25 24 23 24 24 24 24 24 25 25 26 27 25 27 25 26 25 27 28 30 35 37 38 38 39 39 38 32 31 31 31 31 31 31 31 31 32
28 28 27 26 26 24 23 23 23 23 23 24 24 24 24 24 24 24 25 25 25 25 26 27 29 35 36 37 37 38 39 34 31 31 31 31 31 32 32 32 32 31
27 27 25 24 23 22 21 21 22 22 23 23 23 23 23 23 23 23 24 24 23 24 25 27 26 31 35 36 37 38 36 32 31 30 30 30 31 32 32 32 32 32
26 25 23 22 20 20 21 21 21 20 20 22 22 22 22 22 22 23 22 22 22 23 23 25 26 29 34 35 36 37 36 31 30 29 29 30 30 31 32 32 32 32
24 23 22 20 19 19 20 19 19 20 21 20 20 20 21 22 22 22 21 21 21 23 27 26 25 27 32 34 35 36 34 31 30 29 28 28 29 29 31 31 32 32
23 21 19 18 18 18 18 19 21 21 20 19 19 19 19 19 19 19 20 22 22 23 24 24 25 25 28 34 34 35 35 32 30 27 26 27 28 29 29 30 31 32

ECMWFNIL_sfc_temp_096.txt.gz
Temp
53 52 51 50 49 50 49 48 47 46 44 44 45 43 44 41 41 43 42 43 43 44 44 44 44 44 44 44 43 44 44 43 44 44 43 43 43 42 44 42 41 43
49 49 48 49 48 47 46 45 46 45 43 43 43 42 42 42 41 41 41 42 42 42 41 42 42 42 42 42 41 42 41 42 42 41 41 41 40 40 41 40 40 40
50 51 51 48 46 44 44 43 43 43 43 41 41 42 41 39 40 39 39 39 40 40 40 40 40 41 40 40 40 39 39 39 39 38 38 37 38 39 38 37 38 39
49 49 47 45 44 43 43 43 42 42 41 41 40 40 40 40 38 38 38 37 38 38 37 38 38 38 38 38 38 37 36 36 35 34 35 33 35 34 36 36 35 35
45 44 43 43 42 42 42 42 41 40 40 39 39 38 38 38 37 35 34 34 34 34 35 35 35 35 35 35 34 35 33 33 33 32 32 33 33 33 35 34 33 34
42 42 42 42 41 42 41 40 40 39 39 38 38 36 35 34 34 34 34 34 33 33 33 32 33 32 32 32 32 32 32 32 32 32 33 32 32 32 33 33 33 34
40 41 40 40 40 40 39 38 38 37 37 36 33 34 33 34 34 33 33 33 32 32 32 32 33 32 31 31 31 32 31 32 32 32 33 32 31 33 32 31 32 33
39 39 39 39 39 38 37 35 34 34 34 33 35 31 33 34 34 32 31 31 32 33 32 32 32 32 31 31 32 32 32 32 31 32 32 32 31 32 32 31 31 32
37 37 36 36 36 35 35 34 33 33 32 34 34 33 31 32 32 31 31 31 32 32 32 33 32 32 30 31 31 32 32 32 31 32 32 32 32 33 33 31 32 31
36 35 35 35 35 34 34 33 33 32 32 33 32 31 33 31 30 31 31 32 32 32 32 32 32 31 31 30 32 32 32 33 32 31 31 31 31 32 32 31 32 32
34 35 35 34 34 33 33 32 32 32 32 32 32 32 31 31 32 31 32 32 33 32 31 31 31 31 32 32 31 30 30 31 32 31 31 32 32 32 33 32 32 31
34 34 34 34 33 33 33 32 32 32 31 31 30 32 31 31 31 31 31 30 30 30 30 30 30 30 30 31 31 31 30 29 30 30 31 31 32 32 32 31 31 32
34 34 34 34 33 32 32 32 32 31 32 31 30 32 32 32 30 31 30 30 30 30 31 31 30 30 29 29 31 31 31 31 30 30 31 30 31 32 32 31 31 31
33 33 33 33 32 32 32 31 31 31 31 30 31 32 31 30 30 30 29 29 29 29 29 28 28 29 29 29 29 29 29 29 30 30 30 31 31 31 31 31 32 31
33 32 32 32 32 32 32 31 31 30 30 30 30 30 30 28 29 29 29 30 29 29 29 29 30 31 30 30 31 31 30 30 30 30 31 31 31 31 31 31 31 30
33 32 32 32 32 32 31 30 30 30 30 29 29 28 28 28 27 27 28 28 28 29 28 30 31 31 33 37 38 34 32 32 31 30 30 30 30 30 30 30 30 30
33 32 32 32 31 30 30 30 30 29 29 28 27 27 27 27 27 28 28 27 28 28 28 30 31 31 36 38 39 40 35 31 30 30 30 29 29 29 29 29 30 30
32 32 31 31 30 30 29 28 28 28 27 27 27 26 26 26 28 27 27 27 28 27 28 29 29 33 37 37 39 39 38 34 31 30 30 29 29 28 29 29 29 30
32 32 31 30 29 28 28 28 27 26 24 24 24 25 26 27 26 26 27 27 27 27 27 28 27 32 36 37 38 38 39 36 31 29 29 28 28 28 28 28 29 29
31 31 30 29 28 27 27 26 26 24 23 23 24 25 26 25 25 25 26 26 27 27 26 26 26 31 36 37 37 38 38 37 29 28 28 28 27 28 28 28 28 28
31 30 29 28 27 26 26 25 24 22 23 22 23 24 24 24 24 22 24 23 24 24 25 26 28 33 35 36 36 37 37 35 28 28 28 27 27 27 27 27 28 29
30 29 28 27 26 25 25 24 22 22 21 23 22 23 22 22 22 22 22 22 23 22 24 25 26 32 34 35 36 36 36 30 27 27 27 27 27 27 27 27 27 28
29 28 27 26 25 24 23 22 22 21 21 21 21 21 20 21 21 21 22 22 22 22 22 24 23 29 33 34 35 36 33 27 26 26 26 26 26 27 27 27 27 28
28 27 25 24 23 22 22 21 19 19 18 20 20 19 19 20 21 20 21 21 20 21 23 22 22 27 32 33 34 34 33 27 25 25 24 25 26 27 27 27 28 29
25 24 23 22 22 21 20 19 18 18 18 17 17 17 18 19 19 19 19 19 20 21 25 23 20 24 30 32 33 33 31 25 24 23 23 24 25 25 27 27 27 28
23 22 21 21 20 18 18 18 17 16 17 17 16 17 17 18 17 19 20 22 22 21 20 18 19 19 24 31 31 32 33 28 23 22 22 23 25 25 25 26 27 27

ECMWFNIL_sfc_temp_102.txt.gz
Temp
58 58 58 57 57 57 57 55 54 54 52 50 50 47 47 44 43 42 41 40 40 40 40 40 40 41 41 40 40 40 39 38 39 39 39 38 37 37 37 37 37 37
58 57 57 56 55 54 54 55 53 53 50 49 47 45 43 43 41 40 39 39 39 38 39 39 39 39 39 38 38 38 36 37 37 37 36 36 35 35 35 35 35 35
56 55 55 55 54 53 51 51 51 50 48 46 45 44 42 41 39 38 38 38 38 37 37 37 37 37 37 36 36 35 35 35 34 34 33 33 33 33 33 34 34 33
54 55 55 54 53 51 49 49 47 46 45 44 43 42 41 39 38 37 36 36 36 35 34 35 35 35 35 35 35 33 33 32 30 30 31 31 31 31 31 30 31 31
53 53 52 51 50 49 49 48 46 45 45 42 40 39 38 37 36 34 34 33 33 33 32 33 33 33 33 33 33 33 31 31 30 31 32 31 30 31 30 30 30 31
51 51 50 49 48 48 48 46 44 44 41 40 38 37 37 35 34 34 33 33 32 32 32 32 32 31 31 32 32 31 31 31 30 32 32 31 30 29 30 30 30 30
47 47 46 46 46 46 46 43 42 41 40 38 35 34 34 34 34 34 34 33 33 32 32 32 32 31 30 31 31 31 30 30 31 32 32 30 30 30 30 30 29 30
45 45 45 45 45 43 42 40 39 37 35 35 35 33 34 34 34 33 32 33 32 32 32 31 32 31 30 31 31 31 31 31 31 31 31 30 30 30 30 29 29 30
43 43 43 42 41 39 38 37 35 34 35 35 34 33 32 33 33 32 32 32 32 31 31 31 31 30 30 31 31 31 31 30 30 31 31 30 30 30 29 29 29 28
41 40 40 40 39 38 37 35 34 34 34 35 33 33 32 31 32 32 32 32 31 31 31 31 31 30 30 30 31 31 31 31 30 30 30 30 30 30 29 29 29 28
38 39 40 39 38 36 35 34 34 34 33 34 33 32 32 31 30 31 32 32 32 32 31 31 31 31 31 30 30 30 30 30 30 29 29 29 29 29 30 29 29 28
38 38 38 38 36 35 34 34 33 33 33 32 33 32 31 31 31 30 31 31 30 31 30 30 30 30 31 30 30 29 29 29 29 29 29 29 29 29 29 28 28 28
38 38 38 37 35 34 34 33 33 33 33 32 31 32 31 31 30 30 29 30 30 30 31 31 30 30 30 30 29 30 30 30 30 29 29 28 29 28 29 28 28 28
37 37 36 35 34 34 34 33 32 32 32 31 31 31 31 31 31 30 29 30 30 30 30 29 30 30 29 29 29 30 29 29 29 29 28 28 28 28 28 26 27 27
36 34 34 33 33 33 33 32 32 31 31 30 30 30 31 30 30 30 30 30 29 29 29 29 30 31 30 30 30 30 29 29 29 28 28 28 28 27 26 26 26 26
34 34 33 33 33 33 33 32 32 31 31 30 30 30 30 30 30 30 30 30 29 29 29 30 30 31 34 37 35 30 29 29 29 28 28 27 27 26 26 27 27 26
33 33 33 33 33 33 32 32 31 31 31 30 30 30 29 29 29 29 28 29 29 28 28 29 30 32 37 38 38 36 30 28 28 28 27 27 26 25 25 25 25 25
33 33 33 33 33 32 32 32 31 31 31 30 29 29 28 28 28 28 28 27 28 27 27 28 30 36 38 38 38 36 33 28 27 27 27 26 25 25 25 24 24 25
33 33 33 33 33 32 32 31 30 31 30 29 29 28 27 28 27 27 26 26 27 27 26 27 28 36 37 37 37 36 34 29 26 26 26 26 25 25 24 24 24 24
33 33 33 33 32 31 31 31 30 31 29 28 27 27 27 26 25 26 26 26 26 26 26 26 28 35 36 37 36 35 33 30 25 26 27 27 27 26 25 24 23 23
33 33 32 31 31 30 30 30 30 28 27 27 27 27 26 26 25 25 24 24 25 25 26 27 29 35 36 36 35 34 33 29 26 27 27 27 27 26 25 24 23 24
33 33 32 31 30 30 30 29 28 28 27 25 24 24 24 24 23 24 24 23 24 23 24 25 28 34 35 35 35 33 31 26 26 27 26 26 26 26 26 25 24 23
33 33 31 30 30 29 29 28 27 25 24 24 25 25 25 24 23 22 22 22 22 22 23 24 24 32 34 34 34 32 28 25 25 25 25 25 25 25 24 23 23 23
33 32 31 30 29 29 29 28 26 25 24 25 26 25 24 23 22 21 21 21 22 23 24 24 25 30 33 33 33 31 28 25 24 23 23 24 25 26 26 25 25 26
32 31 31 30 30 30 29 27 26 25 24 23 24 24 22 21 21 22 21 21 22 24 26 25 24 27 32 32 32 31 27 25 23 21 22 23 24 23 25 25 24 24
31 30 30 30 30 28 27 26 24 22 22 23 21 21 21 21 22 22 22 23 23 23 24 24 24 24 27 31 31 31 30 26 24 22 22 23 23 23 22 21 21 21

ECMWFNIL_sfc_temp_105.txt.gz
Temp
61 60 59 59 60 60 59 58 58 56 56 55 55 53 52 49 48 47 46 46 46 46 46 46 46 46 46 45 44 43 41 41 41 41 40 39 39 39 39 39 39 39
60 59 58 59 59 59 59 59 58 57 55 55 54 51 48 46 46 46 45 44 44 45 45 45 45 45 44 44 43 42 40 41 39 39 39 38 37 37 37 37 38 38
59 59 58 59 58 58 57 57 57 57 55 52 50 48 46 46 44 44 44 43 43 43 43 43 43 43 42 42 41 41 40 39 37 37 37 36 36 37 37 37 37 37
58 59 59 59 58 57 57 55 53 53 51 49 48 47 46 44 44 42 42 41 42 41 41 41 41 41 41 40 39 39 38 37 36 37 36 36 36 37 36 37 36 36
57 58 58 58 57 56 55 54 51 50 50 48 45 44 43 43 42 41 40 39 40 39 39 39 39 39 38 38 38 37 36 36 36 37 37 36 36 36 36 37 36 35
56 57 57 56 55 54 53 53 50 49 48 45 44 44 43 42 40 40 39 38 38 38 38 37 37 37 37 37 37 37 37 37 36 37 36 36 35 35 35 36 36 35
53 53 53 53 52 52 52 50 49 47 46 45 42 41 40 40 40 39 39 38 38 38 38 37 37 36 36 36 37 36 36 36 36 37 36 35 35 34 35 35 35 35
51 50 51 50 50 50 49 46 45 45 41 40 41 39 40 40 40 38 38 38 38 37 37 36 36 36 35 36 37 36 35 36 36 36 35 35 35 34 34 34 35 34
48 47 47 47 46 45 44 43 41 40 41 41 39 39 39 40 38 37 37 37 37 36 36 36 36 35 35 36 36 37 35 35 35 36 35 35 34 34 34 34 34 34
45 44 45 45 44 42 41 40 39 39 40 40 39 38 38 37 38 37 37 37 36 35 36 35 35 35 35 36 36 36 35 34 34 35 35 34 34 34 33 34 33 33
42 43 43 43 42 41 40 39 38 39 39 38 38 37 37 36 36 36 36 37 37 36 35 35 35 35 35 34 34 35 35 35 34 34 34 34 34 33 33 33 33 33
41 41 41 41 40 39 39 38 38 38 38 37 38 37 36 36 36 36 37 37 36 36 36 35 35 35 35 34 34 34 34 34 34 34 34 33 33 33 33 33 33 32
40 40 40 39 39 39 38 38 38 37 37 37 37 37 37 36 35 35 36 36 35 35 35 34 34 34 34 34 34 34 34 34 33 33 33 33 33 33 33 33 33 32
40 39 39 38 38 38 37 37 37 37 37 36 36 37 36 36 36 35 34 35 34 34 34 34 34 34 34 34 34 34 34 33 33 33 33 33 32 32 32 32 32 32
38 38 38 37 37 37 37 36 36 36 35 36 36 36 36 36 35 35 34 33 33 33 33 34 34 34 34 34 34 33 34 33 33 32 32 32 32 32 31 31 32 32
37 37 37 37 37 37 36 36 36 35 35 35 35 35 35 34 34 35 35 34 33 33 34 34 34 34 33 34 34 34 33 33 32 32 32 32 31 31 31 31 31 31
37 37 37 37 37 37 36 35 35 35 35 34 34 34 33 33 34 34 34 34 34 34 34 34 35 35 36 37 36 34 33 32 32 32 31 31 31 31 30 30 31 31
37 36 37 36 36 36 35 35 34 34 34 34 33 32 33 33 34 34 33 33 33 33 34 34 35 37 38 37 36 34 33 32 32 31 31 31 31 30 30 30 30 30
37 36 36 36 36 35 35 34 33 33 32 32 32 33 32 33 33 32 32 32 33 32 33 34 36 38 38 37 36 35 33 32 31 31 31 30 30 30 30 30 30 29
36 36 36 36 35 35 34 33 33 33 33 33 31 31 32 31 30 31 31 31 32 32 32 33 35 37 38 36 36 35 33 31 31 31 30 30 30 30 29 29 29 28
36 36 36 35 34 34 33 33 33 32 31 30 31 31 31 30 30 29 30 29 30 31 32 32 34 37 37 36 35 34 33 31 30 30 30 29 29 29 29 29 28 27
36 36 35 34 33 33 33 33 32 31 30 30 30 30 29 29 29 29 27 28 29 29 31 31 34 37 36 35 35 34 32 29 29 29 29 28 28 29 29 29 28 27
36 35 34 33 33 32 32 32 31 30 30 29 29 29 28 28 27 27 27 27 27 28 30 31 32 35 36 35 34 32 29 28 28 27 27 27 28 28 27 27 27 27
35 35 33 32 32 32 32 32 32 30 29 29 29 28 27 27 26 26 26 26 27 27 28 29 30 33 35 34 33 31 28 26 27 26 25 26 26 27 27 27 27 26
35 35 34 33 32 33 32 31 30 29 28 28 29 28 27 25 25 25 24 24 25 25 27 28 29 32 34 33 32 31 28 26 26 25 25 25 25 25 26 26 26 26
34 33 33 33 32 32 31 31 29 27 27 27 27 26 25 25 25 25 23 23 23 24 25 26 28 29 32 33 32 30 29 26 26 25 24 24 24 23 22 24 25 25

ECMWFNIL_sfc_temp_108.txt.gz
Temp
69 70 69 67 67 67 66 65 65 63 61 60 59 59 60 61 59 59 58 58 58 57 56 57 59 58 57 57 57 56 55 53 52 52 51 51 50 49 48 50 50 51
67 68 68 67 66 66 66 66 65 63 61 61 61 62 62 59 56 56 54 53 55 57 58 57 58 57 56 55 53 53 52 52 50 49 50 49 49 49 48 48 48 49
66 66 66 65 65 65 66 66 65 64 63 62 61 61 58 57 54 53 52 53 55 56 58 58 55 56 56 54 53 53 52 50 49 49 50 49 50 50 48 48 48 47
64 64 65 65 65 65 65 64 64 63 62 59 60 58 55 54 54 51 51 51 55 56 57 55 55 55 54 53 53 52 50 50 49 49 48 48 48 48 48 48 47 47
62 62 64 65 65 65 65 63 62 61 58 58 57 54 52 51 51 50 49 51 52 51 52 53 54 53 52 52 52 50 49 48 47 48 48 46 46 46 46 46 45 45
61 62 62 62 63 63 62 62 61 59 57 56 53 53 51 51 51 48 49 50 50 51 51 51 51 50 51 51 51 49 48 47 46 47 46 45 44 45 44 46 45 44
59 60 60 61 61 62 62 61 60 57 57 56 54 51 50 49 49 49 49 49 50 51 50 49 49 48 49 50 50 48 48 46 45 46 45 45 44 43 43 44 45 43
58 59 59 59 60 61 59 59 58 57 55 52 51 46 47 48 48 48 49 48 50 50 49 49 49 49 48 49 48 46 45 44 44 45 45 44 44 43 43 42 43 42
55 55 56 56 56 55 55 54 54 52 50 50 46 43 44 47 47 48 48 48 49 49 49 48 48 47 48 48 47 45 44 43 44 45 45 44 44 43 43 42 42 41
53 52 52 52 52 51 51 49 48 47 47 47 45 44 44 44 45 46 47 48 48 48 48 47 47 46 46 47 46 45 45 44 45 45 45 45 44 43 42 42 42 40
50 50 50 50 50 48 47 45 44 44 44 46 45 45 42 42 44 46 47 48 47 47 47 46 45 45 45 45 45 46 45 44 44 44 44 43 43 42 40 42 41 40
48 48 48 48 47 45 43 43 42 43 43 43 45 45 43 41 42 45 47 48 48 47 46 45 44 44 44 44 44 44 44 44 44 43 43 42 41 41 41 41 40 39
46 47 47 45 44 43 41 41 41 41 41 42 42 43 44 42 43 45 47 47 46 45 45 44 43 43 43 42 42 43 43 43 42 42 41 40 40 39 39 40 39 39
45 44 43 43 42 41 41 41 41 40 40 40 40 41 42 44 44 45 45 46 45 44 43 43 42 42 42 42 42 42 42 42 41 41 40 39 38 38 38 38 38 38
42 41 41 42 40 40 40 40 40 40 40 39 39 39 42 42 43 44 43 43 42 42 41 41 41 41 41 42 41 42 42 41 40 40 39 39 38 38 38 37 37 37
42 41 40 39 39 39 40 39 38 38 39 40 39 39 40 42 42 42 43 41 40 40 41 40 40 40 38 39 40 41 41 40 40 40 40 39 38 37 36 36 36 36
40 41 40 39 39 38 37 38 38 37 37 38 39 39 40 40 41 41 41 41 40 39 39 39 40 38 36 39 38 39 40 40 40 39 40 39 39 38 36 36 36 35
38 38 39 39 38 37 37 37 37 37 36 37 38 38 39 40 40 41 40 40 40 40 40 39 39 36 38 38 38 38 38 41 41 39 38 39 39 38 37 36 36 35
38 38 38 38 38 38 38 36 36 36 36 36 36 38 39 39 40 40 40 40 40 40 40 40 39 37 38 37 37 37 38 39 41 39 38 38 38 37 37 36 36 35
38 38 38 38 37 36 36 36 36 36 36 38 37 37 38 38 38 39 39 39 40 40 40 40 39 37 38 37 36 36 37 38 39 38 38 37 37 36 36 36 36 36
38 38 38 38 38 36 35 35 36 36 35 36 36 36 36 36 36 36 37 37 39 38 39 39 38 37 37 37 36 36 36 37 38 37 37 36 36 36 35 35 35 34
39 39 38 38 37 36 35 35 36 35 35 36 36 37 37 37 37 36 35 35 37 37 38 38 38 37 37 36 36 36 36 36 36 36 36 35 34 34 34 34 33 32
40 39 37 36 36 35 35 35 35 35 35 36 35 36 36 36 35 35 35 35 35 36 36 37 36 36 36 36 36 35 35 35 34 34 33 33 34 33 33 32 32 31
40 39 36 36 35 35 35 36 36 36 35 35 35 34 34 34 35 34 34 34 34 34 36 35 35 35 35 36 35 35 34 33 33 33 31 31 31 32 32 31 30 28
39 38 37 36 35 35 36 35 35 35 35 35 35 35 34 34 33 32 32 33 34 35 34 36 34 34 35 35 34 34 33 33 33 32 30 29 29 28 30 29 29 28
38 36 36 35 35 35 35 35 35 34 33 34 34 35 33 33 33 32 31 32 33 33 33 35 34 34 34 34 34 33 33 32 33 32 29 28 28 28 27 27 27 28

ECMWFNIL_sfc_temp_111.txt.gz
Temp
72 72 72 71 72 71 71 68 68 67 66 66 64 63 62 63 63 62 63 63 62 61 60 60 61 61 61 62 62 63 60 57 57 58 57 56 54 53 52 53 54 54
71 71 71 71 71 70 71 70 69 68 66 66 66 65 64 64 63 62 61 61 60 58 58 58 60 60 61 60 59 61 58 57 55 54 54 53 52 52 52 52 52 52
71 70 70 70 70 69 69 70 69 68 67 67 67 66 64 64 62 62 62 60 58 58 58 59 59 59 59 59 58 56 55 53 51 52 53 52 52 52 51 51 51 50
70 70 70 70 70 69 69 68 67 67 67 66 66 65 64 62 61 61 61 56 59 58 58 58 58 58 57 55 55 55 54 53 52 53 52 52 52 51 50 50 49 49
69 69 69 70 70 69 68 66 65 65 65 66 65 65 62 60 59 59 58 59 59 58 58 56 57 57 56 55 55 54 53 52 51 52 51 49 49 49 49 48 47 46
68 69 69 68 68 67 66 65 65 65 65 64 64 62 61 59 57 56 55 56 56 55 54 54 55 55 55 54 54 52 51 49 50 50 49 47 46 47 47 46 45 44
64 65 65 66 66 65 65 65 64 63 64 64 62 59 59 57 55 54 54 54 53 53 53 52 52 53 53 53 52 50 50 48 48 48 46 45 45 44 44 44 44 44
62 62 63 63 63 63 63 64 63 62 61 61 60 56 56 55 53 52 52 53 52 53 52 52 52 53 52 52 50 49 47 47 46 46 45 44 43 42 43 44 43 42
59 59 60 60 60 60 60 60 60 59 58 57 56 53 52 53 53 52 52 52 51 51 52 51 52 51 50 50 49 47 46 46 46 45 44 43 43 42 42 43 42 41
56 57 57 57 58 58 58 57 56 55 53 55 53 51 50 48 49 50 49 51 51 50 50 50 50 49 49 49 48 47 46 45 45 45 44 44 44 43 42 42 42 41
53 54 54 55 55 55 55 52 51 50 50 51 49 48 48 47 45 46 47 48 48 49 49 49 49 48 48 48 47 46 46 45 45 45 44 44 44 43 41 42 42 41
52 51 52 53 52 50 50 48 46 47 47 46 47 47 45 45 46 45 45 46 47 48 49 49 49 48 47 46 46 45 45 45 45 44 44 43 43 42 42 42 42 40
50 50 50 49 48 46 44 43 44 43 44 44 43 44 43 43 43 44 43 45 47 48 48 47 47 47 47 46 45 45 44 44 43 42 42 41 41 41 41 41 40 40
50 49 48 46 44 43 43 42 41 42 42 42 42 43 43 43 44 44 43 42 42 45 47 47 46 46 45 45 45 44 44 43 42 41 40 40 39 40 40 39 39 39
47 47 46 43 41 41 41 41 41 41 41 40 41 42 42 44 45 46 44 43 42 41 43 45 45 44 44 44 43 43 43 42 41 41 40 38 38 38 38 38 38 37
43 41 41 40 40 40 40 40 40 40 39 39 40 40 40 40 40 42 44 44 43 42 43 43 43 43 41 42 42 43 42 41 41 40 39 39 38 37 36 37 37 36
41 40 39 39 39 39 39 39 39 39 38 39 38 38 39 38 39 40 40 40 43 43 42 42 42 41 40 43 43 43 42 41 40 40 39 38 38 37 36 36 35 33
40 39 39 39 38 38 38 38 37 37 38 38 38 37 37 37 38 39 40 40 42 43 42 42 41 39 41 42 42 42 41 41 41 39 39 39 38 37 36 36 34 33
39 38 39 39 39 38 38 37 37 37 37 37 38 38 38 37 38 38 38 39 41 42 41 41 40 39 41 41 41 42 42 41 40 39 39 39 39 38 37 36 35 34
38 38 38 39 39 38 37 37 36 37 37 37 37 37 38 38 38 37 39 39 41 42 41 40 39 38 40 40 40 41 41 41 40 39 39 39 38 38 37 36 36 35
39 38 38 37 37 37 36 36 37 36 36 36 36 36 37 37 38 37 38 38 40 40 40 39 38 38 39 39 39 40 41 40 39 38 38 38 38 37 37 37 36 36
39 39 38 38 37 36 36 36 37 36 36 36 37 37 37 37 37 37 37 37 39 40 39 38 37 38 38 38 39 40 40 38 38 38 37 36 36 36 36 36 36 36
39 38 38 36 36 35 35 35 35 36 36 36 36 36 36 36 36 37 37 37 37 38 38 37 36 37 38 38 38 39 38 37 36 36 35 35 35 35 35 35 34 35
40 39 37 36 35 35 35 35 36 36 35 36 36 36 36 36 37 37 37 37 37 37 38 36 35 36 37 37 38 39 37 35 36 35 33 33 33 34 34 33 33 32
40 39 37 36 35 35 35 35 35 35 35 36 36 36 36 36 37 36 36 36 36 36 35 36 35 35 36 37 38 38 37 35 36 34 32 32 31 31 32 31 31 30
38 37 36 36 35 35 35 35 36 35 35 35 36 36 36 36 36 35 34 35 35 35 35 36 35 34 35 37 37 37 37 36 36 34 32 31 30 30 29 29 29 29

ECMWFNIL_sfc_temp_114.txt.gz
Temp
67 66 66 65 65 65 65 65 65 65 64 64 63 63 63 63 62 61 61 61 60 60 60 60 60 59 59 58 57 57 55 53 53 52 51 50 48 48 48 47 46 45
67 66 65 65 65 65 66 66 65 65 65 64 63 62 62 61 61 61 61 60 59 59 59 59 58 58 58 58 56 55 52 51 51 51 50 48 47 47 46 45 45 45
67 66 66 65 65 65 65 66 65 65 64 64 63 62 61 60 60 60 60 60 58 57 57 57 57 56 57 56 55 53 51 51 50 48 48 46 45 45 44 44 44 44
66 66 66 66 66 65 65 64 63 64 63 62 62 62 62 61 59 59 59 56 58 56 56 56 56 56 55 55 54 52 52 51 48 47 45 45 44 44 43 44 43 42
64 65 65 65 65 64 63 64 63 63 63 63 62 63 61 60 59 58 57 55 56 55 54 55 55 55 54 53 53 51 49 46 45 45 44 43 43 43 42 42 41 40
61 62 62 62 62 62 61 62 62 62 62 61 62 61 61 60 59 57 56 55 54 54 54 54 54 53 52 51 50 48 45 44 44 44 42 41 41 41 42 41 40 39
59 59 59 60 59 60 60 60 61 60 61 62 59 60 60 58 57 57 56 55 54 53 53 53 52 51 50 50 47 45 44 43 42 42 41 39 39 39 38 39 39 38
55 55 57 58 59 57 59 59 59 59 59 57 57 57 56 57 56 55 54 54 53 53 53 52 52 51 49 48 46 45 44 44 42 40 39 37 38 38 37 39 38 37
54 54 54 54 54 54 55 56 56 56 56 57 56 54 54 55 54 53 53 53 53 52 52 51 51 49 49 48 47 46 44 43 41 39 39 38 38 37 38 37 37 37
52 52 52 51 53 54 54 54 53 54 54 55 54 53 52 51 52 53 52 51 51 50 50 49 48 47 47 47 47 45 44 42 40 39 39 38 38 37 37 37 37 36
50 50 52 53 54 54 53 52 51 51 52 54 52 52 52 50 49 49 50 50 50 49 49 48 47 47 47 46 45 44 43 42 40 39 38 38 38 38 38 37 36 36
49 49 50 51 52 51 51 50 49 48 50 49 51 51 49 49 49 48 48 49 49 49 48 47 46 46 46 45 44 43 41 40 39 39 38 38 37 37 37 37 37 36
47 47 48 48 48 48 47 46 46 44 47 47 46 48 47 46 45 47 46 48 48 47 46 45 45 44 42 44 43 43 41 39 39 38 38 37 37 37 37 36 36 36
45 45 46 46 44 43 43 42 41 41 42 41 41 44 44 44 45 45 44 44 45 46 46 44 44 43 43 43 43 43 41 39 39 38 37 37 36 36 36 36 36 36
45 45 44 41 41 41 41 41 41 40 39 40 40 40 42 42 43 44 42 42 42 42 43 42 43 43 43 43 42 41 40 39 39 38 37 36 35 35 35 35 35 35
42 42 42 40 40 40 39 39 39 39 39 39 40 40 40 40 41 41 42 43 42 41 41 41 42 43 40 41 42 42 41 39 38 38 37 36 35 34 33 34 33 33
39 38 37 38 38 38 37 38 38 38 38 38 38 38 39 38 39 40 40 40 41 42 42 42 43 42 40 43 43 43 41 39 38 37 36 36 35 35 33 33 31 31
37 37 37 37 37 37 37 37 36 37 37 37 37 37 37 37 38 39 39 39 39 39 40 42 42 40 42 43 43 43 41 40 38 37 36 36 35 34 34 33 31 30
37 37 37 36 36 36 36 36 36 36 36 36 37 36 36 37 38 38 38 37 38 39 38 38 39 40 42 43 43 43 42 40 38 37 36 35 35 34 33 32 31 30
37 37 37 37 36 36 35 35 35 36 35 35 35 35 37 37 36 37 37 37 37 38 37 37 37 39 42 42 42 42 42 40 37 37 36 36 35 34 34 32 31 30
37 37 36 36 36 35 35 35 35 35 35 35 36 36 36 37 37 36 37 37 36 36 36 36 38 39 41 42 42 42 42 40 37 36 36 35 35 35 34 33 32 32
37 37 36 36 35 35 35 35 35 35 35 35 35 35 36 36 36 36 36 36 36 36 36 35 35 39 41 41 42 42 42 36 36 35 35 34 34 34 34 33 33 32
37 37 36 35 35 35 34 34 35 35 35 35 35 35 35 35 35 36 36 36 35 35 35 35 35 38 40 41 41 42 39 35 34 34 34 34 34 34 33 33 33 32
37 37 35 35 34 34 34 34 34 35 35 35 35 35 35 35 35 35 35 35 35 36 36 35 35 36 39 40 41 41 38 35 35 34 32 32 32 32 32 32 32 32
37 37 36 35 35 34 35 34 34 34 35 35 35 35 35 35 35 35 35 35 35 35 35 36 35 35 38 39 40 40 38 34 34 33 31 31 30 30 30 30 31 31
37 36 35 35 35 34 34 35 35 34 34 34 34 35 35 35 35 35 34 35 35 35 35 35 35 35 36 39 39 40 38 35 34 33 31 29 29 29 27 27 27 28

ECMWFNIL_sfc_temp_117.txt.gz
Temp
64 64 63 63 64 64 64 63 63 63 63 62 62 62 62 63 61 62 61 61 60 61 60 60 59 60 59 58 58 57 57 56 54 53 54 52 51 50 49 46 46 47
64 64 62 63 63 62 63 64 63 63 63 63 63 62 62 61 61 61 60 60 59 60 60 59 59 60 59 58 57 57 55 54 54 52 52 51 50 50 49 46 45 44
64 63 63 62 63 63 63 63 63 63 63 63 63 62 62 60 60 60 60 60 59 58 58 58 59 58 58 57 57 55 54 53 53 51 51 51 50 50 48 46 44 44
63 64 64 63 63 63 63 62 62 62 62 61 62 61 61 59 59 59 59 56 59 58 57 57 58 57 57 56 55 54 54 54 53 51 50 48 47 47 44 44 43 41
63 63 63 63 63 63 62 62 61 61 61 61 60 58 57 58 57 57 57 56 57 57 55 55 56 55 56 55 55 53 52 52 49 49 48 47 44 45 43 43 41 40
60 62 62 61 61 60 60 60 61 60 60 59 59 57 59 59 58 56 55 55 55 54 54 53 53 54 55 55 54 53 51 49 48 48 47 46 43 43 43 42 41 39
57 57 58 59 57 58 58 59 59 57 59 59 57 57 58 57 57 57 57 56 54 53 54 54 54 53 54 54 53 51 50 49 46 46 46 43 43 41 39 39 39 39
55 54 56 56 56 56 56 57 57 56 57 55 56 56 56 57 57 57 56 56 55 54 54 53 54 54 53 52 51 49 47 47 45 45 44 42 41 41 38 39 38 38
51 51 52 51 53 53 54 54 54 53 54 56 55 55 55 56 56 56 56 55 55 54 54 53 53 52 52 51 50 49 47 46 45 44 43 41 40 40 38 37 37 37
48 45 47 47 50 48 50 49 50 51 52 55 55 54 55 54 56 56 55 55 54 53 53 53 52 51 50 49 50 48 47 46 44 43 42 41 41 39 38 37 37 36
47 47 48 47 47 45 47 47 48 49 51 54 53 53 54 53 53 54 54 53 53 53 52 52 51 51 49 48 48 47 47 45 43 43 42 41 41 39 38 37 37 37
47 48 48 48 47 46 46 47 49 49 51 50 53 54 52 52 53 52 52 52 52 52 52 52 51 50 49 48 46 44 45 44 43 43 42 41 40 39 38 38 37 37
44 44 45 46 45 45 45 45 47 47 49 50 48 52 51 50 49 51 50 52 52 52 52 51 50 48 47 46 44 43 43 42 41 40 40 40 39 39 38 37 37 36
41 43 45 44 44 45 45 45 45 45 47 47 45 50 50 50 51 51 50 50 51 51 51 49 48 47 45 43 42 41 41 40 39 38 38 39 39 39 38 37 36 36
42 41 40 39 41 42 42 43 43 43 42 42 42 44 47 47 48 48 46 46 45 46 46 45 46 46 45 43 41 40 40 39 39 38 39 39 38 37 36 36 35 36
42 42 43 41 40 41 40 39 40 40 40 40 41 41 41 41 42 42 42 43 44 43 42 43 43 44 40 41 42 42 41 41 40 40 40 39 37 36 34 34 34 35
41 41 41 41 39 38 37 37 38 37 38 38 39 38 39 38 38 39 39 39 41 41 41 41 42 43 40 42 43 43 41 41 40 39 39 38 38 37 35 34 34 34
39 39 39 39 38 38 37 36 36 36 36 37 36 37 37 37 38 39 39 38 39 39 40 40 41 41 42 42 43 42 40 38 37 36 38 38 38 37 36 35 34 33
38 38 38 37 37 37 36 36 36 36 36 36 37 36 35 37 38 38 38 37 38 39 39 39 39 40 41 42 42 42 41 40 39 39 38 38 38 37 36 35 33 33
37 37 37 36 35 35 35 35 36 36 35 35 35 35 36 36 36 37 37 37 38 39 39 38 38 38 41 41 41 41 41 41 39 39 39 38 38 37 36 35 34 33
37 37 36 35 35 35 35 35 35 35 35 35 35 36 36 37 37 37 37 37 37 37 37 37 37 39 41 41 41 41 42 39 35 37 38 37 37 36 35 35 34 34
37 36 35 35 35 35 35 35 35 35 35 35 35 35 35 35 36 36 36 36 36 36 36 36 35 39 40 41 41 41 41 36 34 36 37 36 35 35 35 34 34 34
36 36 35 35 35 35 35 34 35 34 35 35 35 35 35 35 35 35 35 35 35 36 37 37 35 38 39 40 41 41 39 36 36 36 36 36 35 35 35 34 34 33
36 36 35 35 34 35 35 34 34 34 34 35 35 35 35 34 35 35 35 35 35 35 36 35 35 36 39 40 40 41 39 36 36 36 35 34 34 34 33 32 32 32
36 36 35 35 34 34 34 34 34 34 34 34 35 35 34 34 34 34 34 34 35 35 35 35 34 34 38 39 40 40 39 36 36 35 33 33 32 31 31 31 31 31
37 35 35 35 34 34 34 34 34 34 34 34 34 34 34 34 34 34 34 34 34 34 34 35 34 34 36 39 39 40 39 36 35 35 34 32 31 30 29 28 29 30

ECMWFNIL_sfc_temp_120.txt.gz
Temp
63 62 62 62 63 63 63 62 62 62 62 62 62 62 62 63 61 61 61 61 61 61 61 61 60 59 59 58 58 58 57 57 57 57 57 57 56 55 53 52 50 51
63 62 61 61 62 61 62 62 62 62 62 62 62 62 62 61 61 61 61 61 60 61 61 61 60 60 59 58 58 58 58 57 57 56 57 56 56 55 54 52 50 50
63 62 62 61 61 61 61 62 62 62 62 62 62 61 61 60 61 60 61 61 60 60 60 60 60 59 59 59 58 58 58 57 56 55 55 55 54 53 53 51 50 49
62 62 62 62 62 62 62 61 61 62 61 60 60 60 60 59 59 59 60 57 60 59 59 59 59 59 59 59 59 58 58 57 57 55 54 53 52 52 51 50 49 47
62 62 62 62 62 62 61 61 60 60 60 60 60 58 57 58 58 58 58 58 58 59 58 58 59 59 59 58 58 57 56 56 54 53 53 52 51 49 48 47 46 45
60 61 61 61 61 60 60 60 60 60 60 59 59 57 58 59 58 58 57 57 56 57 58 58 58 58 58 58 57 57 55 54 52 52 51 50 47 45 48 46 45 45
58 58 59 60 59 60 59 59 60 58 59 59 57 58 58 57 57 58 57 56 56 56 57 57 57 56 56 56 55 55 54 54 51 51 51 49 48 45 45 44 44 44
56 54 56 56 57 58 57 59 59 58 58 56 56 58 57 58 58 57 56 56 56 56 57 57 56 57 55 55 54 53 53 53 51 49 50 49 47 46 44 45 44 43
51 52 53 53 55 55 55 56 56 55 55 56 56 56 55 57 57 56 55 55 56 56 57 56 56 56 55 54 54 54 53 51 50 49 49 48 46 46 44 43 42 42
48 47 48 49 51 52 52 52 52 53 53 54 55 54 54 54 55 56 55 55 56 55 56 55 55 54 53 52 53 51 51 51 49 49 49 49 47 46 43 42 42 41
46 46 48 48 49 48 49 49 48 49 49 52 52 52 53 53 53 55 55 56 56 55 55 54 53 53 53 51 51 51 51 51 49 49 48 48 47 45 42 43 42 42
45 45 47 47 47 45 45 44 46 46 49 49 51 54 52 53 54 54 55 55 55 55 55 54 53 52 52 52 51 50 50 50 49 47 47 46 44 43 42 42 41 40
45 46 45 44 43 44 43 43 44 45 48 50 50 53 53 52 52 53 53 54 55 54 54 54 54 52 51 50 50 50 49 47 44 43 43 42 42 41 40 40 40 39
44 42 41 42 42 42 43 43 43 44 45 46 45 50 51 52 52 52 51 51 52 53 53 52 51 49 49 50 50 48 46 43 42 41 40 39 38 38 38 38 39 39
40 40 40 41 41 42 43 43 43 43 43 43 43 44 47 47 48 48 47 47 46 47 48 48 49 49 48 48 48 45 44 43 42 40 40 39 38 37 37 37 37 37
38 39 39 39 40 41 41 40 40 40 41 41 41 41 42 42 43 44 44 45 45 43 43 45 46 47 43 44 44 45 43 43 41 40 39 38 37 36 36 36 36 36
39 40 40 40 40 39 38 39 39 38 39 40 39 40 40 39 40 41 41 40 43 43 42 43 44 44 41 44 44 43 42 41 40 39 38 38 37 37 37 37 37 38
40 40 40 40 40 39 37 36 36 37 38 37 37 38 38 37 39 40 39 39 40 40 39 39 39 40 42 42 43 43 41 40 39 38 37 37 37 36 36 35 34 36
38 38 38 38 38 38 36 35 36 36 37 37 38 36 35 37 37 37 38 37 38 39 38 38 38 40 42 42 42 42 42 40 39 38 38 37 37 37 36 35 34 34
38 38 38 38 37 36 35 35 36 36 36 35 35 35 36 36 36 36 36 36 37 38 38 38 38 39 41 41 41 42 42 40 37 38 37 37 37 37 37 36 35 36
38 37 37 36 35 35 35 35 36 36 35 34 35 35 35 36 36 36 36 36 37 37 37 37 38 39 40 41 41 41 41 40 37 37 37 36 36 36 36 36 35 34
37 36 36 35 35 34 35 35 35 35 35 34 34 34 34 35 35 35 36 35 35 36 37 36 36 39 40 40 41 41 41 37 36 36 35 35 35 35 35 34 34 33
36 36 35 35 34 34 34 34 34 35 34 34 34 34 34 34 34 34 35 35 35 35 35 36 35 37 39 40 40 41 39 35 35 35 35 34 33 33 35 35 35 34
36 36 35 34 34 34 34 34 34 34 34 34 35 34 34 34 34 34 34 34 34 35 35 35 35 35 38 39 40 40 38 35 35 35 34 34 34 35 35 35 34 33
36 35 35 35 34 34 34 34 34 34 34 34 34 34 34 34 34 34 34 34 34 34 34 35 34 34 37 38 39 40 37 35 36 35 34 34 34 33 34 34 34 33
36 35 35 35 34 34 34 34 34 34 34 34 34 34 34 34 34 34 33 33 33 34 34 34 34 34 35 38 39 39 38 36 36 35 35 34 33 33 32 32 32 32

ECMWFNIL_sfc_temp_123.txt.gz
Temp
62 62 62 62 62 63 63 63 63 63 63 63 62 62 61 61 59 60 60 60 60 60 60 60 59 59 59 58 58 57 57 58 57 57 57 56 56 56 56 55 54 54
62 62 60 61 61 61 62 63 63 63 63 63 63 63 62 60 60 60 60 60 59 59 60 60 59 59 59 58 58 58 58 58 57 57 57 57 57 57 57 56 55 55
61 61 61 60 61 61 61 62 63 63 63 62 62 62 62 60 61 60 60 60 59 59 59 60 60 60 60 59 59 58 58 58 57 57 56 57 57 57 57 56 55 53
61 61 61 61 61 61 61 60 61 62 62 61 61 61 61 60 59 60 60 56 60 59 59 59 60 60 60 60 59 58 58 58 58 58 57 56 56 56 56 56 54 52
60 61 61 61 61 61 60 60 61 61 61 61 61 59 58 59 58 59 59 59 59 60 59 59 60 60 60 59 59 58 58 58 58 58 57 56 56 55 55 54 52 51
59 60 60 60 60 60 60 60 61 61 61 60 60 58 58 58 57 57 57 57 57 59 59 59 59 59 59 59 58 58 58 57 57 57 56 55 55 53 52 50 50 49
58 58 59 59 59 59 59 59 60 58 60 60 58 59 58 56 56 57 57 56 57 57 58 59 58 58 58 58 57 57 57 57 56 55 55 54 54 52 51 50 50 49
57 54 56 57 57 58 58 59 59 59 59 57 58 59 57 57 57 57 56 56 57 57 58 58 58 59 58 57 56 56 56 56 55 53 53 53 50 50 49 48 48 48
53 53 53 53 55 56 56 57 57 55 55 56 56 56 55 57 58 58 58 57 57 57 57 57 58 57 57 56 56 56 55 54 53 52 53 53 53 52 51 47 46 46
51 50 49 50 51 53 53 54 54 53 53 55 56 56 56 56 57 58 57 57 56 56 56 56 56 56 56 55 56 56 55 55 55 53 53 53 53 52 50 46 46 44
48 48 50 50 50 50 51 51 51 51 51 53 54 54 55 55 54 55 56 56 56 55 56 55 55 55 55 54 55 55 55 55 55 53 51 48 47 47 46 44 43 43
46 46 48 49 49 49 49 48 47 47 49 49 50 53 52 52 54 54 54 55 55 56 56 56 55 55 55 54 53 52 52 51 48 48 49 50 50 49 47 45 44 43
45 46 46 47 47 48 46 46 46 46 47 48 47 49 50 50 51 53 52 54 55 55 55 55 55 55 54 54 53 51 50 49 49 47 46 44 44 44 43 42 42 41
45 44 44 45 45 44 44 43 42 42 45 46 45 48 49 50 51 52 52 52 53 54 54 53 53 52 51 51 50 50 49 48 48 46 44 41 41 40 40 40 40 39
42 41 41 42 41 42 42 42 41 41 41 41 42 45 46 47 48 49 50 50 49 49 49 48 49 49 49 48 49 49 48 48 47 44 41 40 39 38 38 38 38 38
40 40 41 40 41 42 41 40 40 40 40 40 40 41 41 41 43 44 45 46 45 44 44 45 45 46 44 44 45 47 46 44 43 40 40 39 39 37 37 37 38 37
39 40 40 40 39 37 37 38 39 38 39 39 39 39 40 39 39 41 40 40 42 42 42 42 44 44 43 44 44 44 43 42 42 40 39 38 39 39 38 36 36 36
39 39 39 39 38 37 36 35 35 37 38 38 38 38 37 36 38 38 38 38 39 39 39 39 40 40 43 43 43 43 42 42 40 39 39 39 38 38 37 36 35 35
39 39 39 38 37 37 35 35 35 36 36 37 37 35 35 37 36 37 37 36 37 38 38 37 38 40 41 42 42 43 42 41 40 39 38 38 38 37 37 36 35 34
38 38 38 37 36 36 35 35 36 35 34 34 34 35 35 35 35 35 35 36 36 37 37 36 37 38 41 41 41 42 42 41 38 39 38 37 37 37 37 36 35 35
38 37 37 36 35 35 35 35 35 34 34 34 35 35 36 36 35 35 35 35 35 36 36 36 36 39 40 40 41 41 42 40 36 37 37 37 37 36 37 36 36 36
37 36 36 35 35 34 35 35 35 35 35 34 34 34 34 34 34 34 35 35 35 35 36 36 35 39 39 40 41 41 42 36 36 36 36 36 36 36 36 36 36 35
37 37 36 35 35 35 35 34 34 34 34 34 34 34 35 35 34 34 34 35 34 35 35 35 34 37 39 39 40 41 39 35 36 35 35 35 35 34 34 34 34 34
37 37 36 35 35 35 35 34 34 34 34 35 35 35 34 34 34 34 34 34 34 35 35 35 34 35 38 39 40 40 38 35 35 35 34 34 34 34 34 34 34 34
37 37 36 35 35 35 35 34 34 34 34 34 34 35 34 34 34 34 34 34 34 34 34 35 34 34 37 38 39 40 37 35 35 35 34 34 34 33 34 34 34 33
37 36 36 35 36 35 35 35 34 34 34 34 34 35 34 34 34 34 34 34 33 34 34 34 34 34 35 38 39 39 38 35 35 35 35 34 34 33 32 33 33 34

ECMWFNIL_sfc_temp_129.txt.gz
Temp
64 64 64 63 64 64 64 63 63 62 62 62 62 62 61 61 60 60 60 60 60 60 60 60 60 60 60 60 60 60 59 59 60 60 59 59 59 59 58 58 58 58
63 63 63 63 63 63 64 64 63 63 62 62 62 63 61 60 59 60 59 59 59 59 60 59 60 60 60 59 59 59 58 59 58 59 58 58 58 59 58 58 59 59
62 62 61 61 62 62 62 63 63 63 63 63 62 62 61 60 60 60 60 60 59 59 59 59 60 59 59 59 59 58 58 58 58 58 57 58 58 58 58 58 58 58
61 61 62 61 62 62 62 61 61 62 62 61 61 61 61 60 60 59 59 57 60 59 59 59 59 60 60 60 58 58 58 58 59 59 57 57 57 58 58 58 57 57
61 61 61 62 61 62 61 61 61 61 61 61 62 61 60 59 59 59 59 59 60 59 59 59 60 59 59 59 59 58 58 58 58 58 57 57 57 57 58 58 57 57
61 61 61 61 61 61 60 60 61 61 61 60 61 60 60 60 60 59 59 59 58 59 59 59 59 59 60 59 59 58 58 57 57 58 57 57 57 57 57 57 56 56
60 60 60 61 61 61 60 60 61 60 61 61 60 60 60 59 59 60 60 59 59 59 59 59 59 59 59 59 58 58 58 58 58 57 57 56 56 56 56 57 56 56
60 60 60 60 60 60 60 60 61 60 60 60 59 60 60 60 60 60 59 59 59 59 59 59 59 60 59 58 58 58 58 58 57 56 56 56 56 56 55 55 55 55
58 58 58 58 58 58 58 59 59 59 59 59 59 59 59 60 60 60 59 59 59 59 59 59 59 59 59 58 58 57 57 57 57 57 56 56 55 55 56 55 54 53
55 56 54 55 56 57 57 58 58 58 57 58 59 59 58 58 59 60 59 58 58 58 58 58 58 58 58 57 58 57 57 58 57 56 56 56 56 56 55 55 53 52
53 53 53 53 54 55 55 56 56 55 54 56 57 58 58 57 57 58 58 58 58 58 57 57 57 57 57 57 57 58 57 57 57 56 56 55 56 56 51 53 52 52
51 50 51 53 53 53 53 53 53 53 54 54 56 58 57 57 57 57 57 57 57 58 58 57 57 57 57 57 57 56 56 56 56 55 55 55 54 55 55 53 53 53
50 50 51 51 51 51 50 49 51 52 52 54 53 55 56 56 56 56 55 56 57 57 57 57 57 57 57 56 56 55 54 54 54 54 54 53 54 54 53 52 52 51
49 48 49 50 49 49 49 49 49 49 51 51 51 52 54 55 55 55 55 55 56 56 57 56 56 56 55 55 54 54 54 53 53 53 52 52 50 51 50 49 48 48
45 45 46 46 46 47 47 48 48 48 48 48 49 50 51 52 54 54 54 53 54 55 55 54 54 54 54 53 53 53 53 53 52 52 51 50 48 46 44 44 44 44
43 43 44 45 45 46 46 45 45 45 45 45 47 47 48 48 49 50 51 52 51 51 51 51 52 53 47 47 48 52 52 52 51 50 49 48 45 43 41 40 40 40
40 42 42 43 44 45 44 43 44 43 43 43 44 44 45 44 44 46 46 48 49 50 49 49 50 50 45 46 46 47 50 50 49 48 47 45 44 43 42 39 38 38
40 41 41 42 42 42 42 42 41 41 42 42 42 42 42 41 42 44 45 44 46 46 47 47 48 44 45 45 45 46 45 49 48 47 45 43 42 42 41 39 38 37
40 40 40 40 41 41 41 40 40 40 41 41 41 41 40 41 43 43 43 43 44 45 44 44 44 43 44 44 44 45 45 45 47 46 42 41 41 42 40 39 37 37
39 39 40 40 40 40 39 39 40 41 41 40 40 38 40 41 40 41 42 42 42 43 43 42 42 41 43 43 43 43 44 44 45 43 41 40 40 40 39 38 37 37
39 39 39 40 39 39 39 40 40 40 39 39 39 39 40 40 40 40 39 39 40 40 41 41 41 40 42 42 43 43 43 43 41 40 39 38 38 38 38 38 38 39
38 38 39 39 39 39 39 40 40 39 39 37 37 38 38 38 38 38 39 38 38 39 39 40 38 39 41 41 42 42 42 39 39 38 38 37 37 37 37 37 37 37
39 39 39 39 39 39 39 39 39 38 37 36 37 37 37 37 37 37 37 38 37 37 39 39 37 38 39 40 41 42 40 38 37 37 37 37 37 37 37 37 37 38
39 39 39 39 39 39 39 39 38 37 37 36 38 37 37 36 37 36 36 37 37 37 38 39 37 36 38 39 40 41 39 38 38 37 36 36 36 36 37 37 36 34
40 40 39 39 39 39 39 38 37 37 37 36 37 37 37 36 36 37 36 36 36 37 35 38 37 36 37 39 40 40 39 37 38 37 36 35 35 35 35 35 35 34
39 39 39 39 38 38 38 38 37 37 37 36 36 38 37 37 36 36 36 35 34 35 35 36 36 36 36 39 39 39 39 37 38 38 36 35 35 35 35 34 34 35

ECMWFNIL_sfc_temp_132.txt.gz
Temp
70 70 70 70 70 71 71 70 71 70 70 71 70 71 70 71 71 70 69 69 69 69 69 68 68 67 67 67 66 66 66 66 66 66 65 65 65 64 64 64 65 66
70 70 70 70 70 70 71 72 71 71 70 71 71 71 71 70 69 69 68 68 68 68 69 68 68 67 66 66 65 64 64 64 64 64 64 63 63 63 63 64 64 64
70 69 69 69 69 70 70 71 71 71 71 71 71 71 70 70 69 69 68 68 68 68 67 68 68 67 66 66 65 64 63 62 62 63 62 62 63 62 62 62 62 62
69 70 69 69 70 70 71 70 70 71 71 70 70 70 70 68 69 68 67 65 67 67 67 67 67 67 66 66 65 64 63 62 62 62 61 61 61 61 61 61 61 62
69 69 70 70 70 70 70 69 69 70 70 70 70 70 69 69 68 68 67 67 67 67 67 67 67 67 66 65 64 63 62 61 61 61 60 59 59 59 60 60 59 58
69 70 70 69 69 69 69 69 69 69 69 69 69 70 70 69 68 67 66 66 66 66 66 66 66 66 66 65 63 62 62 61 61 60 58 58 58 59 59 59 58 57
68 69 68 69 69 69 69 69 69 69 69 69 70 69 69 68 67 67 66 65 65 65 66 65 65 64 63 62 61 61 60 60 59 59 58 57 57 57 58 58 58 57
68 69 69 69 68 68 68 68 68 69 69 69 68 69 69 68 67 66 65 65 65 65 65 65 64 63 62 61 60 59 59 59 59 58 57 58 57 56 58 58 57 56
68 68 68 68 67 67 67 67 67 68 69 67 67 68 68 67 66 66 65 65 64 64 65 64 62 62 61 60 59 58 58 58 58 58 57 57 57 57 58 58 56 56
66 66 66 66 66 66 66 66 66 66 67 66 66 66 65 65 66 66 64 63 62 62 62 62 61 60 60 59 60 59 58 58 57 58 58 58 57 58 57 56 56 55
64 65 65 65 65 66 66 66 65 65 65 64 64 64 63 63 63 64 63 62 61 61 61 60 60 61 60 59 59 59 59 58 58 58 58 58 58 58 53 58 57 56
62 63 63 64 65 66 66 66 66 65 64 62 63 63 62 61 61 61 61 61 60 61 61 61 61 59 59 59 59 58 58 58 58 58 58 58 58 58 58 57 57 56
61 62 62 63 63 64 65 65 65 64 63 62 61 61 61 60 60 60 59 60 60 60 61 61 60 59 58 59 59 59 58 57 57 57 58 57 57 57 57 57 56 56
60 61 61 61 62 63 63 63 63 63 63 63 60 59 59 60 60 59 59 58 59 59 60 60 59 58 58 58 58 58 58 57 57 57 56 56 55 56 56 56 55 55
56 57 58 57 57 57 57 58 58 59 59 59 58 57 58 59 59 58 58 57 57 58 58 58 58 58 58 58 58 58 58 57 57 56 55 54 54 53 52 53 52 52
54 53 52 51 51 52 53 53 53 52 53 53 54 55 55 55 56 56 56 56 56 56 56 57 57 58 52 49 50 57 57 56 56 55 54 54 53 50 48 47 47 48
51 50 50 49 50 50 50 49 50 48 48 48 49 49 50 50 51 53 53 55 55 55 55 55 56 55 48 48 48 49 54 56 54 54 53 52 50 49 47 44 43 44
49 49 47 46 47 48 48 46 46 45 46 46 46 46 46 45 47 49 51 51 52 52 53 54 54 47 47 47 47 47 47 53 54 53 51 51 48 48 47 45 43 41
48 47 45 44 44 45 45 45 45 44 44 44 45 45 44 45 46 46 46 46 48 49 49 49 49 46 46 46 46 46 46 48 53 52 50 48 47 46 45 44 42 41
47 45 44 44 43 43 43 43 43 44 44 44 43 43 43 43 44 44 44 44 45 46 46 46 47 44 44 45 45 45 45 46 52 50 48 46 45 45 44 43 42 42
46 44 43 43 42 41 41 42 42 42 43 43 43 43 43 43 44 43 43 43 43 44 45 45 46 43 43 44 44 44 44 45 49 47 45 44 43 43 43 42 42 43
46 45 43 42 41 41 41 41 41 41 42 42 41 42 42 43 42 43 43 43 43 43 44 45 45 42 42 42 43 44 44 45 45 43 42 41 41 41 42 41 40 40
46 44 42 41 40 40 40 40 41 40 41 42 41 42 42 42 42 42 42 43 42 42 43 44 44 41 40 41 42 43 43 43 41 41 41 41 40 40 40 40 40 41
47 45 43 41 41 40 40 41 42 43 42 40 42 41 41 42 42 41 40 40 41 41 42 43 43 39 39 40 42 42 42 42 41 40 39 40 39 39 40 40 41 36
48 45 42 41 40 40 41 40 40 40 41 39 41 43 42 42 39 41 39 39 39 40 37 41 42 39 38 40 41 41 41 41 41 40 39 38 38 37 38 39 39 36
47 44 42 41 39 40 41 41 40 40 40 40 39 41 40 41 41 40 39 39 37 38 37 39 41 39 39 39 40 41 41 41 41 42 40 38 38 38 37 36 37 39

ECMWFNIL_sfc_temp_135.txt.gz
Temp
72 72 72 72 72 72 73 72 73 73 73 73 73 73 72 72 72 71 70 70 70 70 70 70 70 69 69 70 70 69 69 69 69 70 69 68 68 67 65 66 66 67
72 72 71 72 71 72 73 73 73 73 73 73 74 74 74 73 72 71 70 69 69 69 70 70 70 69 69 69 69 68 68 68 68 68 67 67 67 67 66 66 66 67
72 71 71 71 71 71 72 73 73 73 73 73 74 74 73 73 72 71 71 70 70 70 70 70 69 69 69 68 68 67 66 66 66 67 65 65 65 65 65 65 65 65
72 72 72 71 71 71 72 72 72 72 73 72 72 73 73 72 72 71 70 67 70 69 70 70 69 69 69 68 67 66 66 65 66 66 65 64 64 64 64 64 64 63
72 72 72 72 71 72 72 71 71 71 71 72 72 72 72 72 70 70 69 69 69 69 69 69 69 69 68 67 66 65 64 64 64 64 63 62 63 63 62 62 61 60
72 72 72 71 71 71 71 70 71 71 71 71 71 72 72 71 70 69 69 68 68 68 68 68 68 68 67 66 66 65 63 62 63 63 61 60 60 61 61 61 60 58
70 71 71 72 71 71 70 70 71 71 71 71 72 71 71 70 70 69 69 68 67 67 67 68 68 68 67 66 65 64 63 63 62 61 60 59 59 59 59 59 58 57
70 71 71 71 70 70 70 70 70 70 70 70 70 70 71 70 70 69 69 69 68 67 67 67 67 67 67 66 65 63 63 63 62 60 58 57 57 57 57 58 57 56
70 70 70 70 69 69 69 69 69 69 70 69 69 69 70 70 70 70 69 69 68 66 67 66 66 66 66 66 65 64 62 61 61 59 58 56 56 56 56 56 56 56
68 69 69 69 68 68 68 68 69 69 69 69 69 69 69 69 69 70 69 67 66 65 65 65 65 65 65 65 64 63 62 61 60 59 58 57 57 57 57 56 56 55
66 67 67 67 67 68 67 68 68 68 68 68 68 68 69 68 68 68 67 66 65 64 64 64 64 64 64 64 63 62 61 61 60 59 58 58 57 57 52 56 56 55
65 65 66 66 66 67 67 67 68 68 68 67 67 67 67 67 66 65 65 65 65 64 63 63 63 63 63 62 61 60 60 60 59 58 58 57 57 57 57 57 56 56
63 64 65 65 65 66 66 67 67 67 66 66 66 65 65 65 64 64 64 64 63 63 62 62 61 60 60 60 60 59 59 58 58 58 58 57 57 57 57 57 57 57
62 63 64 64 64 65 65 65 66 66 66 66 65 63 62 63 63 62 61 59 60 60 61 61 60 60 59 59 59 59 58 57 57 57 57 57 56 57 57 57 57 57
60 61 62 63 63 63 63 63 64 64 65 65 64 62 61 61 61 60 59 58 58 58 59 59 58 59 59 58 58 58 58 57 57 56 56 56 56 56 56 56 56 56
59 59 59 59 59 59 59 60 61 61 61 61 61 61 59 57 57 58 58 57 57 57 57 57 58 58 52 50 51 57 57 57 57 56 56 56 55 54 53 52 54 54
58 58 58 57 57 56 56 54 54 54 54 54 54 55 56 55 54 55 55 56 56 56 56 56 57 57 49 49 49 50 55 57 56 56 56 55 55 54 53 49 48 48
57 57 56 55 55 54 53 50 49 48 49 50 50 49 50 47 49 52 54 54 55 55 55 55 56 49 49 49 48 48 48 55 56 56 55 55 54 54 53 50 48 47
56 55 55 54 53 52 50 46 46 45 46 46 46 47 44 46 49 49 50 51 53 53 53 54 54 49 48 48 48 47 47 49 56 55 54 54 54 52 50 48 47 46
55 55 53 54 52 50 46 44 44 44 45 45 45 44 45 46 46 46 47 48 50 51 52 52 51 48 47 47 47 46 47 47 53 54 54 53 51 50 49 47 46 45
55 54 53 52 50 49 46 44 43 43 43 44 43 44 44 45 45 45 46 46 46 47 48 49 50 46 45 46 46 46 46 46 51 52 52 50 50 47 47 47 46 45
55 54 52 51 50 48 44 43 42 42 42 42 42 43 43 44 44 44 45 45 45 44 45 46 47 45 44 44 44 45 45 47 49 50 49 47 45 45 45 45 44 44
55 53 51 50 49 46 45 43 42 42 41 42 41 41 41 42 43 43 44 44 43 43 44 45 45 43 43 43 43 44 44 46 46 45 45 44 44 42 42 42 42 43
55 53 51 49 49 46 44 44 44 41 41 40 41 40 40 41 42 42 43 42 42 43 43 44 44 42 41 42 42 43 43 45 44 44 42 42 41 40 40 40 41 38
53 51 50 49 47 47 46 43 41 40 40 40 41 42 42 42 41 42 42 41 41 42 38 42 43 41 41 41 41 42 42 43 43 43 42 41 41 40 38 39 39 37
53 51 49 47 46 45 44 43 40 40 39 40 41 42 42 42 42 42 41 40 39 39 39 41 42 42 42 41 41 41 42 42 43 43 42 41 40 40 38 37 38 38